GFSSGP_250_spd_000.txt.gz
Wind_Speed
32 33 28 33 33 32 33 32 31 27 25 26 25 25 26 27 27 28 28 28 23 21 19 20 17 20 24 24 29 29 31 34 38 40 43 45 49 40 42 37 30 22 23 28 31 34 31 27 23
28 30 31 28 35 34 33 33 31 31 30 29 27 28 29 29 30 30 28 25 22 19 18 20 21 21 23 26 29 30 35 36 36 42 44 45 41 37 32 28 26 18 20 27 30 33 34 30 23
25 28 31 31 30 34 34 32 32 31 30 31 30 29 28 28 28 25 24 22 22 16 16 17 18 21 24 26 27 27 32 36 38 39 41 40 31 26 25 25 18 13 15 23 28 31 37 30 24
23 26 27 30 32 34 35 34 32 33 33 30 29 26 21 14 15 16 18 19 18 21 19 18 21 21 23 26 29 32 35 36 37 37 32 26 24 24 23 20 12 13 16 15 24 27 30 33 26
25 24 24 24 24 27 31 31 30 29 23 22 22 17 16 11 9 11 13 14 17 16 19 16 18 23 26 29 28 31 31 28 28 24 25 24 22 21 21 15 10 14 14 15 17 23 23 26 29
25 25 27 26 24 24 22 20 19 17 17 15 18 15 14 15 15 14 14 13 17 17 18 19 22 24 25 24 25 24 24 21 22 21 21 22 20 18 15 13 12 14 13 14 16 18 18 20 24
17 19 23 22 21 19 17 15 12 12 11 11 11 13 16 17 15 17 16 17 17 20 19 17 19 21 20 20 18 18 20 20 18 19 17 16 17 17 18 12 12 11 13 14 14 16 17 16 19
14 17 19 17 15 13 15 13 11 11 15 17 17 19 19 18 14 14 15 17 18 18 17 16 18 15 12 13 16 16 16 17 17 13 14 17 18 20 19 18 14 13 13 13 15 18 18 18 16
13 14 16 16 16 15 14 13 13 14 15 15 15 17 19 19 16 15 15 15 15 13 13 10 6 7 10 12 11 13 13 14 13 13 15 19 22 21 20 19 18 17 16 18 21 22 22 20 18
16 18 19 16 16 14 14 14 14 17 17 15 11 6 6 7 12 11 8 6 5 4 3 3 6 6 6 8 11 12 12 12 16 20 23 24 26 27 27 26 25 23 22 24 24 23 20 19 18
14 18 17 14 12 11 12 13 14 11 9 10 4 3 1 2 3 3 3 2 1 1 2 2 2 4 9 11 12 13 14 18 20 22 24 23 26 25 25 24 23 26 30 32 30 31 38 29 19
5 17 16 11 13 14 13 17 13 6 8 6 7 5 2 3 2 2 2 2 2 1 2 4 9 10 14 18 18 19 17 18 20 19 19 19 20 24 24 24 23 24 24 28 32 33 30 29 39
10 6 11 9 10 13 13 15 13 9 8 8 5 5 7 6 4 3 2 1 3 8 12 18 20 20 20 19 18 18 17 16 17 17 18 18 21 22 21 23 23 24 24 27 28 31 32 33 37
13 3 4 10 13 17 16 15 14 11 7 6 7 10 10 5 6 7 8 10 15 19 19 17 19 19 18 17 18 18 19 18 17 16 16 17 20 20 19 20 23 26 25 28 29 31 33 34 35
17 11 4 6 12 14 16 14 9 7 7 8 5 5 8 12 13 13 17 19 17 16 16 17 17 18 17 16 16 16 16 16 17 16 13 13 15 18 19 22 20 22 25 26 28 33 34 34 32
11 12 10 6 7 11 14 12 10 7 4 4 4 9 15 19 20 20 16 14 14 15 15 16 17 15 14 14 12 12 12 12 13 13 15 14 14 17 17 17 21 24 27 28 30 32 36 35 37
3 7 10 13 11 13 15 15 14 12 12 15 16 20 17 17 17 16 15 14 14 14 14 15 14 12 11 11 11 13 14 14 14 16 16 17 16 18 19 20 22 26 28 30 30 30 37 38 38
3 3 6 8 8 13 16 20 21 20 19 16 15 13 18 20 18 17 15 14 13 12 11 9 8 8 8 8 11 13 12 13 14 16 16 18 20 22 22 23 21 23 26 30 33 31 35 37 38
10 8 7 8 3 5 10 15 18 16 16 16 17 18 16 16 14 13 12 11 9 7 6 4 5 6 7 9 10 12 15 17 17 19 21 22 22 23 23 25 25 23 26 29 32 36 34 39 38
18 15 12 11 11 9 10 12 12 11 14 17 15 11 9 6 7 6 5 6 5 4 3 2 2 2 6 10 13 16 17 19 20 23 24 25 26 26 25 26 27 27 26 29 31 36 36 42 41
27 23 19 15 14 15 13 14 13 13 14 15 15 13 9 8 5 2 2 3 2 2 2 2 3 4 9 13 15 17 20 22 23 25 27 28 27 26 26 26 27 28 26 28 30 34 37 40 37
35 33 27 20 20 18 16 14 15 16 19 20 18 17 13 11 12 9 7 6 6 5 5 6 7 9 12 15 16 19 22 24 27 27 28 30 28 28 27 26 26 26 27 28 31 39 38 37 35
45 40 33 29 27 20 20 19 16 16 16 21 21 22 20 17 16 14 11 10 9 8 9 10 12 15 18 20 21 22 24 26 28 30 29 29 29 29 29 29 29 28 29 31 38 43 36 38 39
50 43 38 34 33 24 27 25 22 23 18 20 21 23 24 22 18 15 14 12 12 12 15 17 19 21 23 24 25 27 28 29 31 31 31 31 33 33 33 34 32 33 34 39 42 39 40 38 36
56 45 39 35 35 30 33 30 30 28 23 23 20 22 23 22 20 16 16 16 16 19 22 23 25 26 29 29 30 31 31 31 31 33 34 36 38 39 37 36 37 38 41 46 40 39 47 41 40
62 54 45 42 38 38 42 35 39 32 30 30 28 26 26 25 24 23 21 20 22 25 27 28 29 30 31 33 34 34 33 33 33 34 37 39 41 41 40 39 39 36 37 40 46 49 47 47 40
65 62 52 51 46 44 43 45 43 35 34 37 36 33 31 30 29 28 27 27 29 30 32 33 34 34 34 35 36 35 34 35 37 38 40 42 43 42 41 39 39 35 36 40 48 50 50 39 42
71 67 67 56 51 45 47 45 47 42 41 41 37 36 36 33 33 33 32 31 32 33 35 36 38 39 38 37 37 36 36 37 40 42 44 46 46 45 36 39 43 39 46 50 49 47 46 45 56
78 76 70 63 58 51 49 48 56 46 45 45 43 41 39 39 38 37 35 36 39 40 40 41 41 42 41 40 38 37 38 41 43 47 47 47 48 42 42 40 45 43 48 50 52 49 50 54 58
89 85 81 74 59 55 52 53 60 52 49 50 49 46 45 45 44 42 40 41 43 43 44 44 42 43 44 43 40 40 41 44 47 48 50 47 44 45 44 46 45 48 51 49 49 56 56 57 61

GFSSGP_250_spd_003.txt.gz
Wind_Speed
31 30 31 30 23 37 36 35 33 33 30 28 26 25 26 26 23 26 24 26 28 27 23 23 21 20 21 26 30 29 31 35 34 38 41 40 39 35 26 23 18 11 19 23 30 30 28 23 22
28 30 31 32 38 31 34 33 33 29 28 28 29 29 30 30 28 31 30 30 28 24 22 22 21 23 28 26 28 28 32 34 36 40 38 34 34 26 20 17 12 8 16 19 24 29 32 22 16
27 27 32 32 33 35 34 31 31 32 32 30 30 32 33 33 32 31 29 29 27 25 20 16 17 21 22 23 25 26 31 34 36 33 28 27 25 20 18 12 7 9 11 17 18 24 29 26 15
25 27 31 29 27 30 31 34 33 33 33 33 34 36 36 30 25 21 21 21 19 19 20 19 19 22 21 21 26 30 29 30 26 23 24 23 20 17 13 6 9 11 11 11 15 20 25 26 20
24 24 27 30 32 32 32 34 35 34 35 34 32 30 26 21 16 13 12 13 11 12 15 19 21 21 23 24 24 24 22 20 23 22 19 17 17 15 10 7 9 11 9 9 14 16 21 22 19
23 23 25 25 28 28 31 32 34 35 32 28 22 20 18 16 17 14 13 12 15 15 17 18 20 21 21 20 20 18 17 18 16 15 13 16 17 14 10 7 8 9 10 13 13 15 18 17 16
23 23 25 26 25 25 26 28 26 25 22 18 18 18 20 16 17 15 16 13 15 16 19 19 18 16 19 16 11 13 12 12 12 13 14 15 14 13 14 12 11 11 11 14 17 17 15 13 11
21 22 24 24 23 23 22 23 20 16 14 16 18 20 21 21 18 15 13 14 18 19 18 14 13 13 9 9 9 9 9 11 13 12 13 15 17 18 16 16 15 14 16 18 19 20 17 13 13
13 14 18 18 18 19 17 19 19 20 17 17 17 17 19 20 18 18 15 15 15 13 12 9 6 6 6 4 4 7 11 13 15 17 21 22 23 24 25 25 25 24 22 22 29 35 34 25 11
12 17 18 19 21 19 17 15 16 15 15 18 16 13 11 7 6 9 10 6 5 4 4 4 5 5 1 4 8 14 16 17 20 20 20 21 23 23 25 23 23 25 28 32 24 31 34 41 41
10 20 20 23 19 14 14 11 12 13 13 11 12 11 6 4 3 2 1 2 3 4 5 5 3 5 10 13 15 15 17 19 19 17 18 20 21 21 22 24 24 27 27 27 29 27 30 29 39
9 16 22 19 17 14 12 10 13 14 13 7 10 7 4 2 3 2 4 4 4 3 2 3 8 14 17 17 17 16 15 16 16 16 17 19 20 22 23 24 25 25 26 26 29 32 33 28 31
13 4 11 15 15 14 15 13 13 14 12 10 10 5 5 7 8 6 4 2 2 5 11 17 18 17 16 17 17 17 16 16 16 16 17 18 19 21 20 20 22 26 29 28 27 33 31 32 34
16 9 2 11 13 15 15 15 17 15 11 11 12 8 6 6 7 6 7 7 11 17 16 17 16 16 17 17 18 18 19 18 14 12 11 11 14 15 16 14 17 22 27 30 28 32 34 33 34
12 12 6 4 10 13 14 12 14 15 12 7 5 2 1 7 11 13 16 19 18 15 15 15 16 16 15 15 14 13 12 12 11 10 10 11 14 17 12 11 14 18 23 26 29 27 33 38 36
8 10 11 5 4 10 11 14 12 10 6 10 9 7 10 13 16 20 19 14 14 14 13 13 14 14 13 13 12 11 10 10 11 11 13 15 15 17 18 18 19 19 21 22 25 29 32 36 37
4 4 8 9 5 3 10 11 12 10 14 16 14 15 17 20 19 16 14 14 15 15 14 14 12 9 8 9 10 11 11 14 16 17 18 18 19 20 20 21 21 22 22 24 23 25 30 33 36
8 3 2 8 7 7 6 10 14 19 20 22 22 19 17 16 14 15 15 16 15 15 12 8 7 6 5 6 8 10 14 15 15 18 20 21 23 23 22 23 23 21 22 24 24 24 28 32 34
16 10 8 6 8 6 6 14 17 17 19 21 20 22 19 17 15 14 14 14 13 11 9 6 5 3 4 7 10 12 13 16 19 21 22 22 21 21 22 22 23 22 21 23 22 22 29 34 33
23 18 14 12 11 11 9 12 12 15 18 18 22 21 20 16 14 11 10 10 9 8 7 6 5 3 3 9 12 14 13 15 18 21 21 21 21 20 22 22 22 22 21 21 22 23 33 38 32
32 27 23 19 15 14 13 13 15 16 19 21 20 19 15 11 9 6 6 6 6 6 6 6 5 3 5 10 14 14 13 16 18 20 21 20 21 21 23 24 25 24 23 22 25 26 35 33 37
39 35 31 26 20 19 19 18 16 17 19 21 20 18 15 11 10 9 7 6 6 6 7 7 6 6 8 12 15 16 19 21 23 23 21 21 22 23 25 25 25 26 23 23 25 32 36 33 37
44 45 38 33 29 28 21 20 23 23 22 23 23 22 21 18 14 14 12 11 10 10 9 9 9 10 14 16 17 19 22 25 26 24 22 22 23 26 28 27 27 26 25 24 25 27 31 32 36
53 51 43 37 36 33 26 26 26 24 25 22 28 26 26 24 21 21 19 16 15 13 13 14 14 15 17 19 20 22 25 26 25 24 24 27 28 30 31 30 26 26 28 32 28 32 34 36 35
60 54 49 42 35 36 36 33 31 30 28 26 24 27 26 25 25 24 22 22 19 18 18 18 19 21 21 23 24 26 27 26 26 27 29 31 32 34 35 34 31 30 26 31 29 34 41 42 41
68 64 53 50 44 43 42 38 40 38 33 29 29 27 25 26 26 27 26 26 24 22 23 23 24 25 27 28 28 29 28 28 27 28 31 34 35 37 38 35 33 28 36 37 36 38 42 47 46
69 69 58 59 53 48 43 47 51 42 34 34 36 32 31 30 27 28 28 27 27 28 28 29 29 29 30 32 33 32 30 31 30 30 32 37 39 39 40 37 32 35 39 39 38 40 43 48 48
78 72 72 61 57 52 52 52 49 48 42 40 41 37 36 36 33 34 33 32 33 33 33 34 34 33 35 36 36 34 33 32 32 34 35 40 42 42 40 43 39 36 40 42 47 53 56 58 51
84 79 78 71 68 60 57 54 54 54 45 45 46 44 41 40 39 38 38 37 36 37 38 37 37 38 38 38 37 37 35 33 36 38 39 44 49 48 48 44 42 41 42 44 46 49 50 53 55
92 89 88 84 72 64 63 58 62 60 52 48 49 49 48 46 44 42 43 41 40 42 41 41 41 41 42 41 41 41 37 37 39 40 42 48 52 52 50 47 46 49 49 49 51 52 53 55 56

GFSSGP_250_spd_006.txt.gz
Wind_Speed
28 25 20 18 23 27 36 28 31 32 36 28 26 28 24 26 26 27 26 28 29 29 29 27 26 26 26 27 31 33 37 36 38 39 40 38 28 25 25 18 9 7 12 16 24 29 17 16 16
27 26 23 23 23 32 22 29 30 33 33 32 26 26 28 31 30 30 34 32 34 32 31 25 24 25 22 25 26 29 30 34 37 37 33 26 27 25 19 10 7 6 8 14 19 27 21 10 10
28 28 31 34 35 22 12 22 32 31 34 29 25 26 28 30 33 36 32 32 29 29 26 25 20 19 21 22 25 28 29 31 29 28 25 25 21 15 10 5 7 5 9 12 15 22 23 14 6
24 27 32 41 46 33 30 29 28 34 35 33 32 33 34 34 36 32 26 22 19 18 14 17 20 20 22 25 25 27 27 27 22 23 22 16 14 12 11 9 9 9 11 11 14 17 19 16 9
13 23 33 34 29 32 31 35 35 37 33 32 34 33 33 34 27 23 19 14 14 14 14 14 17 22 26 26 27 25 23 19 20 18 14 15 11 11 11 10 9 9 12 14 15 16 14 14 11
18 23 32 32 31 34 32 31 34 37 33 34 34 32 28 22 20 18 19 15 14 16 16 16 20 22 26 24 21 18 16 16 14 12 13 13 10 12 11 13 11 11 13 17 19 17 11 7 8
16 21 32 29 30 30 31 30 31 33 34 30 31 25 20 21 23 20 21 18 17 14 14 18 25 22 18 19 13 13 12 10 10 10 13 17 20 20 18 20 19 20 24 27 34 32 23 8 5
16 10 24 28 27 30 30 29 27 26 24 20 18 19 20 23 25 26 23 18 14 15 17 18 16 15 12 9 11 8 7 9 12 16 18 21 23 25 28 25 25 24 26 27 32 29 34 37 17
28 27 23 26 27 27 25 22 19 18 17 17 21 23 26 25 25 25 22 17 15 13 11 12 11 8 8 7 4 9 14 17 17 19 21 24 24 24 26 26 26 25 23 27 29 28 33 36 41
20 25 27 24 22 24 22 19 18 20 20 20 20 21 20 18 17 11 11 10 9 7 6 7 7 8 3 3 11 14 16 15 17 19 23 24 23 23 25 27 31 27 28 33 30 31 26 32 34
9 19 23 22 21 20 21 22 20 20 18 15 17 15 15 14 7 6 4 4 3 4 6 5 5 2 8 13 14 15 14 15 18 21 22 22 24 24 27 13 21 24 25 26 32 34 31 32 28
9 12 21 22 25 23 22 16 16 14 11 12 11 12 6 4 3 3 3 4 3 4 3 1 6 12 14 14 13 13 14 17 19 20 21 21 20 20 19 16 16 21 23 22 25 31 35 34 32
11 8 9 16 16 16 17 16 14 13 12 13 11 11 6 7 8 9 8 5 2 2 4 13 15 14 14 15 15 15 15 16 17 16 14 13 15 11 11 13 19 21 20 22 25 29 32 34 35
13 12 7 6 12 16 15 16 14 13 13 13 14 14 11 10 8 9 8 8 9 14 17 16 15 15 16 17 18 17 15 12 12 11 10 12 12 12 7 13 17 19 22 22 24 27 31 34 36
12 13 11 6 7 8 10 13 13 15 14 13 13 18 10 5 5 8 11 15 18 17 14 14 15 15 14 12 12 11 12 12 10 11 12 14 15 15 13 13 14 16 21 24 25 26 29 34 29
8 8 10 8 5 7 10 9 9 7 13 14 12 11 9 11 11 14 17 18 17 15 13 14 14 13 11 10 11 11 11 11 12 13 14 14 15 15 15 16 17 19 21 22 23 24 28 33 30
8 5 5 7 5 3 5 7 8 8 10 14 16 13 13 16 19 18 15 15 14 13 14 14 11 7 8 10 10 11 10 12 13 15 16 17 17 17 17 17 19 19 20 20 21 20 24 31 30
15 8 2 2 5 5 4 9 10 7 13 18 19 19 20 20 17 14 15 15 15 15 14 10 6 5 7 10 10 9 11 12 14 16 16 16 16 16 19 19 18 17 18 19 20 20 21 31 28
21 16 10 7 4 6 6 12 4 12 18 17 19 22 20 17 16 15 15 14 15 13 10 7 5 4 6 7 9 10 11 13 15 17 17 18 19 18 17 17 18 18 18 18 17 19 22 27 23
28 22 19 13 13 10 10 10 12 13 13 16 16 17 17 19 18 16 15 13 11 10 9 8 7 4 2 5 8 9 10 15 18 19 19 17 15 16 18 19 20 19 18 17 16 17 22 23 26
33 29 25 21 17 15 15 16 14 13 14 15 17 19 18 17 16 15 14 13 12 10 9 7 6 4 4 7 10 13 13 15 18 19 20 19 18 20 21 21 20 21 21 19 18 19 18 24 25
36 38 32 29 22 22 19 19 17 16 17 18 22 20 16 11 10 9 10 11 10 10 9 8 7 6 7 10 12 12 14 16 18 19 20 19 20 22 25 26 24 24 23 20 20 22 22 26 29
43 46 39 35 30 30 24 23 24 21 22 23 25 23 21 17 14 13 13 12 12 11 11 10 9 9 11 13 14 14 16 19 19 19 20 21 23 25 28 28 28 26 23 25 24 26 28 30 31
55 50 48 40 37 32 30 26 27 25 27 27 28 27 27 26 23 20 17 14 13 14 13 12 12 12 14 16 16 17 18 21 21 21 22 23 25 28 31 33 34 32 28 28 24 31 34 33 36
61 58 52 47 38 33 36 33 30 30 29 28 29 27 32 30 30 28 24 21 19 18 17 17 15 15 18 18 18 20 21 22 23 23 25 26 28 31 33 35 39 38 39 36 34 36 37 38 40
69 66 59 52 47 45 44 38 37 38 35 32 30 33 29 33 33 31 30 27 24 22 20 21 21 22 22 22 22 22 24 25 26 27 27 28 29 33 36 38 42 41 41 41 39 40 41 40 43
69 72 63 63 58 54 46 45 43 46 42 39 35 32 33 33 30 31 30 28 27 26 25 25 27 27 27 27 27 26 27 28 28 30 29 30 32 34 39 41 42 45 45 42 41 41 44 47 47
77 73 74 68 64 57 55 53 47 49 52 44 40 37 42 38 35 35 34 32 31 29 28 29 30 31 30 32 32 31 30 32 32 31 32 33 35 37 41 45 46 47 48 47 42 44 46 47 51
70 81 77 76 74 68 61 55 54 54 54 51 46 43 47 45 38 41 38 37 36 35 35 33 34 34 33 34 35 34 34 36 35 35 36 36 38 41 44 47 51 49 50 47 46 47 51 53 51
55 66 83 83 76 72 68 59 60 63 63 56 52 51 55 51 45 46 42 40 38 39 38 37 37 37 37 37 38 39 40 40 39 40 41 40 42 45 48 52 52 53 53 53 52 49 49 52 56

GFSSGP_250_spd_009.txt.gz
Wind_Speed
19 18 16 16 21 26 29 21 25 32 27 27 29 26 27 24 25 27 29 28 29 31 30 28 28 26 19 23 30 32 31 31 34 36 36 35 29 25 21 14 6 6 11 16 25 18 11 13 16
20 19 19 27 18 22 24 26 26 38 26 29 31 29 25 23 26 29 31 34 34 29 27 28 26 27 27 28 26 24 28 31 31 32 33 28 23 17 12 8 6 6 12 14 19 20 11 7 8
15 12 24 29 25 18 16 35 32 30 30 30 29 27 27 26 28 32 34 33 27 21 22 23 24 23 24 22 22 26 28 30 30 30 26 20 16 13 11 11 9 9 9 12 16 16 13 8 3
20 12 18 44 32 30 26 17 12 18 26 30 30 29 31 32 33 36 34 26 19 15 18 13 13 14 16 20 27 27 30 29 25 22 16 17 12 11 12 9 8 8 11 14 14 13 11 7 5
37 33 26 28 41 37 40 31 32 34 32 27 26 30 30 31 32 30 25 21 19 20 18 16 15 15 16 21 26 26 24 22 18 13 13 12 11 12 13 12 12 15 26 29 25 9 2 4 4
36 33 43 37 33 36 41 37 38 34 33 32 30 31 34 33 27 23 22 23 21 20 16 19 19 20 23 22 18 20 18 15 9 8 12 15 18 20 22 25 27 29 32 28 30 33 17 3 2
35 28 31 42 40 36 40 35 29 30 30 29 29 30 30 24 24 24 24 23 24 19 13 16 18 21 17 16 15 13 11 6 10 14 15 19 25 29 27 21 26 27 29 28 30 33 34 25 2
33 20 23 30 39 36 35 31 27 28 30 27 24 23 19 19 22 25 27 29 24 18 17 18 13 12 11 9 10 5 9 15 15 17 21 25 26 26 27 27 28 32 36 32 31 31 30 30 25
27 23 20 18 31 32 31 30 27 27 25 23 18 17 18 22 25 26 27 26 21 18 17 11 8 6 8 6 5 13 14 14 19 19 22 22 25 29 29 23 26 25 30 33 32 30 28 29 36
31 36 37 33 28 31 31 28 28 24 23 18 17 21 20 23 24 21 22 15 14 13 8 4 5 6 5 10 12 13 12 15 18 20 21 19 24 17 16 22 20 23 28 30 32 34 29 22 20
12 19 31 35 33 28 27 25 24 21 19 18 18 19 14 15 13 16 9 7 4 1 2 4 3 5 13 13 14 13 13 17 20 23 19 17 9 15 16 18 21 23 23 25 31 33 35 28 28
9 10 17 27 27 23 19 22 19 19 19 18 15 14 11 6 5 6 6 4 1 1 2 4 8 13 14 12 12 14 18 19 19 17 17 14 11 12 12 19 19 19 21 23 24 29 32 29 29
14 13 8 15 20 23 24 22 17 20 18 16 13 12 12 12 10 9 7 3 2 3 6 11 15 14 12 14 15 15 16 14 11 10 14 13 11 7 8 13 15 17 19 18 20 25 28 23 25
15 15 11 5 11 20 20 22 19 19 18 14 14 15 18 15 11 7 4 4 8 12 15 16 14 15 18 19 16 13 11 10 10 11 12 11 11 10 11 12 14 15 18 17 18 20 25 21 21
13 16 15 10 4 7 11 15 14 13 12 14 14 16 18 15 10 5 8 13 18 18 16 16 17 16 14 11 12 13 12 11 11 12 12 11 10 9 8 11 13 13 14 16 16 15 20 21 21
10 11 13 10 7 2 7 10 11 9 13 14 16 17 16 22 12 14 17 20 18 15 17 16 16 13 12 12 12 12 10 10 10 11 11 11 11 11 12 12 12 12 14 13 13 13 14 20 19
12 10 9 9 6 3 6 12 12 10 9 11 13 18 16 14 17 21 21 20 18 17 16 16 14 12 12 10 11 10 9 10 12 13 12 11 13 13 12 12 12 13 15 15 12 13 12 16 16
17 14 11 6 5 1 7 9 9 4 8 11 12 17 14 16 22 21 19 19 16 17 16 13 10 10 10 10 9 7 8 11 12 13 14 15 14 13 14 15 16 16 17 17 15 13 14 14 16
22 21 17 11 6 2 8 10 3 9 10 14 15 15 18 20 17 17 18 17 16 17 15 10 10 8 7 6 8 7 9 10 12 14 14 14 14 14 17 19 20 19 18 18 19 19 19 15 20
25 25 22 18 14 7 6 11 6 8 12 16 18 19 18 18 17 18 19 18 16 13 11 8 7 7 4 2 7 9 8 9 12 13 13 14 15 18 19 21 23 23 22 20 20 20 21 22 27
32 32 27 24 22 16 13 10 11 11 11 13 15 18 16 15 17 17 18 18 17 15 12 10 8 8 5 2 5 7 8 10 13 13 14 14 17 18 22 24 25 26 27 26 24 24 24 22 24
39 39 35 30 26 22 18 17 17 16 13 12 13 16 17 16 15 15 15 13 12 12 12 11 10 8 8 6 6 8 10 10 13 15 16 17 18 21 23 25 27 29 30 29 29 28 27 25 31
49 45 42 37 30 27 21 18 24 19 21 21 18 21 21 16 14 12 11 12 12 11 12 11 11 11 11 9 8 9 11 13 14 16 18 18 20 23 25 28 30 30 34 36 35 33 29 30 31
55 51 48 45 35 27 27 24 22 23 28 27 24 25 25 23 19 17 15 12 11 11 12 11 12 12 12 11 11 12 13 15 17 18 19 21 22 23 26 29 33 35 38 42 41 40 38 30 32
57 55 53 49 41 32 35 29 30 26 28 28 27 28 31 27 26 26 25 20 15 14 14 14 14 15 15 15 15 16 17 18 20 20 21 23 25 27 28 31 33 37 38 39 40 41 40 37 35
62 60 55 54 50 48 46 34 38 34 33 32 31 33 33 35 33 32 32 26 25 23 19 17 17 16 17 20 22 21 22 23 23 23 23 24 25 29 31 32 34 37 40 43 44 44 40 40 39
46 54 61 65 61 56 47 44 44 43 39 38 35 37 36 34 32 37 34 34 32 28 25 23 21 22 21 24 25 26 26 26 25 26 25 26 27 30 34 35 38 39 42 44 46 45 45 41 41
25 34 58 63 63 57 54 52 45 48 44 44 43 41 39 41 37 40 29 38 35 31 28 27 26 26 25 28 28 29 29 31 28 28 27 28 29 32 35 38 40 44 45 47 49 47 44 44 45
45 35 37 59 66 66 61 52 56 55 54 50 50 49 46 43 41 40 35 39 33 32 30 31 31 30 31 31 31 32 34 35 32 33 32 31 33 37 38 40 43 45 48 50 50 51 49 45 45
45 41 40 49 49 67 72 57 63 63 66 60 56 56 53 51 45 44 44 41 37 38 36 35 35 34 35 35 35 36 37 36 35 37 38 37 37 40 42 44 45 49 50 52 53 53 51 52 54

GFSSGP_250_spd_012.txt.gz
Wind_Speed
18 12 14 17 17 24 24 22 19 26 24 22 21 23 24 26 26 26 26 25 28 33 30 24 23 28 28 26 29 25 28 28 33 34 34 31 25 20 15 10 7 9 14 14 17 8 8 13 18
15 15 16 22 24 20 23 28 29 28 23 30 35 29 28 28 30 31 28 28 31 36 29 23 21 25 24 23 25 24 24 29 30 32 31 23 20 15 11 11 6 12 15 16 14 11 3 5 7
17 21 19 27 26 32 30 23 29 32 28 24 30 34 28 29 31 34 34 32 34 26 19 18 16 16 14 15 13 19 23 27 29 27 22 19 13 12 12 11 11 15 15 15 11 10 3 2 3
27 19 16 9 20 22 24 13 15 25 26 23 21 28 29 30 30 33 33 33 26 19 20 19 20 16 14 15 17 21 22 22 22 18 16 13 13 15 16 18 17 19 23 25 10 3 4 3 3
33 26 12 14 20 27 22 15 17 17 21 20 26 27 28 28 29 31 34 29 23 22 22 21 20 19 17 19 20 20 17 16 14 10 10 14 18 19 24 23 24 25 25 28 30 16 5 2 6
37 29 18 18 9 29 35 32 28 33 31 37 34 32 28 29 34 31 28 24 22 21 23 22 17 17 18 19 15 14 14 10 7 10 17 21 21 24 21 25 27 26 27 27 29 26 12 7 9
39 39 22 29 24 24 32 40 40 46 45 41 32 31 29 29 29 26 23 22 24 25 25 21 20 16 10 12 10 10 8 11 11 17 20 21 22 27 26 25 29 32 31 28 24 26 27 9 8
37 42 45 29 28 39 38 39 39 40 40 33 31 30 28 28 22 19 22 25 26 25 21 16 16 8 8 9 8 13 13 14 19 20 21 26 25 20 20 23 27 30 31 29 24 21 34 35 9
32 33 39 36 27 26 40 42 40 34 30 30 30 28 26 20 19 22 25 24 24 19 14 14 6 6 6 10 14 14 14 17 19 19 20 17 14 18 17 21 23 25 30 30 30 25 16 25 29
31 32 32 35 31 27 24 31 38 34 31 27 26 27 20 18 20 22 18 18 13 9 6 2 2 4 10 14 14 12 15 18 20 16 17 14 18 14 17 21 20 19 22 27 28 25 22 26 29
12 23 30 32 39 44 41 36 38 35 32 24 24 22 14 18 17 13 12 6 4 1 1 2 5 10 12 14 11 12 17 20 19 15 11 9 7 9 10 18 17 17 17 20 22 23 22 20 26
7 8 11 18 28 35 33 30 33 32 30 27 18 15 16 17 12 9 4 3 2 2 3 7 11 14 14 12 12 16 15 17 13 11 9 6 5 6 12 15 16 16 15 16 21 19 19 18 15
8 9 12 15 17 27 26 24 22 24 22 20 19 16 13 11 10 8 8 4 4 4 9 12 15 14 14 16 15 15 11 8 7 7 7 6 6 9 9 11 11 13 13 12 14 15 13 12 10
11 10 10 15 13 14 21 20 22 21 20 21 19 17 13 12 11 12 8 5 6 10 16 16 14 16 18 16 13 10 8 7 8 7 7 7 8 9 10 11 14 11 10 11 10 11 11 14 15
12 12 10 11 13 4 12 19 21 20 19 17 22 18 9 11 12 16 8 9 15 18 17 17 19 18 14 13 13 12 11 9 8 8 9 10 11 12 13 13 14 15 18 15 13 14 13 11 15
13 12 10 7 6 6 12 16 17 18 20 14 14 13 9 9 14 14 13 19 20 19 20 20 17 13 13 13 12 11 8 7 7 10 11 13 14 14 16 17 19 21 20 19 16 15 17 15 17
14 15 12 9 7 6 8 13 18 16 12 14 16 17 13 11 13 19 24 22 20 21 22 19 17 15 13 10 9 7 6 7 8 10 13 14 14 14 16 18 18 17 18 20 17 16 18 19 21
19 18 15 12 8 9 4 9 11 11 11 14 14 13 13 15 20 26 25 22 22 21 21 17 15 14 12 9 7 6 5 6 9 11 11 12 13 14 17 18 20 22 22 23 23 20 18 19 20
23 23 21 14 11 5 5 9 5 8 10 12 10 11 17 21 23 24 23 23 22 21 19 16 14 12 10 8 7 4 3 6 9 12 13 12 13 14 17 19 21 22 23 23 22 23 23 23 23
30 27 26 20 15 12 4 8 4 4 5 8 9 13 18 24 24 23 24 21 21 20 18 13 13 11 9 6 3 2 4 6 9 12 12 12 13 15 17 19 21 24 26 27 27 26 25 27 25
38 36 31 26 20 13 15 7 9 6 6 8 13 17 20 18 14 15 21 24 23 22 17 14 13 12 7 3 1 3 6 7 11 13 12 13 14 15 18 19 22 24 26 28 31 31 31 29 28
43 45 38 31 24 22 16 14 10 9 8 10 14 16 16 17 17 16 16 18 20 16 14 11 11 13 12 9 6 7 9 10 11 14 12 13 16 18 20 22 24 26 29 32 34 36 36 37 31
56 48 44 40 30 27 21 17 13 14 17 15 15 16 15 16 18 18 18 17 16 14 12 11 11 12 12 11 10 10 11 13 13 13 13 14 16 18 20 23 26 29 31 33 35 37 37 37 34
62 53 52 48 38 25 27 23 19 21 21 20 20 19 20 21 22 20 16 15 14 14 13 13 13 14 14 13 14 15 14 16 16 16 14 15 19 21 22 25 28 30 31 33 34 34 35 35 34
54 59 55 51 45 34 41 32 34 28 25 26 26 22 23 24 26 27 22 16 14 11 12 14 14 15 17 17 18 19 19 19 19 19 18 18 21 23 26 28 30 33 34 34 35 35 36 35 35
38 53 57 54 53 53 50 34 41 37 33 32 29 28 27 32 35 31 29 24 21 18 17 16 15 17 17 19 21 23 24 23 21 20 20 21 23 24 28 30 32 34 36 37 37 37 36 36 35
36 30 50 59 58 53 51 45 45 41 39 36 32 31 33 36 39 37 34 32 30 28 25 23 24 22 20 20 24 25 26 25 23 22 23 23 25 26 28 31 34 36 38 40 40 39 40 38 38
32 36 35 44 57 58 57 55 47 47 46 46 43 41 41 42 40 42 42 42 34 32 29 28 29 29 27 25 27 29 29 28 26 25 26 26 28 30 31 34 36 39 41 43 45 45 43 44 43
44 39 33 35 43 54 60 51 57 56 56 52 50 49 46 43 42 44 42 39 31 31 35 31 34 32 31 30 30 32 33 31 29 29 29 30 30 33 35 37 38 40 42 44 48 50 47 49 48
40 38 35 31 30 32 48 59 65 65 62 62 54 50 50 47 45 44 43 43 38 36 37 32 37 35 36 34 35 37 35 34 34 33 34 36 35 37 39 40 41 44 47 48 48 51 53 53 54

GFSSGP_250_spd_015.txt.gz
Wind_Speed
22 20 18 22 21 21 22 23 27 15 20 19 18 20 23 26 27 26 26 28 31 33 35 35 20 21 20 21 21 21 21 23 27 29 30 28 21 15 11 12 12 17 18 15 11 4 8 13 15
25 23 22 24 23 22 26 25 26 28 29 31 26 25 30 35 26 31 28 29 32 34 37 28 19 17 18 14 14 13 15 21 24 24 24 19 16 14 15 13 15 18 15 13 7 8 2 5 8
26 23 26 25 25 25 22 27 28 26 29 30 29 26 30 31 30 32 28 29 30 33 31 19 21 18 18 13 16 18 18 20 19 19 18 12 14 19 19 17 17 18 22 18 4 2 2 4 5
26 25 23 26 26 25 28 29 30 35 21 20 24 25 20 25 29 31 31 29 31 33 26 18 20 21 20 16 20 20 17 15 14 13 10 13 22 22 20 20 21 21 23 26 17 1 3 4 4
32 26 17 13 17 19 24 26 33 26 22 18 20 20 28 32 35 32 31 32 31 25 20 21 21 21 21 17 15 13 13 10 9 9 13 20 20 23 25 21 18 22 21 25 24 14 4 3 2
34 26 21 19 14 20 20 24 26 24 20 20 24 30 37 38 35 31 32 30 24 22 23 21 18 22 12 9 11 11 7 9 12 14 18 23 22 23 26 24 26 25 24 24 29 23 8 5 3
35 32 23 23 20 15 30 29 31 31 35 36 36 40 42 42 33 31 29 24 23 25 23 16 14 13 8 9 7 10 11 14 14 16 22 25 21 18 23 23 24 26 27 21 24 32 18 6 0
37 35 35 36 29 25 23 32 33 35 40 41 38 39 36 32 32 29 23 23 25 24 16 10 11 5 6 7 14 13 16 16 17 22 21 16 14 17 19 20 22 25 28 25 20 29 28 12 5
33 35 37 40 35 39 43 35 35 43 43 37 37 31 28 29 26 22 22 25 21 14 7 6 3 5 10 15 14 16 16 18 18 19 13 11 12 15 18 17 16 19 24 24 23 23 25 24 18
26 27 31 35 39 42 48 46 35 29 30 36 37 29 25 23 21 19 21 19 11 6 4 1 2 10 15 14 14 14 15 15 15 12 10 11 7 9 14 15 15 15 19 17 20 19 20 19 18
23 27 29 34 38 39 42 46 46 45 47 39 35 27 25 19 17 17 18 7 5 3 0 1 7 15 15 12 12 15 16 14 10 8 6 2 4 8 13 13 12 11 14 14 14 14 10 13 13
15 16 19 23 22 27 37 42 43 40 36 32 25 17 20 19 16 15 9 3 4 3 2 6 13 17 14 12 15 14 12 10 8 5 4 5 7 9 14 15 14 12 11 10 10 12 12 11 13
14 16 17 17 18 19 25 25 29 28 24 20 20 17 17 17 14 5 5 7 6 5 6 13 15 15 14 16 16 11 6 4 5 5 7 8 10 14 16 17 17 15 12 10 9 10 11 12 18
17 15 13 15 13 17 23 21 21 20 18 16 20 17 16 17 13 5 5 5 7 7 12 16 16 16 16 14 11 7 4 5 8 10 11 14 15 16 18 18 19 18 16 13 13 15 14 14 19
17 17 12 11 15 17 18 19 21 20 19 16 17 18 14 15 13 7 6 8 7 15 17 17 21 20 15 12 11 8 6 6 9 12 14 13 14 16 17 18 19 18 17 17 15 13 14 15 15
20 15 13 10 13 16 16 20 15 14 20 16 16 17 12 10 11 10 7 12 18 19 20 23 20 17 15 14 10 7 5 7 11 11 11 13 14 14 17 19 19 20 21 22 20 20 19 17 18
21 18 14 10 10 15 16 14 10 15 17 16 16 15 13 14 12 11 14 21 22 22 23 20 18 17 14 11 9 5 4 8 10 10 12 13 13 16 19 20 22 24 24 25 25 23 22 21 23
23 21 19 12 13 8 12 8 7 8 14 14 15 12 14 15 14 16 23 27 26 23 21 19 19 17 13 9 7 5 3 6 8 9 11 11 12 14 17 19 23 25 28 29 28 28 26 24 23
31 25 23 17 16 9 8 11 9 5 10 13 12 12 12 10 15 20 26 26 27 26 23 19 16 14 12 9 6 5 2 5 9 9 10 10 11 14 16 18 22 24 25 27 29 30 29 29 26
38 33 30 22 18 14 7 10 11 7 9 11 13 11 12 17 21 27 26 24 24 27 23 19 17 14 11 9 5 3 2 4 8 8 8 10 12 12 14 17 20 22 25 26 30 33 34 33 32
45 44 37 30 20 21 15 11 11 10 5 7 8 11 15 21 24 22 23 22 23 26 22 18 17 15 13 9 6 2 2 5 8 8 9 11 12 15 17 20 22 23 27 30 32 35 34 33 34
48 53 42 36 27 25 19 14 13 8 8 8 10 12 16 24 20 20 21 18 17 21 17 14 14 15 15 14 10 5 4 5 7 8 9 10 14 14 17 18 20 24 28 30 33 33 32 33 35
58 50 47 42 35 27 22 17 14 17 13 11 13 16 18 17 16 18 22 20 19 22 19 14 13 15 17 16 13 9 6 7 8 9 12 13 14 15 17 19 22 25 28 30 31 31 32 34 34
47 50 49 48 41 30 31 26 23 21 19 18 17 18 19 17 18 19 22 24 20 18 17 16 17 18 18 18 17 14 10 10 9 11 15 16 18 18 20 22 23 26 29 30 32 33 35 35 35
27 34 46 48 42 41 42 31 34 28 25 27 24 22 21 20 23 24 21 20 21 20 19 18 18 19 18 20 19 17 15 15 12 12 16 18 17 19 20 23 25 27 29 31 33 34 34 34 35
25 22 21 39 51 51 48 32 44 37 32 30 27 27 26 25 28 29 27 23 22 22 20 18 17 17 17 18 20 21 20 20 17 13 16 20 19 20 21 23 25 27 29 32 34 36 36 34 35
31 18 28 20 32 45 49 45 46 38 38 37 35 32 30 31 33 34 31 28 28 25 22 21 22 22 21 20 21 23 24 22 21 19 19 23 21 23 23 26 28 29 32 34 36 38 39 39 37
29 37 26 21 20 22 47 51 52 48 45 45 42 37 36 34 34 36 38 36 35 31 28 29 29 30 29 27 25 26 27 27 23 23 25 27 26 25 27 29 31 32 34 36 39 40 42 42 43
34 33 30 27 20 19 24 48 62 56 55 49 47 44 42 39 39 40 39 41 41 38 37 36 38 37 35 35 29 29 30 31 28 27 29 30 30 29 30 31 32 34 37 39 43 46 49 50 48
40 33 28 18 28 24 18 31 56 62 57 53 49 51 48 46 46 42 42 42 44 45 42 42 40 37 38 39 33 31 34 33 33 33 33 34 34 33 34 34 35 36 39 42 46 51 51 59 50

GFSSGP_250_spd_018.txt.gz
Wind_Speed
21 25 23 22 23 22 24 25 20 21 12 17 24 26 28 22 21 27 30 30 33 29 28 26 18 16 20 18 16 13 13 13 16 19 19 16 14 14 14 14 16 16 13 5 6 7 12 14 15
21 23 25 22 25 23 22 23 29 22 20 25 23 33 27 29 30 33 31 33 32 31 30 26 8 21 20 17 13 14 15 16 16 15 13 14 16 16 16 16 16 19 18 6 5 7 7 8 9
24 27 24 22 27 29 24 25 27 24 26 31 34 25 23 27 26 23 32 35 33 31 27 18 14 18 19 16 14 16 14 12 10 10 13 17 19 18 17 17 22 25 24 16 9 9 9 7 3
29 29 28 29 29 30 25 24 24 27 28 24 27 28 20 17 21 31 37 37 32 28 23 17 18 16 18 15 12 11 7 6 8 12 18 18 21 20 19 21 28 28 27 20 8 10 8 5 3
32 31 31 34 30 30 24 22 24 27 26 25 25 25 23 23 28 39 42 37 30 24 21 20 12 14 14 8 9 6 4 9 11 16 19 18 20 19 19 24 29 30 24 24 10 12 9 6 4
35 32 32 29 28 34 27 20 20 21 22 24 27 24 24 27 34 41 36 34 29 22 22 16 10 11 8 8 6 6 12 14 16 20 19 15 18 19 21 24 28 30 25 29 21 13 10 8 9
35 35 34 28 25 29 27 21 17 22 27 28 28 33 36 40 36 35 32 32 23 23 20 9 8 6 7 6 10 13 16 16 17 21 18 16 17 19 22 24 27 28 23 30 26 17 11 10 9
36 35 33 25 23 19 14 14 19 26 31 31 35 40 39 28 33 32 30 23 22 19 8 7 5 5 4 13 13 18 17 19 20 15 10 10 14 20 21 21 22 24 22 24 28 25 23 21 19
34 37 35 34 31 29 32 32 28 37 46 38 38 45 27 29 29 27 26 19 19 8 6 5 4 5 13 14 16 16 17 21 17 12 9 6 12 17 21 19 18 20 19 21 21 21 22 20 18
29 34 32 32 38 37 38 36 39 47 45 42 40 37 36 30 28 25 18 17 7 6 5 4 5 12 14 14 12 14 15 15 7 8 8 8 12 16 20 17 15 16 16 16 15 16 20 21 23
20 25 28 31 31 33 35 38 44 46 45 44 42 41 38 29 27 18 14 9 3 5 3 2 11 14 14 12 13 14 13 9 4 7 9 10 14 18 18 17 14 11 11 13 14 17 17 16 17
13 13 17 23 27 28 31 38 40 40 41 36 27 23 26 24 15 11 9 2 1 2 2 8 15 14 12 12 14 13 10 8 7 9 12 14 15 16 17 17 16 12 10 11 10 12 14 17 17
14 13 14 19 22 22 26 32 32 29 27 20 14 10 14 14 11 7 6 4 3 1 5 14 16 13 13 14 12 8 5 8 11 14 14 16 15 17 18 18 18 15 15 13 12 12 11 11 17
19 17 18 21 25 21 21 21 22 21 14 13 13 10 15 13 7 8 8 4 4 5 11 16 15 15 16 14 10 7 8 13 14 14 14 15 15 19 20 18 18 19 17 17 15 14 14 14 17
22 17 15 19 23 20 17 17 16 16 13 13 10 11 13 13 7 9 7 5 7 9 17 16 17 18 15 12 9 10 13 12 12 13 14 15 17 20 21 22 24 24 25 24 23 21 19 18 16
25 21 15 13 20 20 16 13 16 14 6 15 14 13 12 12 9 9 8 6 11 19 20 20 20 17 14 10 9 11 12 11 13 13 14 17 15 19 22 23 23 24 25 26 26 25 23 22 19
28 23 20 15 18 17 14 13 14 14 7 2 9 10 13 14 12 5 10 10 18 23 24 24 18 16 14 10 9 10 10 9 9 12 15 14 14 17 17 18 20 22 24 28 29 28 28 29 27
32 25 26 19 19 17 11 9 12 10 10 2 9 11 14 13 12 8 11 15 24 25 27 22 18 16 14 10 9 9 7 8 7 9 12 11 11 15 16 18 22 25 27 29 30 31 32 32 31
36 32 29 24 22 18 12 10 8 9 12 3 8 12 14 11 10 10 15 24 26 27 25 23 20 16 12 9 6 6 5 6 7 8 9 11 13 15 17 18 22 24 27 28 30 32 33 33 32
42 41 38 29 24 20 17 11 6 8 11 8 11 11 11 11 11 16 23 27 27 26 24 21 18 15 11 10 7 5 4 4 5 7 8 12 13 15 16 18 20 23 25 28 30 31 32 33 32
48 49 44 36 26 21 19 15 8 8 13 9 7 7 9 9 13 19 27 27 25 25 22 18 17 13 11 8 5 6 3 2 4 6 9 12 13 14 14 15 18 21 25 26 28 30 33 33 33
52 55 42 38 32 26 18 18 15 12 11 8 9 6 10 10 17 24 23 24 23 22 18 16 15 14 13 10 5 2 2 3 7 8 10 11 11 12 13 14 17 19 22 24 27 28 32 32 31
48 49 47 40 38 31 23 23 21 19 14 11 9 10 13 17 20 23 23 22 24 25 21 17 16 16 15 13 10 7 5 4 6 9 10 10 10 11 12 13 16 19 21 24 25 27 27 29 30
37 41 43 45 39 32 37 31 27 28 18 16 12 12 16 23 21 22 22 22 24 28 28 23 18 17 16 15 13 11 11 10 8 11 13 12 12 12 13 15 16 18 21 23 25 26 29 30 30
29 32 34 38 41 47 42 32 36 32 26 23 16 16 18 20 19 20 22 21 22 23 24 21 19 17 17 16 15 14 14 14 13 14 18 18 14 14 15 14 15 17 20 24 25 28 29 31 32
22 12 18 32 42 49 39 37 43 37 31 26 24 20 19 20 18 22 24 25 25 24 23 21 19 17 15 16 17 17 17 16 16 17 19 21 19 16 17 17 18 19 21 24 25 28 30 34 38
26 20 17 18 23 36 41 50 43 41 35 32 30 27 28 28 25 23 25 28 28 26 23 20 17 15 14 14 16 19 20 20 17 17 20 23 24 20 19 19 21 21 22 25 28 30 34 40 42
25 29 19 14 15 21 40 50 52 48 44 42 36 33 32 33 28 29 29 30 30 26 24 22 21 21 21 21 21 22 25 26 22 21 22 25 25 24 24 23 24 25 25 27 31 31 36 38 46
32 30 25 22 20 20 28 32 46 52 51 47 43 40 38 35 34 32 32 32 33 30 31 29 31 31 30 29 28 30 30 30 29 25 26 29 29 27 28 29 29 30 30 32 35 35 38 44 48
40 35 24 19 21 23 25 28 26 38 52 51 49 45 43 41 39 37 35 34 34 36 38 38 38 40 38 39 39 37 35 34 33 30 28 32 33 33 31 34 36 37 35 35 39 40 40 44 50

GFSSGP_250_spd_021.txt.gz
Wind_Speed
14 20 28 25 27 29 24 21 22 22 21 20 17 21 24 31 22 23 28 26 29 30 27 23 15 13 19 19 18 14 14 13 14 14 11 12 16 19 22 24 20 18 6 8 9 14 15 17 14
18 20 26 26 26 25 23 24 26 22 20 19 18 24 30 27 21 24 21 28 31 31 27 25 6 14 18 18 14 13 13 10 9 7 13 16 20 22 24 25 26 19 11 6 11 11 11 12 11
23 23 27 26 25 25 22 20 22 24 24 20 24 28 27 26 22 16 25 32 38 30 26 15 16 18 17 15 8 8 7 6 6 14 15 18 21 23 24 27 24 19 16 4 10 10 6 4 6
29 27 29 28 29 26 24 22 21 24 26 27 28 27 24 23 24 24 30 38 31 27 23 18 16 12 12 6 5 6 5 4 15 15 16 19 21 24 28 28 28 27 20 7 10 9 5 3 3
30 31 32 31 28 27 30 31 27 28 27 29 23 23 24 20 23 28 38 30 32 28 23 19 11 8 6 8 7 4 7 13 16 15 18 19 23 26 31 28 27 29 30 17 12 9 8 7 5
35 36 33 33 31 31 31 32 31 27 25 20 21 23 26 24 32 36 29 26 31 25 24 14 6 5 7 8 6 10 13 17 15 16 15 16 23 26 30 27 28 30 32 28 19 13 10 9 9
36 39 36 35 33 33 30 28 30 32 26 18 20 29 31 34 34 26 25 24 25 23 17 5 3 6 6 9 12 15 16 17 17 14 12 16 23 27 28 27 26 28 31 30 26 25 22 21 22
35 35 37 35 34 34 31 29 28 25 26 26 23 34 39 32 34 31 25 22 21 18 7 4 6 6 10 12 16 16 18 17 14 13 11 16 21 23 22 24 23 24 22 22 24 23 23 23 25
28 32 34 34 35 33 31 29 26 24 25 31 33 41 42 35 32 24 22 18 17 8 4 5 6 9 11 14 17 19 19 14 14 12 10 13 16 18 17 19 19 17 18 20 22 23 25 26 26
28 29 30 31 33 32 34 35 34 36 37 38 38 49 45 37 28 24 20 13 10 5 3 4 9 11 12 13 15 18 13 11 11 11 12 13 15 16 14 14 13 13 14 17 20 21 20 19 19
24 27 29 31 33 33 34 32 34 36 38 43 47 47 42 22 17 18 10 10 7 4 1 6 12 10 12 14 14 14 10 8 11 12 12 14 16 16 16 15 12 11 12 11 13 15 16 19 17
16 22 24 24 26 26 28 27 28 28 31 37 38 34 11 9 14 9 6 8 6 3 3 11 13 10 11 15 16 14 11 11 11 12 14 16 18 20 19 18 16 15 13 13 13 14 13 13 16
17 18 18 18 17 18 18 21 22 24 31 27 18 6 8 8 10 8 9 7 5 5 7 13 13 10 14 15 14 10 12 12 11 13 15 19 20 19 20 20 19 17 16 14 13 11 11 11 13
20 21 21 19 17 18 20 22 22 24 21 11 4 6 7 8 10 10 10 6 5 7 12 16 12 11 16 14 12 14 14 12 13 14 16 18 21 22 25 26 26 25 24 24 23 22 21 18 15
24 24 25 24 20 19 17 18 15 16 15 4 14 13 10 11 12 12 10 4 7 11 17 17 15 17 15 14 15 15 14 13 15 18 19 20 23 24 24 24 23 23 24 25 24 23 22 21 22
28 26 28 26 23 17 16 15 9 11 11 4 11 11 9 11 12 12 10 5 8 15 20 17 19 17 15 15 15 14 13 14 17 18 17 17 17 17 20 21 22 23 25 26 27 27 25 25 26
34 28 27 27 25 17 13 12 9 8 8 4 9 12 8 12 12 14 12 6 10 20 21 21 21 17 16 15 15 13 12 12 15 17 17 15 16 16 17 21 23 25 26 27 27 29 30 28 29
38 32 28 27 24 20 13 11 9 5 9 3 5 10 11 12 14 14 12 9 14 24 23 25 21 17 15 14 14 11 10 10 12 13 12 13 14 14 17 20 21 24 25 27 28 31 31 31 31
41 37 34 33 27 21 17 11 7 10 4 8 3 4 8 10 14 18 13 14 23 25 26 23 21 17 15 13 11 9 8 9 11 12 12 13 13 13 17 17 20 22 25 26 27 29 30 31 31
44 42 41 37 33 23 20 16 10 11 8 7 5 7 9 11 13 18 17 19 26 27 26 21 20 17 14 13 11 8 7 7 8 10 10 11 11 12 13 15 18 20 23 24 24 26 28 29 29
51 50 46 41 37 31 22 20 16 12 11 8 4 10 11 7 13 19 21 28 26 26 22 20 17 16 13 11 10 8 4 5 6 8 9 8 9 9 11 12 15 18 20 21 23 24 25 26 27
45 52 48 41 40 37 29 25 20 17 15 7 7 11 14 13 14 20 25 27 29 26 22 19 17 15 13 11 8 7 4 2 3 4 7 8 8 8 9 9 12 15 16 18 21 22 24 25 27
44 42 44 46 40 37 34 32 27 22 20 11 10 10 19 17 17 24 29 31 28 26 24 21 18 16 13 12 10 9 7 4 1 1 4 5 8 9 10 9 11 12 13 15 18 19 20 22 25
30 38 39 42 45 37 46 41 32 29 22 18 11 11 21 22 22 27 28 29 28 26 26 23 19 18 16 15 14 14 12 9 7 5 5 7 8 9 11 10 10 11 12 15 16 18 20 22 25
29 27 29 37 43 55 51 42 43 35 26 24 15 14 18 27 28 25 26 26 24 22 25 24 20 17 16 16 16 15 15 13 11 9 10 9 9 9 10 11 12 14 15 16 17 18 22 26 29
27 16 22 28 39 46 47 49 47 42 30 26 23 18 19 26 26 25 25 27 25 26 26 27 24 20 18 17 16 16 15 14 14 12 13 14 12 11 11 13 13 15 18 19 20 21 23 26 31
34 25 25 24 27 37 47 55 47 43 36 30 28 24 26 27 26 25 26 26 25 24 25 25 25 24 22 19 19 17 15 13 13 15 15 16 19 15 14 18 19 18 20 21 25 25 26 28 32
35 33 22 15 18 26 39 50 55 48 46 39 33 31 31 31 27 25 26 29 30 28 28 28 26 24 22 19 18 17 17 16 15 17 19 22 22 22 18 22 23 22 24 25 26 27 28 30 34
39 35 35 30 22 23 25 34 46 51 48 44 40 38 35 33 34 30 28 27 29 29 31 32 30 28 27 25 23 23 24 24 23 24 25 25 29 28 21 24 26 26 26 29 31 31 32 32 36
47 41 37 33 34 31 28 24 24 34 50 49 46 41 38 35 34 35 35 31 32 32 35 36 35 35 35 33 32 31 30 31 31 32 31 32 32 32 28 27 29 30 30 32 36 36 35 36 40

GFSSGP_250_spd_024.txt.gz
Wind_Speed
17 20 23 20 24 20 23 24 25 23 28 24 18 20 22 23 30 26 22 22 24 24 27 25 21 16 16 22 21 16 11 12 11 11 13 18 22 25 24 23 16 13 7 11 14 18 14 11 13
16 19 22 24 21 23 22 24 23 22 25 22 18 22 23 26 28 27 20 24 32 27 25 20 13 16 21 21 19 8 9 7 10 14 18 23 26 26 26 27 21 14 10 13 15 14 13 10 11
22 18 22 28 26 27 29 28 26 23 24 22 24 25 25 26 25 22 26 28 33 25 23 19 17 18 16 17 5 7 6 9 14 17 19 25 29 27 28 25 27 18 12 13 15 9 4 5 7
27 23 22 27 28 25 26 27 21 21 22 26 26 25 26 27 22 22 31 37 26 25 21 22 18 13 10 8 7 5 7 17 14 15 21 25 29 28 29 29 30 29 17 14 13 8 6 8 3
28 26 26 27 30 29 27 26 25 27 26 26 27 28 29 20 24 32 34 26 25 23 22 23 15 9 7 8 5 7 14 15 13 15 20 22 28 27 28 29 34 37 32 17 14 15 12 12 13
34 28 31 30 31 31 30 31 31 33 32 31 25 20 19 22 27 30 24 25 25 22 22 16 7 4 6 6 10 13 17 16 15 18 17 21 25 24 24 26 33 35 32 29 25 23 24 20 19
34 33 33 36 34 35 34 33 33 33 32 29 30 25 27 26 30 31 32 23 20 19 14 10 4 4 8 10 14 16 18 17 15 15 15 20 21 21 22 23 27 29 31 29 28 26 24 24 21
37 36 37 37 37 38 36 35 34 33 29 30 28 30 32 32 35 36 31 26 20 16 8 6 3 9 11 13 15 19 17 15 13 11 14 17 17 17 20 21 23 25 24 24 25 25 24 26 25
30 31 33 34 35 38 38 37 35 35 34 32 31 32 37 38 40 43 39 29 17 11 5 2 5 10 12 14 18 19 17 15 12 10 11 12 14 15 18 20 20 19 22 22 22 20 21 20 22
27 29 29 29 30 32 32 33 33 33 34 34 36 39 39 41 42 44 25 17 12 5 2 2 10 11 12 15 17 17 14 12 10 9 11 13 13 16 17 17 17 16 15 17 15 15 18 18 21
23 27 29 29 29 29 29 29 29 31 31 33 36 36 38 42 41 20 10 10 7 4 3 7 12 10 13 16 13 8 9 9 9 10 13 16 17 17 16 16 15 14 14 13 11 11 11 13 16
15 19 22 22 23 24 25 26 28 29 30 30 32 35 36 25 12 9 8 6 6 5 5 12 13 11 15 16 15 11 9 9 12 15 17 17 17 17 18 19 20 21 21 17 14 15 13 7 11
13 13 16 17 18 18 19 21 22 21 25 28 32 35 16 13 12 8 7 7 7 7 9 14 12 13 16 16 11 9 10 12 15 17 18 19 21 23 24 24 23 22 23 22 22 20 19 15 12
20 18 18 18 17 19 18 18 21 21 24 25 23 16 14 13 11 10 9 9 7 8 13 16 12 17 17 13 10 11 15 16 17 17 21 23 23 23 24 25 24 25 27 27 26 25 21 24 22
26 23 22 22 21 19 19 20 20 18 17 19 11 12 13 13 12 12 11 8 9 11 17 17 15 20 18 15 13 15 17 19 20 22 22 21 22 22 21 25 24 24 26 27 27 27 27 28 30
32 29 26 23 21 20 18 20 16 13 15 13 7 12 14 13 13 14 12 8 10 13 18 18 19 21 19 17 15 17 19 20 20 20 17 17 18 20 19 23 27 24 26 27 29 28 29 29 28
36 34 29 29 23 18 17 18 13 10 8 8 5 15 15 16 15 15 14 12 13 16 21 18 21 21 20 19 16 17 18 19 20 19 16 18 17 19 19 21 24 26 26 28 29 29 29 29 28
39 35 33 32 28 20 18 17 15 9 6 4 3 14 16 18 17 14 12 15 14 20 23 21 23 22 20 19 17 15 15 16 17 16 14 15 16 17 20 18 21 22 24 24 25 26 27 26 26
38 37 36 36 34 27 21 19 18 13 10 6 5 11 17 20 19 15 13 15 17 22 23 24 21 21 19 18 17 15 14 15 16 16 14 15 15 15 17 17 17 17 19 19 18 21 25 23 23
43 45 43 40 36 32 26 20 20 17 11 11 5 9 15 20 18 17 16 18 18 24 23 25 22 21 20 18 16 14 12 12 13 14 13 13 12 12 14 13 13 14 15 15 16 17 18 21 20
44 47 50 47 39 36 29 24 23 20 14 13 10 12 15 17 19 16 18 22 25 27 24 23 22 20 17 15 14 13 11 11 11 11 10 9 9 9 10 10 9 10 12 14 15 16 16 16 19
40 43 42 46 43 38 34 32 27 22 21 16 11 14 17 18 21 20 21 24 28 27 27 23 21 18 17 14 12 11 9 7 8 8 8 8 7 8 7 6 5 7 10 13 13 15 17 20 23
38 32 34 40 46 44 36 36 37 29 25 20 14 13 15 19 23 21 26 29 30 31 31 26 23 21 19 17 14 10 9 6 5 5 5 5 6 6 5 2 3 6 8 10 12 14 17 20 22
33 31 31 36 44 42 48 44 37 36 29 22 19 13 16 20 23 24 32 36 34 33 31 29 26 23 20 17 14 12 9 9 8 6 3 1 1 1 2 2 4 5 7 10 13 15 18 20 21
33 29 31 35 40 48 58 49 47 43 34 28 23 15 15 18 24 29 35 35 36 34 30 26 24 22 19 16 14 14 14 14 13 11 9 7 5 4 4 4 6 9 11 11 15 17 20 22 24
36 31 26 31 35 46 44 51 53 45 37 30 24 18 15 21 24 32 34 34 36 31 29 26 22 19 17 15 15 16 17 16 15 13 13 12 10 8 8 9 9 11 14 15 16 19 22 23 26
40 32 37 27 28 32 43 51 54 44 41 36 31 26 22 23 31 32 34 35 38 35 31 29 27 24 23 20 20 19 18 18 17 16 14 12 13 14 13 15 15 14 14 16 17 20 23 25 28
39 41 28 20 24 26 37 47 52 51 47 42 39 33 30 27 32 34 35 36 37 35 34 33 31 30 26 24 21 22 21 17 15 14 12 15 16 19 19 19 20 19 18 19 21 23 26 28 31
47 40 36 35 28 30 33 39 46 51 52 47 46 42 37 32 34 37 35 35 35 32 32 33 34 34 33 28 26 25 23 20 19 19 19 19 21 23 24 23 23 26 25 25 27 28 30 32 34
55 52 49 39 36 37 33 27 37 45 54 52 48 46 41 37 35 37 34 30 29 35 37 37 36 36 35 32 31 30 30 28 26 26 27 28 28 28 26 25 25 28 30 29 31 33 35 37 38

GFSSGP_250_spd_027.txt.gz
Wind_Speed
22 20 19 20 16 15 13 12 17 22 20 24 28 27 21 22 25 29 28 21 22 30 24 26 19 18 16 20 23 21 11 8 8 17 22 23 22 23 23 13 12 9 16 15 13 12 11 11 11
17 19 20 22 22 12 19 21 23 23 27 25 25 23 22 25 28 33 21 24 35 26 27 22 19 19 18 18 17 7 7 5 16 19 24 24 23 23 21 15 14 12 16 16 15 12 9 9 10
15 16 18 18 23 23 23 24 23 25 27 25 24 22 25 28 29 24 25 29 28 25 25 23 21 16 12 10 6 7 5 12 18 20 24 23 23 26 23 25 21 17 16 14 9 5 7 7 9
22 20 19 20 25 28 27 26 27 26 26 26 23 22 25 29 30 24 26 30 27 29 24 24 17 13 9 9 5 3 9 13 12 18 22 23 23 26 28 34 34 19 16 10 8 7 11 13 12
26 24 23 22 28 32 30 29 28 29 30 28 27 28 31 28 21 23 28 32 34 28 26 19 12 9 7 5 3 7 12 9 13 17 21 21 22 26 29 33 35 30 22 19 19 18 18 17 17
29 22 28 31 29 31 34 34 32 30 30 32 33 33 33 28 28 29 31 34 34 32 25 15 10 8 3 8 8 13 11 12 13 17 19 21 21 22 28 31 33 30 27 24 24 23 22 24 23
33 30 36 32 32 32 35 36 35 34 33 33 33 31 31 33 33 32 36 37 37 37 23 11 7 3 8 9 12 16 13 12 14 15 19 21 19 20 21 26 25 25 25 23 21 23 24 23 26
40 39 37 35 36 37 38 37 37 36 35 35 35 36 33 30 32 33 37 38 36 28 15 7 3 6 9 12 18 14 13 12 13 15 17 17 18 19 18 20 23 21 21 23 23 24 23 21 25
43 39 38 39 39 37 40 40 41 38 37 37 38 34 33 35 36 37 37 34 34 14 8 4 5 8 9 16 16 12 11 12 12 14 15 15 16 17 16 16 15 16 16 16 16 17 17 20 21
36 27 35 37 35 34 34 34 35 35 36 37 35 33 35 37 37 35 34 32 14 7 3 3 9 9 11 19 15 10 9 9 12 13 14 14 15 15 16 16 15 14 15 13 11 12 12 17 18
28 30 29 37 33 30 30 28 30 31 31 32 31 33 34 36 34 33 30 12 7 5 3 8 10 9 14 17 11 8 8 9 11 13 13 15 18 20 18 19 17 18 15 14 14 13 9 13 16
19 24 26 30 29 29 29 30 29 28 27 26 27 30 32 35 37 33 13 9 6 6 6 11 10 10 14 12 9 6 8 11 13 13 14 18 22 22 22 22 22 21 22 22 21 19 15 13 13
11 14 21 23 24 25 24 23 21 21 21 22 26 29 31 31 25 17 13 9 7 8 9 13 10 12 14 13 8 7 10 14 14 15 21 22 21 21 23 23 23 24 26 25 24 24 27 26 19
14 15 16 15 16 17 17 17 18 19 20 24 25 27 25 20 15 15 13 11 8 10 14 15 10 15 16 9 8 11 14 15 16 20 21 21 23 23 24 24 27 29 29 26 27 30 32 29 30
23 19 18 20 19 20 20 20 20 20 22 22 21 21 15 13 14 17 13 9 9 13 18 16 12 16 13 11 13 14 17 18 21 21 19 20 21 25 25 26 29 30 33 31 30 30 29 29 29
28 25 24 20 20 21 21 20 19 19 20 20 17 16 16 15 16 15 14 11 12 15 21 18 15 16 13 14 16 17 20 20 17 16 16 19 22 23 26 26 28 30 30 31 30 29 29 29 29
32 31 30 25 24 20 20 20 18 19 17 17 16 14 17 19 18 16 14 13 16 18 22 19 19 18 16 16 16 18 20 18 18 18 17 19 19 20 21 24 24 25 27 28 26 25 26 24 26
38 36 32 28 27 23 21 20 20 18 17 17 14 12 16 22 20 18 16 13 18 21 24 20 22 19 18 18 15 18 19 18 16 17 17 17 20 19 20 21 22 22 21 22 24 25 25 22 20
39 37 34 30 29 27 24 21 19 19 17 18 14 14 15 20 20 19 17 14 18 22 25 21 22 20 19 18 16 16 16 15 15 16 16 16 15 16 17 17 18 18 17 17 19 19 19 22 22
44 42 41 38 36 33 29 26 21 20 19 18 14 14 14 19 22 21 18 16 19 24 24 22 23 22 20 18 18 15 14 14 14 14 13 13 11 12 12 12 14 14 14 12 15 17 20 23 24
48 47 48 46 45 41 33 29 27 22 20 18 17 16 13 17 24 25 24 19 20 26 26 25 23 22 20 19 18 17 16 14 13 11 11 10 10 8 8 8 10 11 12 12 15 17 19 22 24
46 49 48 45 43 43 40 35 31 26 23 20 20 18 14 17 23 24 28 23 22 28 26 26 24 23 21 19 18 16 14 11 10 9 8 7 7 6 5 4 6 7 8 10 12 16 17 19 22
43 40 41 39 39 42 40 37 36 34 29 24 23 22 16 20 19 22 26 25 27 31 29 29 26 26 23 20 18 15 13 12 9 7 6 5 5 4 2 2 3 6 9 9 12 14 16 18 21
42 38 37 37 36 35 37 43 45 39 38 29 25 25 19 19 20 20 27 30 32 35 33 32 30 28 26 22 19 14 10 7 6 5 4 3 1 1 2 3 3 5 8 11 13 14 16 17 18
41 40 37 33 35 37 48 53 53 49 42 35 31 26 21 18 18 20 29 34 33 38 36 34 32 29 26 21 18 14 12 9 8 8 6 5 5 5 5 5 7 9 11 13 13 15 17 19 19
45 43 38 36 38 42 44 39 53 54 48 40 34 29 23 21 20 25 28 34 37 37 35 31 30 28 26 22 20 18 15 14 13 12 12 12 10 9 9 9 10 11 12 12 13 15 17 19 22
46 37 42 37 37 36 30 43 52 50 49 42 38 32 28 25 22 26 26 34 40 38 37 33 30 27 25 22 22 22 20 18 16 15 15 14 13 13 11 12 14 15 16 16 17 18 19 20 23
44 48 34 31 29 32 34 39 45 44 49 44 42 36 33 30 26 26 30 36 41 40 39 36 33 31 28 29 28 23 20 19 18 18 16 13 12 13 13 15 18 20 21 21 21 23 23 23 26
53 42 35 35 35 35 37 41 40 45 46 50 47 45 41 34 30 27 33 39 40 39 40 40 39 37 35 33 30 27 23 23 21 18 17 15 15 16 15 18 18 23 26 25 25 26 27 27 29
60 53 48 43 42 38 41 39 32 38 43 52 52 48 45 39 34 29 32 37 38 39 40 40 39 38 38 36 34 31 27 25 23 23 22 20 19 21 22 21 20 25 27 29 29 30 30 31 33

GFSSGP_250_spd_030.txt.gz
Wind_Speed
16 14 13 9 8 5 8 6 9 10 18 17 24 25 28 27 26 26 29 24 28 34 28 30 23 20 19 19 17 10 12 13 13 17 18 18 15 12 8 8 15 16 15 11 8 8 9 11 9
17 16 14 14 12 3 12 17 20 18 18 24 26 28 29 22 23 28 29 24 26 35 32 30 27 19 14 11 10 10 13 13 15 17 19 18 19 16 8 12 17 17 16 10 8 7 7 8 11
15 18 18 19 18 23 17 20 19 25 27 27 30 28 29 21 26 30 31 26 28 32 34 34 27 16 8 7 9 10 16 13 14 19 19 22 23 19 14 21 20 18 13 8 3 5 7 4 4
15 15 18 17 20 29 26 22 22 26 27 29 27 31 30 29 32 34 25 28 32 36 32 37 25 12 8 8 6 15 11 9 14 19 19 23 23 26 30 26 21 16 9 6 6 9 11 14 13
19 17 17 17 22 24 29 30 27 27 29 30 30 31 33 34 34 33 29 34 35 39 34 33 20 11 8 5 10 15 8 8 14 20 18 19 25 27 30 27 21 17 18 16 15 18 19 18 16
20 19 23 28 30 29 28 30 33 31 35 33 35 33 34 34 34 33 33 34 35 36 33 28 16 9 4 8 16 12 9 9 12 17 16 17 20 22 26 24 22 20 21 21 21 21 23 24 21
23 11 7 22 41 38 30 29 35 35 37 40 39 36 36 37 36 34 31 32 34 34 32 21 11 3 5 12 17 11 10 9 12 16 16 19 19 21 22 21 21 22 20 21 23 23 24 27 26
33 30 24 12 16 24 26 30 33 36 38 38 39 38 37 39 39 34 33 33 31 28 24 13 7 4 9 16 14 11 9 11 15 17 20 22 20 19 16 16 17 17 17 18 19 18 22 24 25
39 41 45 43 41 41 37 33 36 38 40 42 43 43 42 42 38 34 32 31 29 21 14 6 0 6 11 16 11 9 8 15 13 20 25 23 18 14 16 14 14 12 13 11 13 14 18 20 24
43 46 48 47 44 44 41 42 40 38 37 37 37 37 39 37 34 32 32 30 25 14 7 3 6 7 12 14 8 7 10 14 17 21 19 21 18 14 16 18 19 17 17 19 17 17 18 18 22
40 45 42 44 35 29 31 35 35 33 33 31 32 34 35 30 29 32 32 28 13 9 4 6 9 9 12 11 5 6 10 16 20 22 21 8 12 18 22 22 26 28 31 31 26 20 19 20 21
24 34 28 30 37 28 26 27 29 31 31 32 30 26 26 29 33 35 26 11 10 7 6 11 9 10 12 9 3 5 12 19 19 21 23 26 16 20 22 23 23 23 40 31 36 33 32 29 28
9 22 29 25 14 31 28 30 30 22 20 22 20 22 26 31 33 23 8 11 12 10 10 12 9 10 10 7 3 7 13 19 20 22 23 25 18 22 22 26 25 23 9 19 29 31 35 33 31
13 15 21 34 24 18 18 20 18 20 21 20 20 23 26 28 24 10 8 12 13 12 14 13 10 10 10 6 5 10 15 16 17 23 25 25 24 23 27 29 29 29 27 25 27 29 33 34 35
21 19 17 19 17 16 17 17 14 18 21 21 21 25 26 25 11 7 12 14 11 12 18 15 13 13 9 7 9 13 18 19 18 22 24 24 25 28 28 29 31 32 28 31 30 30 33 31 32
28 25 23 21 17 18 18 20 18 18 17 18 19 22 22 21 6 12 15 13 12 13 20 16 16 13 8 9 11 18 23 20 20 20 24 26 27 27 28 30 29 28 26 28 26 26 24 24 20
32 31 28 24 24 21 20 19 19 16 16 16 19 19 19 16 13 15 15 13 14 15 22 17 17 13 10 11 13 19 22 17 20 21 22 23 24 25 24 26 28 27 26 26 24 18 16 15 17
40 38 32 28 27 25 25 18 19 15 12 18 18 18 18 16 17 19 15 13 13 17 22 18 18 14 13 12 14 17 17 18 21 21 20 19 20 20 20 22 22 20 20 21 21 19 19 22 25
41 41 35 31 28 28 27 22 22 12 12 38 19 19 18 15 16 21 17 14 15 20 23 19 19 15 14 15 14 16 15 16 19 19 20 19 18 16 15 17 17 18 17 18 18 19 21 22 26
43 42 41 37 33 31 31 30 24 16 39 33 19 14 18 15 14 22 18 17 16 20 24 20 20 18 17 15 15 14 14 15 16 16 15 15 16 12 11 14 15 15 14 16 16 17 19 20 24
44 45 48 46 44 42 41 36 29 25 26 24 19 13 14 13 15 21 20 20 19 21 26 23 22 20 19 16 16 16 14 14 14 13 11 10 12 11 9 10 12 12 11 12 14 14 16 18 21
49 51 52 48 49 47 47 41 35 31 28 25 20 11 22 20 16 22 24 20 20 25 28 25 26 23 21 18 16 15 14 13 12 9 9 7 8 8 6 7 7 7 9 10 13 14 15 17 19
55 53 51 48 47 49 47 44 40 37 32 31 26 21 33 19 18 20 26 24 24 28 35 29 28 26 24 22 19 15 13 11 11 10 8 7 6 5 5 4 4 6 9 10 11 13 15 16 16
57 50 44 42 44 41 41 43 43 43 41 39 31 27 22 19 16 20 23 27 28 27 37 34 32 28 27 26 22 18 16 12 11 11 8 5 4 3 3 3 3 6 8 10 11 13 15 16 17
52 47 43 42 40 40 48 47 49 51 48 44 35 30 26 20 17 19 25 28 30 29 39 38 34 32 30 27 24 20 17 15 12 10 9 8 5 3 3 4 3 5 7 10 12 13 15 18 20
47 47 45 46 48 47 47 42 50 54 52 47 39 34 29 23 22 21 24 30 29 31 40 39 34 32 30 27 25 21 18 16 12 12 13 10 7 7 7 8 8 8 9 11 13 13 14 16 19
52 45 51 51 48 45 45 45 47 48 51 50 42 37 32 30 26 23 22 27 33 36 41 41 37 35 32 30 27 24 21 20 17 16 14 12 12 12 11 11 12 13 14 16 17 18 18 19 19
53 56 55 47 44 41 44 42 45 47 46 47 47 42 38 36 31 26 22 28 29 37 42 42 38 36 31 32 31 30 26 23 21 20 18 17 15 12 8 9 12 14 17 20 20 20 20 22 23
53 51 45 49 45 43 45 44 44 45 48 41 47 47 44 42 36 30 24 27 30 35 43 45 42 39 39 37 34 31 30 27 23 20 19 18 15 13 9 10 13 15 19 22 23 24 26 26 26
59 56 52 45 42 41 45 45 35 35 42 44 46 50 50 48 40 34 28 25 27 34 42 46 44 42 40 37 36 34 31 26 20 20 19 19 17 14 13 15 19 22 25 25 26 28 27 27 29

GFSSGP_250_spd_033.txt.gz
Wind_Speed
16 15 11 8 5 6 10 5 10 9 14 15 17 20 22 27 32 24 30 35 34 31 37 37 37 34 21 12 14 8 10 8 11 13 13 12 10 3 10 17 18 13 9 8 5 5 8 7 7
14 12 10 9 5 11 5 2 17 14 15 16 18 24 28 28 28 28 31 36 30 33 38 38 37 30 14 7 11 9 8 8 13 13 16 16 11 7 15 19 17 13 9 7 6 9 6 4 8
15 14 13 11 12 16 9 11 14 20 22 22 23 26 28 28 33 35 33 35 31 35 37 36 36 25 11 8 6 9 6 10 13 14 19 22 16 20 23 20 19 14 8 3 8 8 8 5 5
15 15 15 17 17 22 22 20 24 23 22 23 22 26 30 31 32 35 36 36 34 35 36 33 31 18 12 8 7 8 4 10 13 16 22 22 28 27 24 21 16 9 3 5 8 11 9 9 10
14 13 14 16 18 21 25 26 25 26 26 26 29 32 32 34 36 36 36 33 34 32 34 32 26 15 10 6 9 6 5 8 12 15 17 23 28 29 25 22 19 16 16 15 15 19 20 18 17
14 18 17 20 23 26 24 25 23 25 27 33 34 34 36 39 36 36 36 35 34 32 31 27 19 11 3 7 10 5 7 8 11 16 18 23 22 25 23 20 19 17 16 16 22 22 24 25 25
16 17 15 17 8 30 31 31 25 27 27 31 37 36 36 36 39 37 40 36 32 30 28 19 13 5 4 9 10 4 9 10 12 17 19 19 20 18 18 18 18 16 18 19 21 23 25 25 27
22 21 14 11 19 9 11 34 33 28 29 33 36 39 39 41 42 38 35 34 30 28 25 12 7 4 11 8 9 5 8 12 17 20 17 16 19 18 16 16 16 16 14 15 15 19 19 23 26
27 25 27 26 19 18 19 20 24 30 33 34 36 39 41 38 35 34 33 29 26 24 19 5 1 9 12 10 6 4 11 20 19 19 18 21 23 21 18 20 18 17 15 15 15 17 18 21 23
37 43 34 27 31 33 36 30 33 37 41 38 36 35 32 30 32 31 27 28 28 22 7 2 7 12 10 10 5 7 13 16 15 21 21 20 23 23 27 31 27 30 28 26 24 23 24 25 24
42 48 53 50 47 52 47 39 29 29 32 34 28 27 29 28 24 27 30 34 21 9 4 6 11 12 10 8 5 9 13 16 18 18 21 16 20 22 27 28 32 39 38 34 33 32 32 32 32
37 48 53 53 53 52 49 41 32 29 22 20 24 22 20 20 23 29 31 18 5 7 8 12 13 12 13 8 5 11 15 16 20 20 19 15 18 22 21 21 25 28 31 32 33 32 36 36 39
16 32 44 51 53 50 47 40 33 26 25 22 21 16 17 21 27 30 12 2 6 9 11 13 13 12 11 7 6 11 16 19 23 18 24 21 23 26 25 28 21 24 33 34 34 35 36 36 38
14 16 26 35 38 29 20 22 27 28 29 20 19 16 16 20 24 16 2 1 4 10 14 14 13 13 12 7 9 13 14 20 20 22 22 25 24 23 28 27 26 31 31 32 34 33 34 33 33
18 16 16 21 30 32 25 14 13 13 15 15 15 14 15 18 18 3 2 2 7 9 14 14 15 14 11 10 12 15 15 19 22 22 23 25 27 30 30 26 27 28 29 28 25 26 25 25 25
22 21 21 20 23 29 28 17 16 15 13 12 10 11 14 19 15 8 3 7 8 9 14 13 16 14 10 11 16 18 17 19 20 24 26 27 27 27 25 26 25 23 20 21 18 18 20 14 15
25 28 26 23 24 25 24 19 20 16 12 15 9 11 11 17 13 7 11 10 8 10 15 13 16 12 10 14 20 21 19 18 19 21 22 24 26 26 28 25 23 22 18 15 19 21 26 24 13
38 33 29 28 29 28 27 25 24 15 12 12 12 11 12 14 11 13 12 9 7 11 17 15 16 13 12 16 20 21 17 18 20 20 20 20 21 21 22 21 19 17 17 19 20 22 28 29 22
40 35 31 32 31 32 29 27 24 19 14 9 24 15 15 17 14 8 16 12 9 12 19 17 16 15 14 16 20 17 16 17 17 16 17 17 17 16 15 16 16 16 16 16 18 22 22 24 27
42 39 36 36 33 32 31 31 26 21 23 19 27 11 14 13 17 6 16 15 10 12 21 20 19 16 16 16 18 17 16 18 17 15 15 14 13 14 12 14 13 14 15 16 17 19 20 22 23
45 42 43 43 42 37 37 36 32 26 26 19 14 21 12 14 14 6 16 17 13 13 22 22 21 19 17 16 16 17 15 15 17 15 13 12 10 11 11 12 11 11 12 13 14 16 18 20 20
46 48 48 47 45 42 41 37 36 34 28 33 36 27 22 24 21 9 15 19 17 14 26 26 25 23 20 19 19 17 15 16 15 13 11 12 12 9 7 7 8 10 10 10 13 16 17 19 20
53 54 52 49 44 46 44 40 40 40 40 39 42 33 23 28 27 20 13 19 23 20 26 29 29 27 24 22 20 18 17 17 15 11 10 10 10 8 6 5 6 7 8 8 10 12 14 16 17
61 56 54 49 45 42 46 45 45 46 46 46 43 36 37 31 24 14 13 22 24 26 22 34 33 30 28 25 23 21 20 18 17 15 12 11 9 8 6 5 4 5 7 8 9 10 13 14 15
58 55 54 51 46 42 50 51 46 49 53 51 45 35 32 31 24 19 17 21 25 29 25 36 36 34 32 28 26 24 23 20 18 17 15 13 10 8 6 3 1 2 4 6 8 10 11 12 13
62 61 55 54 52 54 60 49 53 56 56 53 47 39 35 32 29 26 24 22 24 28 29 32 40 37 34 30 27 26 24 22 20 18 17 13 11 9 7 4 2 4 7 9 11 12 13 14 14
64 54 57 59 60 59 55 52 49 43 37 43 42 42 37 36 38 39 28 20 28 27 34 29 42 40 37 33 32 29 27 25 23 21 18 17 15 12 9 7 5 5 7 9 10 11 11 13 17
61 63 60 55 56 54 54 50 44 39 38 42 42 40 43 43 41 38 27 25 28 31 35 32 42 44 40 37 34 33 30 27 25 21 19 18 16 13 9 8 6 7 9 10 13 15 16 17 21
66 62 59 59 58 54 53 49 45 42 42 41 44 42 47 47 44 40 34 29 24 29 36 36 43 47 45 43 39 35 34 31 26 22 20 19 16 13 12 11 11 11 13 14 17 19 22 23 24
70 63 63 56 55 53 54 50 44 42 41 41 45 48 46 54 49 42 37 30 26 29 32 41 45 49 47 43 38 39 37 33 27 23 19 18 17 16 17 18 17 17 18 19 22 24 25 25 28

GFSSGP_250_spd_036.txt.gz
Wind_Speed
20 18 14 9 5 3 6 6 8 17 19 14 18 18 20 28 28 27 33 34 37 39 37 36 38 35 22 8 10 5 7 9 14 14 14 12 7 1 11 18 13 10 8 5 6 8 5 3 3
19 16 13 12 7 8 13 9 17 14 13 15 17 18 23 26 29 30 33 37 38 37 37 35 35 30 18 11 6 5 7 13 16 14 18 11 10 12 16 16 11 8 6 6 14 11 3 6 10
19 15 13 13 10 9 13 8 7 13 16 22 24 23 25 28 31 32 37 35 36 36 36 32 31 25 16 9 5 7 10 16 16 18 21 21 18 18 17 14 9 6 7 11 11 9 5 5 8
18 19 16 12 13 17 18 15 21 16 17 20 25 25 29 32 34 37 37 35 36 38 33 30 25 19 15 4 5 7 12 14 16 19 23 25 22 21 18 14 8 5 8 10 12 14 12 9 9
17 16 15 16 17 19 19 18 22 22 21 19 25 29 33 36 38 37 36 39 40 35 29 28 20 15 10 3 8 9 10 11 13 15 21 25 23 20 17 15 13 13 12 15 18 18 19 16 14
18 18 18 17 18 19 19 20 18 19 19 17 23 29 33 35 37 39 40 39 32 31 27 25 15 10 4 5 9 9 9 10 12 16 18 19 21 19 17 16 14 13 15 18 19 20 21 23 18
21 21 21 17 13 14 28 25 18 24 22 25 28 32 35 37 37 40 36 31 29 26 24 22 9 5 3 6 10 9 9 10 12 14 17 16 14 15 13 12 9 12 12 15 14 18 20 24 24
23 23 21 14 10 8 1 9 19 33 28 28 32 35 37 37 37 33 29 29 24 21 21 12 4 3 6 6 10 9 10 14 13 13 14 17 15 14 15 12 10 9 11 13 15 19 19 24 27
29 29 24 13 12 27 16 14 14 16 20 27 31 33 33 31 28 28 27 22 22 21 18 1 2 5 8 9 9 10 15 10 18 17 23 18 18 21 22 20 18 15 17 18 20 21 25 36 33
33 33 27 27 28 21 14 14 16 19 24 29 29 33 28 29 26 22 22 24 26 22 3 4 8 9 8 10 9 10 14 11 13 19 21 22 28 27 33 33 30 28 26 26 25 34 41 44 46
40 39 30 15 40 45 40 36 31 29 37 34 28 28 25 23 18 20 23 27 19 3 11 8 12 11 12 9 9 10 14 12 18 18 19 22 17 23 29 29 32 32 29 29 32 36 43 41 47
44 46 47 45 33 38 40 40 45 44 44 42 30 30 27 23 20 21 25 14 2 12 12 14 13 14 14 9 10 11 15 11 15 18 19 19 22 20 24 31 33 33 37 34 38 41 37 39 43
38 42 47 50 54 54 53 52 50 46 46 41 30 35 29 22 20 23 15 5 13 11 12 17 14 15 12 11 12 12 15 12 17 19 21 23 23 23 24 30 32 32 32 33 31 31 31 32 34
23 23 23 40 51 54 50 51 50 48 43 34 32 30 19 15 20 22 3 12 12 9 15 16 17 15 13 13 14 15 18 16 18 19 22 24 24 26 28 28 30 30 26 24 21 19 26 19 27
24 20 19 21 33 41 44 47 33 24 23 18 16 15 15 17 20 16 6 13 9 11 16 15 19 16 11 15 18 16 18 16 17 21 24 25 28 29 24 23 22 21 20 21 20 16 11 16 21
22 23 22 18 16 23 26 32 23 22 17 10 7 4 8 14 20 12 7 13 8 12 15 17 20 16 13 16 20 18 20 19 21 20 23 26 27 24 19 18 17 16 16 17 20 17 11 14 23
25 30 27 22 20 20 22 30 33 25 16 12 7 1 6 11 18 11 5 14 8 10 15 17 19 15 16 18 19 20 23 24 22 20 19 18 20 22 20 20 15 13 18 19 22 23 20 24 21
40 36 31 27 26 23 22 24 27 20 18 14 11 8 8 11 12 4 4 10 8 8 16 19 17 15 16 21 20 20 20 20 20 19 20 19 19 18 17 16 15 15 17 19 22 23 24 21 22
47 40 35 31 28 28 28 23 19 23 20 16 15 15 14 17 13 1 7 6 10 7 16 19 17 16 19 24 22 19 19 19 19 19 18 18 16 14 13 13 14 13 15 18 20 21 21 20 20
48 44 40 35 31 32 29 28 22 26 22 21 15 27 9 16 10 7 8 9 10 8 17 19 19 17 21 24 23 17 20 21 18 18 17 16 15 13 10 10 11 11 13 15 18 20 21 20 19
50 46 47 45 42 38 36 30 27 28 25 22 15 21 15 14 6 4 9 9 13 12 18 18 20 20 22 25 23 21 21 20 19 19 17 13 13 13 11 9 7 9 11 14 17 19 19 18 16
51 53 52 52 48 43 42 35 30 30 27 23 17 22 19 15 8 14 6 9 15 15 19 20 22 21 23 25 24 22 22 20 19 17 15 14 11 11 10 7 6 6 8 10 13 13 12 13 13
60 58 55 58 53 54 45 36 33 31 28 30 27 32 29 26 20 13 10 15 18 17 19 24 26 25 24 24 24 22 22 23 21 16 14 15 13 9 8 6 5 5 5 6 7 7 7 7 7
70 65 63 63 57 52 45 38 38 34 35 42 36 33 30 31 24 29 17 16 21 23 20 27 27 28 26 24 23 23 23 22 21 17 14 14 13 10 8 8 5 3 3 4 6 8 10 10 11
72 68 65 63 55 44 47 40 40 43 44 43 41 37 32 32 31 27 21 22 18 25 25 26 27 29 29 27 25 24 23 21 20 17 15 13 12 11 9 7 5 2 1 4 7 10 11 12 14
73 69 62 58 55 51 51 41 51 52 48 45 43 42 39 35 35 32 26 24 22 25 29 25 28 32 33 30 26 25 23 22 21 19 17 15 14 11 9 8 6 6 5 7 8 10 12 11 12
77 66 68 65 61 56 49 53 57 56 50 44 39 39 41 39 38 36 33 26 27 25 29 32 26 32 37 34 32 28 26 23 23 22 20 18 15 12 12 10 11 10 10 9 9 11 14 15 17
73 74 70 63 62 55 52 56 56 57 50 45 39 33 41 43 43 41 38 33 34 25 26 34 31 31 39 39 36 33 28 26 26 25 23 19 17 16 16 13 14 12 9 8 8 12 15 17 16
80 75 72 73 67 58 59 58 64 54 49 43 38 35 37 53 53 47 43 38 31 27 29 32 35 33 44 45 40 35 33 30 30 27 24 22 19 18 19 17 17 15 14 11 11 13 19 20 21
88 83 80 71 61 58 62 64 58 49 46 43 39 35 38 51 54 49 48 41 34 30 30 36 38 38 44 45 41 38 36 35 33 30 26 23 19 20 22 22 21 20 19 17 16 19 22 25 26

GFSSGP_250_spd_039.txt.gz
Wind_Speed
27 24 17 10 7 4 6 7 6 14 14 19 18 15 20 22 27 30 35 37 39 39 38 37 32 27 21 15 8 4 13 19 18 17 17 7 5 9 18 12 7 5 4 6 12 9 7 8 10
21 22 18 12 6 2 5 10 15 14 15 15 15 20 25 26 30 33 37 39 39 40 41 34 30 24 19 12 5 9 16 17 17 16 18 16 13 15 17 10 6 5 11 14 14 11 9 9 11
22 19 13 15 7 5 11 19 3 17 18 17 19 25 26 27 33 35 38 39 39 40 34 30 28 20 16 8 7 13 17 16 18 19 20 17 16 16 13 8 6 10 14 14 14 14 12 10 12
20 17 17 16 12 15 12 12 16 14 19 15 20 24 25 28 31 36 37 38 38 33 30 28 25 16 12 8 10 15 17 17 17 21 20 20 18 15 11 7 8 11 13 17 18 18 13 10 15
20 19 18 17 11 16 20 21 20 15 16 20 21 22 24 32 36 38 37 37 33 29 26 23 19 13 8 8 12 14 14 15 16 18 18 17 16 14 12 13 14 14 16 17 19 22 20 14 20
22 21 21 21 20 17 21 22 17 11 20 25 21 21 28 34 40 39 35 31 26 25 21 20 13 10 7 10 11 13 14 13 15 17 14 14 14 14 15 14 12 13 14 15 19 20 26 23 22
21 22 22 20 18 19 21 27 20 20 21 27 27 26 29 34 37 32 30 27 27 21 18 18 8 4 9 9 10 12 13 12 13 12 10 12 10 8 10 10 9 10 14 17 21 25 26 27 27
24 23 23 20 21 22 19 14 24 21 24 33 30 29 29 37 34 33 31 26 21 19 17 11 2 3 9 9 10 11 14 14 13 12 13 16 12 9 8 9 12 14 18 27 35 40 41 35 31
27 25 25 20 18 18 15 16 16 17 23 20 20 24 32 35 34 37 28 24 24 22 19 5 3 10 9 10 11 12 13 16 16 19 22 23 21 21 19 17 19 22 30 37 39 41 40 35 29
32 31 29 24 23 14 12 14 22 21 21 22 23 30 37 40 39 43 34 29 28 21 6 10 10 13 12 10 11 14 12 15 17 22 29 29 26 26 25 23 24 28 35 37 42 43 42 36 35
38 37 34 31 28 26 20 25 22 26 25 24 30 38 48 40 39 45 36 32 21 5 15 14 15 14 12 11 12 13 15 16 16 15 16 18 25 26 30 27 32 32 39 36 40 39 37 36 36
45 43 42 36 36 33 41 38 30 27 25 30 35 43 48 37 39 36 30 28 3 15 15 17 18 15 11 13 15 14 12 15 17 14 17 20 27 29 31 36 33 34 32 29 28 32 33 35 34
49 46 47 44 36 39 40 51 48 42 33 34 44 48 43 35 28 28 25 6 13 15 16 19 18 14 12 15 14 17 13 15 21 21 21 26 28 29 27 29 28 25 20 21 21 26 28 31 33
43 46 47 47 48 44 44 46 51 50 42 49 49 45 27 19 20 20 10 10 14 15 16 18 17 13 13 16 14 17 17 18 21 23 23 29 28 26 25 24 22 20 17 12 12 23 24 29 31
27 29 33 38 41 45 56 55 54 55 55 50 40 22 14 13 14 15 2 12 13 14 15 17 16 15 13 15 17 20 17 19 21 24 26 27 25 22 21 18 17 18 19 14 13 18 24 24 26
28 29 33 31 29 26 32 40 44 40 40 28 17 11 7 8 17 12 4 10 12 14 14 16 15 15 15 16 17 19 17 21 22 25 24 26 22 19 18 13 16 19 18 19 15 16 19 22 23
32 36 37 30 27 22 21 21 27 27 23 17 17 13 9 4 10 15 6 7 11 13 14 17 16 15 16 19 17 19 16 23 23 23 22 23 21 19 16 11 14 17 19 21 21 20 20 22 23
45 47 42 33 27 25 21 15 22 24 26 24 20 15 12 11 4 13 2 8 9 11 11 18 15 14 17 19 19 20 19 21 22 22 20 20 19 17 15 15 13 14 17 18 19 20 19 22 20
53 48 43 38 28 27 24 19 19 20 24 24 23 17 18 15 12 7 3 10 11 10 10 17 13 14 19 22 20 19 21 22 22 22 23 19 16 13 11 12 12 14 15 16 16 18 17 19 21
55 53 49 45 34 32 27 27 25 21 20 22 20 17 14 15 8 5 1 8 9 12 14 15 15 15 22 23 22 19 19 23 21 19 18 16 13 11 9 9 10 11 14 14 15 16 17 17 18
58 56 56 55 46 41 31 29 29 26 23 25 22 18 19 20 7 3 3 8 11 12 16 13 16 17 21 25 23 20 20 20 18 17 15 14 11 10 9 8 6 8 11 12 13 14 16 16 16
61 63 64 62 51 47 40 32 30 26 25 28 26 19 16 16 11 10 6 5 9 12 19 17 18 17 23 25 22 21 22 19 16 17 15 13 12 11 9 5 4 4 6 8 9 10 11 12 13
67 66 66 68 58 56 45 39 34 31 30 31 29 20 21 21 19 14 10 6 8 11 18 20 19 20 23 25 22 22 22 19 18 19 14 14 13 11 9 6 3 2 1 4 6 7 8 8 11
77 73 70 70 67 55 48 40 34 32 39 35 30 25 21 22 22 18 19 11 9 17 18 21 21 23 22 24 23 23 23 22 21 19 16 16 14 12 11 8 5 3 1 1 3 5 8 11 13
78 76 72 70 61 45 49 42 36 39 38 42 34 30 28 26 30 23 22 18 15 16 23 24 23 24 24 22 24 24 23 22 21 18 15 15 15 14 12 11 8 6 5 6 7 10 12 12 11
76 76 69 65 60 49 53 42 42 46 48 43 38 35 33 28 30 28 23 24 20 19 26 26 27 25 26 26 25 26 24 22 22 19 16 16 17 16 13 11 9 9 8 8 9 9 11 12 13
78 72 73 71 66 61 55 52 57 52 47 45 42 38 35 33 32 33 29 25 22 21 25 30 30 28 28 29 30 29 26 24 22 21 19 19 17 15 14 13 12 11 10 11 9 7 11 13 16
83 81 77 68 65 60 57 51 56 52 49 49 44 40 38 39 37 35 35 31 34 29 26 30 33 33 31 31 33 33 29 27 25 23 23 21 18 16 16 14 13 14 14 12 9 8 10 16 20
87 78 76 78 72 63 56 51 61 57 55 50 46 45 43 40 41 39 40 38 36 31 29 32 35 38 35 37 34 36 34 31 28 27 27 23 21 21 20 19 18 17 17 14 13 13 13 18 23
94 88 84 74 64 62 61 61 67 64 58 52 46 45 45 42 43 42 43 43 40 36 34 33 36 40 42 39 36 36 37 35 33 31 28 27 25 23 23 22 20 18 17 18 18 18 18 21 25

GFSSGP_250_spd_042.txt.gz
Wind_Speed
23 18 14 6 3 6 5 8 7 14 5 16 17 19 21 26 31 33 36 38 39 40 34 30 29 25 18 13 9 12 15 17 16 12 9 11 14 14 14 9 8 8 10 12 13 11 8 7 9
25 21 17 13 6 2 3 6 7 9 12 13 16 20 25 27 28 33 39 40 40 39 32 28 26 20 16 12 11 15 15 18 18 18 16 17 17 14 11 9 8 11 15 16 15 11 7 7 8
21 23 21 9 17 3 6 11 6 11 13 16 17 23 24 31 28 37 42 42 39 32 28 25 23 18 13 10 13 15 17 19 21 20 21 17 15 12 10 8 11 14 16 17 18 15 12 9 9
22 23 20 18 17 13 11 17 11 12 10 14 20 25 29 27 30 38 42 38 34 28 26 22 20 14 9 9 13 16 18 19 19 21 20 18 14 12 9 11 14 16 17 18 22 19 14 15 18
22 24 24 16 17 17 14 13 11 24 15 12 18 23 25 27 30 38 41 39 33 28 20 20 17 10 9 9 12 14 15 16 19 17 15 16 15 14 15 14 13 13 16 18 22 24 19 22 23
23 24 24 21 18 21 21 13 13 19 16 16 23 25 26 26 30 40 42 42 34 24 17 19 12 7 9 9 13 14 13 13 16 13 12 13 13 12 11 11 11 13 19 21 23 25 27 25 24
21 25 24 21 18 20 18 18 16 20 17 22 23 26 26 25 30 40 46 42 38 25 21 16 7 7 7 9 16 14 14 13 12 11 10 9 9 8 5 9 16 27 30 33 31 31 28 27 30
22 24 26 23 20 21 19 19 16 16 21 27 21 28 22 26 39 46 48 42 40 31 24 17 2 9 6 9 16 17 18 17 15 11 11 9 8 8 10 27 37 35 38 33 33 30 32 34 34
25 24 24 24 22 22 19 21 19 25 27 23 23 23 26 30 42 49 51 42 36 33 29 11 8 11 6 10 14 15 21 23 21 20 18 21 22 22 30 36 38 40 42 37 33 33 31 33 32
31 29 26 27 23 21 17 12 22 20 18 20 23 26 28 33 43 53 44 37 36 29 5 13 15 13 8 13 13 13 20 22 22 21 22 25 28 28 38 38 37 38 39 36 34 35 31 29 32
36 34 31 31 28 26 23 20 16 23 26 23 24 27 31 38 39 53 35 38 32 4 11 18 18 14 9 14 13 14 18 14 16 19 24 29 29 35 37 33 28 33 35 36 35 33 33 32 31
42 39 38 35 33 30 26 21 27 26 25 30 30 29 36 36 52 34 34 30 8 9 14 19 18 13 10 15 14 15 14 14 16 21 27 31 30 37 32 26 26 25 28 34 30 32 34 34 31
46 45 44 42 38 36 32 31 33 30 30 31 30 42 41 41 47 27 28 13 5 11 15 18 17 11 12 17 14 14 13 16 17 21 27 30 31 26 27 21 17 18 21 29 28 29 33 36 33
48 49 49 48 46 44 41 37 36 37 42 39 43 46 46 45 20 26 18 1 6 13 15 16 14 10 14 18 18 15 15 17 17 26 25 24 26 26 22 18 15 15 19 24 25 25 30 36 36
38 44 49 51 50 47 48 45 44 44 41 39 50 49 44 32 12 23 12 5 9 14 13 14 13 9 15 17 20 18 18 18 20 23 21 21 22 23 21 19 17 17 18 23 24 26 28 32 32
29 31 38 42 46 48 47 46 46 50 42 45 47 44 34 10 13 17 9 5 10 14 12 13 12 10 14 16 21 18 17 19 22 22 18 14 15 17 19 19 19 17 22 23 22 24 26 29 30
31 34 37 34 37 39 31 31 32 36 39 40 37 29 15 13 12 12 8 5 9 12 14 12 9 11 14 17 20 18 18 21 21 22 17 12 17 16 15 15 15 16 20 22 22 22 26 27 30
40 45 43 38 36 34 29 28 23 20 20 23 21 11 14 15 13 8 5 5 7 10 14 13 11 11 14 17 19 17 18 22 20 20 18 14 15 15 13 13 14 14 17 19 20 20 23 25 26
48 47 45 39 35 37 34 28 20 12 17 18 21 15 16 14 9 11 6 5 8 10 8 13 12 11 13 14 18 18 19 20 21 19 16 15 13 12 12 13 12 12 15 18 18 18 21 23 23
54 52 51 46 38 37 34 30 22 19 15 15 19 19 15 11 7 3 5 7 8 10 12 14 13 14 17 17 18 20 19 18 16 18 14 12 11 10 11 9 11 10 13 16 17 19 19 21 22
58 56 58 57 46 43 37 32 27 22 20 24 22 20 11 11 8 6 3 7 8 11 10 13 12 13 15 19 19 20 19 18 18 17 15 11 9 7 7 9 10 10 10 13 14 15 16 17 18
61 60 66 66 54 48 43 38 32 24 26 24 21 20 16 11 11 13 7 1 4 8 12 14 15 14 17 19 20 21 20 21 19 16 14 10 8 8 7 4 6 7 7 8 10 10 11 13 15
68 67 68 71 60 53 48 40 39 28 28 30 27 23 16 13 9 18 8 7 4 8 14 12 15 16 18 22 22 20 19 20 18 15 12 10 9 8 6 2 3 4 4 4 5 9 12 14 15
83 72 71 74 66 52 47 42 44 36 37 35 28 25 20 20 16 18 12 12 6 14 13 15 15 16 16 22 23 19 21 20 17 15 13 11 9 8 6 3 2 1 2 3 8 12 14 14 13
83 78 76 75 63 44 48 43 45 46 41 38 35 30 20 21 19 19 22 12 9 10 17 15 16 18 17 19 23 23 23 21 19 17 15 13 13 11 9 7 6 2 2 5 8 12 13 14 16
84 82 76 70 61 48 51 42 42 50 48 43 40 33 23 23 22 23 24 19 15 16 18 20 20 19 21 20 21 23 21 21 21 18 16 13 13 13 12 10 9 6 6 6 7 6 9 13 16
89 84 78 76 66 57 50 48 51 55 50 53 45 38 32 30 31 30 31 21 16 18 21 24 22 24 23 25 23 24 22 22 21 19 19 17 16 15 15 12 11 9 9 7 5 3 4 10 15
96 86 86 75 69 59 54 51 56 56 57 57 49 42 39 35 35 31 29 24 21 19 24 26 23 24 25 26 29 28 24 23 23 23 23 21 19 18 17 15 13 13 12 11 9 8 7 12 17
102 91 82 77 75 62 56 51 61 61 62 58 52 47 41 36 35 33 31 30 25 21 25 26 24 23 29 29 29 28 28 27 28 25 26 25 22 20 21 18 16 15 15 13 13 14 13 15 19
106 97 90 81 68 65 62 59 66 68 66 62 56 49 43 38 36 36 35 32 29 27 26 31 30 31 32 32 31 32 31 31 30 29 28 27 24 25 24 23 19 18 17 15 15 16 17 17 21

GFSSGP_250_spd_045.txt.gz
Wind_Speed
19 16 10 4 1 6 6 8 10 7 7 5 12 14 22 26 30 35 38 45 44 41 31 30 24 19 12 12 14 12 14 17 17 16 13 17 17 15 12 7 9 9 10 9 7 5 4 4 5
22 21 16 10 6 6 6 5 8 6 9 11 13 17 23 27 31 32 38 45 46 37 33 26 25 16 11 13 14 13 17 19 19 19 19 19 18 14 9 8 11 12 13 16 12 10 8 8 5
25 22 21 18 16 8 6 5 5 10 9 11 16 21 22 27 23 31 40 45 45 39 32 24 23 13 11 14 12 14 17 19 24 21 20 19 17 11 10 13 13 15 17 19 16 16 15 13 4
22 28 25 22 14 8 9 6 9 1 9 18 12 15 22 19 28 34 39 46 43 40 29 25 20 10 11 12 11 14 18 17 22 21 19 17 15 10 12 13 14 14 16 21 18 21 22 20 14
22 24 29 26 14 12 13 13 9 12 15 12 13 16 17 29 28 35 39 46 43 39 27 25 19 10 13 12 12 15 15 17 15 18 18 19 17 14 13 17 16 17 18 21 24 23 21 22 20
22 26 30 26 15 16 18 17 11 11 17 16 19 15 21 25 29 32 41 46 49 34 26 21 15 10 13 11 15 14 14 15 12 12 12 14 13 12 12 17 22 23 23 24 26 25 27 28 22
22 25 29 27 24 20 20 19 15 15 17 14 14 20 23 30 28 35 40 55 44 31 24 19 9 5 10 12 15 16 15 13 11 10 9 10 10 11 21 23 27 25 25 28 29 27 23 23 22
24 24 27 25 26 22 20 17 14 16 12 14 26 23 26 26 30 36 36 54 38 36 30 11 6 6 8 13 14 19 18 17 15 13 11 9 17 32 32 30 25 26 28 29 26 25 28 33 35
24 23 24 27 25 21 18 18 17 22 24 25 25 20 24 28 30 37 43 49 41 38 12 5 16 12 10 12 13 19 21 23 21 20 21 31 38 37 32 34 31 28 31 27 24 27 32 38 43
25 26 24 24 26 23 21 20 20 23 25 23 28 27 28 25 29 42 54 42 46 20 4 17 18 15 13 12 11 14 20 23 26 24 26 40 35 34 35 36 34 31 30 30 28 25 31 38 40
30 27 28 27 28 27 24 22 25 21 22 25 25 25 25 30 37 45 51 40 29 6 12 20 18 16 14 14 12 16 23 24 28 31 36 29 29 27 31 33 33 28 30 34 32 31 30 35 38
38 35 33 32 33 30 29 28 24 23 22 24 24 24 28 30 40 48 45 42 12 7 16 17 18 16 15 15 14 18 21 24 26 29 34 30 25 25 24 28 29 28 30 33 37 36 33 33 36
43 40 41 38 37 35 34 32 28 24 24 28 23 26 31 33 44 44 40 34 3 9 15 14 16 14 15 14 15 19 20 24 27 27 30 23 23 20 18 23 25 25 26 30 35 37 37 33 36
50 49 47 45 44 41 40 37 34 31 25 25 30 34 37 42 45 37 32 24 0 7 14 12 13 13 16 15 16 20 19 23 24 26 23 19 20 20 20 19 23 23 25 29 31 35 36 35 32
45 53 51 49 47 46 44 43 40 37 35 34 31 35 36 38 37 34 25 17 0 7 11 12 13 14 15 14 17 21 20 22 21 21 20 22 19 18 24 25 23 21 25 28 30 33 36 39 38
32 37 44 49 50 50 48 48 43 40 40 40 38 38 37 39 29 28 20 9 3 8 8 11 13 13 15 16 17 21 20 22 21 20 14 13 15 18 20 24 24 24 24 25 29 30 33 35 36
34 34 36 39 45 49 49 48 45 44 43 42 40 38 34 25 27 18 13 4 6 8 7 10 11 13 15 19 18 20 20 21 20 15 13 13 12 15 18 18 21 22 22 23 25 27 29 29 30
44 43 39 38 38 38 37 39 39 36 34 30 32 22 18 16 12 13 10 3 6 8 9 10 12 13 16 20 18 19 20 19 18 13 14 14 12 11 14 18 19 20 20 20 21 24 25 26 27
49 48 43 37 33 29 28 28 25 24 22 21 20 18 14 12 6 7 8 5 6 6 7 8 11 12 16 19 16 18 19 19 17 14 13 10 10 11 13 16 17 19 21 20 21 22 22 24 25
55 50 51 43 38 33 29 28 23 23 18 19 22 22 15 11 8 4 0 4 6 5 8 10 11 14 17 19 19 19 20 19 16 15 15 9 7 9 9 14 14 15 17 16 17 20 21 21 22
59 58 58 54 46 41 35 30 29 25 25 21 21 23 18 12 12 8 6 1 5 5 6 8 9 11 17 18 20 18 19 18 16 15 12 7 4 5 7 10 11 12 12 13 14 16 16 17 18
62 65 67 63 54 48 41 35 30 26 28 23 23 18 19 17 11 11 11 9 3 5 6 9 11 10 15 18 19 20 21 20 17 16 11 6 3 4 3 7 9 8 8 10 12 13 14 16 17
72 69 70 68 61 54 45 41 35 26 29 25 24 22 22 18 14 14 16 10 8 1 5 7 11 11 14 19 21 21 20 18 17 14 11 9 4 3 1 3 6 5 5 7 10 13 15 16 16
81 76 77 74 67 52 50 44 38 32 37 30 27 26 24 23 17 16 19 11 6 5 5 8 13 13 13 20 21 20 20 21 18 14 12 9 6 4 4 3 1 2 2 6 9 12 14 15 16
85 82 81 78 68 51 55 46 45 43 40 38 32 28 26 21 17 18 18 16 10 8 9 6 11 16 16 16 19 23 21 21 20 16 15 10 9 7 8 7 4 1 2 6 8 10 11 13 16
91 89 84 78 69 58 61 46 47 50 47 44 38 33 24 24 21 24 22 23 13 10 11 8 11 16 18 16 17 22 22 22 19 18 16 13 11 11 8 8 7 5 4 6 8 6 6 10 14
97 87 82 84 77 66 59 54 55 56 51 48 44 36 33 31 27 26 26 28 22 15 15 14 15 17 20 20 18 20 20 23 22 19 18 16 13 13 11 9 8 8 6 6 8 7 5 9 15
104 93 93 87 80 68 62 59 57 61 57 55 50 45 41 35 31 29 30 27 30 23 17 14 17 21 19 22 24 23 22 22 22 23 22 20 19 16 13 12 11 11 9 9 9 11 10 10 15
110 109 96 88 81 72 66 61 63 66 67 62 57 53 47 42 37 35 36 31 32 29 21 17 19 21 23 25 29 28 26 25 26 24 22 22 21 18 16 16 15 13 13 13 13 13 15 15 15
119 112 100 95 81 76 71 68 72 68 70 66 61 55 51 45 42 37 34 33 32 28 23 21 21 21 23 24 28 31 29 28 28 26 24 24 23 20 20 19 18 16 15 15 16 14 15 15 16

GFSSGP_250_spd_048.txt.gz
Wind_Speed
16 13 8 4 1 2 5 6 8 10 8 6 10 15 15 22 29 29 39 43 47 47 34 27 22 13 12 14 12 13 16 15 13 17 20 19 17 13 9 8 10 12 12 11 7 5 1 2 3
20 17 13 10 4 6 6 8 6 8 8 12 9 10 20 22 21 30 39 42 47 41 33 27 22 11 14 12 11 13 16 18 22 23 21 19 15 13 12 12 12 13 17 14 13 10 7 2 2
22 20 19 18 17 11 7 4 2 6 7 9 14 19 15 18 27 33 36 38 50 41 32 26 19 13 14 9 11 13 16 20 23 23 19 16 13 13 14 14 14 13 16 15 18 16 13 11 6
24 24 23 17 20 20 8 5 3 3 4 10 16 12 16 19 30 34 39 37 49 43 31 22 17 13 13 10 10 12 14 18 20 19 17 15 15 14 16 17 16 17 18 18 16 18 17 13 11
24 22 28 21 18 18 11 8 8 8 12 15 15 20 17 22 28 32 34 41 53 41 35 20 15 12 12 10 11 10 11 15 17 17 16 17 14 17 19 20 20 19 18 18 20 19 16 17 14
23 22 22 28 27 16 13 13 10 10 16 15 19 13 19 24 27 35 34 43 57 44 41 17 7 9 12 14 12 13 13 12 12 12 14 17 19 20 22 20 20 19 21 20 19 22 17 18 16
24 23 23 29 27 18 14 13 16 14 16 19 6 14 29 31 34 33 34 47 53 51 35 6 3 10 13 18 17 17 15 15 12 16 21 25 24 24 20 22 23 20 18 22 23 26 30 27 25
26 26 22 30 29 26 21 17 17 18 15 4 18 22 30 27 31 38 34 48 54 51 17 1 8 13 12 18 18 19 20 21 21 30 29 28 27 22 22 23 21 23 23 29 35 39 43 43 42
25 27 22 27 30 28 23 20 19 20 14 16 22 24 32 32 33 35 35 47 53 43 5 7 13 15 10 14 18 22 23 26 32 32 31 34 33 27 26 26 25 24 26 32 36 38 40 45 42
24 28 25 25 29 28 25 23 21 20 23 28 29 29 29 29 29 32 38 47 53 25 11 13 16 15 11 13 16 25 23 28 36 33 32 33 34 34 29 31 30 30 31 33 34 34 37 39 41
30 27 25 25 24 28 27 25 22 22 23 22 21 25 25 24 28 30 40 43 47 8 11 14 17 15 13 14 18 23 31 31 32 33 31 30 33 32 28 31 32 36 32 32 32 36 38 43 45
36 34 31 27 28 27 26 26 25 25 23 23 21 22 21 23 29 33 41 38 38 3 12 14 17 15 14 15 19 23 28 30 31 27 27 29 31 29 27 29 31 35 37 34 35 32 35 38 42
41 40 38 35 33 33 31 30 29 29 28 25 24 24 19 23 30 35 37 31 23 2 11 11 16 16 14 17 19 21 22 25 26 24 26 25 21 22 27 27 31 32 36 36 30 32 34 31 35
48 47 46 41 40 38 36 34 33 33 30 28 26 23 22 28 30 31 32 31 14 3 8 9 14 17 13 16 18 22 23 22 23 17 18 21 16 23 22 26 28 31 35 37 38 33 31 29 29
54 53 51 48 44 43 42 40 39 36 34 30 29 30 32 31 34 33 31 28 6 4 7 8 13 17 14 17 18 22 23 22 24 22 19 20 21 21 21 22 28 29 31 33 35 36 33 27 27
42 51 55 54 52 49 47 45 42 39 37 35 35 33 33 33 33 32 25 20 5 5 7 9 14 18 14 16 18 23 23 22 20 18 20 21 23 21 18 21 26 27 27 30 31 31 31 32 29
40 44 48 53 54 53 52 50 45 41 40 40 39 37 34 34 28 27 19 10 4 7 7 10 14 18 16 14 18 22 23 19 17 14 17 18 20 18 17 18 22 23 23 24 26 26 27 27 26
44 47 46 49 52 55 54 53 50 45 44 42 39 34 34 24 19 12 9 5 4 8 9 11 14 17 17 16 19 19 21 20 17 15 16 15 16 16 16 18 18 18 23 24 25 25 25 23 22
48 46 46 41 37 38 42 42 40 40 39 35 30 29 25 20 14 10 8 4 7 7 6 10 12 15 16 17 18 19 20 18 17 18 16 15 15 15 14 17 16 18 19 21 20 20 20 19 19
54 50 51 48 40 34 31 28 25 27 26 25 27 25 22 18 16 11 7 7 10 8 7 9 13 15 19 20 19 20 19 18 16 16 14 13 12 12 14 13 13 16 17 17 16 17 16 17 20
62 56 58 56 47 40 33 29 25 24 25 25 22 22 26 20 16 15 8 9 10 11 9 10 12 12 18 21 17 18 20 18 15 15 12 12 9 10 11 10 12 12 12 13 15 14 14 15 18
68 65 63 61 55 48 39 32 29 26 27 23 24 23 26 19 16 17 14 14 10 11 11 12 13 12 15 19 20 18 20 20 17 15 12 10 8 8 9 9 7 8 9 11 12 12 13 15 17
74 74 71 67 61 54 41 37 34 29 29 26 27 25 27 22 17 16 19 18 15 9 10 11 12 12 14 17 22 22 21 19 17 15 12 9 8 6 5 6 4 7 6 10 10 12 12 14 15
80 79 77 75 68 57 49 42 37 30 35 33 28 26 29 25 21 18 22 19 13 12 11 14 10 12 14 19 20 21 19 19 18 17 13 10 9 8 4 3 2 3 4 6 7 10 12 13 15
87 83 81 81 74 56 57 50 45 39 42 37 32 30 24 24 24 21 20 20 15 18 13 11 15 15 14 18 20 21 23 21 20 18 14 11 9 7 5 3 2 2 1 3 5 6 8 11 16
93 89 86 83 78 62 66 53 52 50 48 42 35 33 24 27 27 25 26 25 19 18 16 12 10 14 17 14 18 20 21 22 22 18 16 14 10 8 7 6 5 6 3 2 3 1 4 8 13
100 96 84 87 86 74 70 62 63 58 55 48 42 36 33 32 29 30 29 26 25 21 18 16 13 14 16 17 14 20 21 22 21 19 19 17 13 12 10 8 7 7 4 3 5 5 5 10 13
109 99 100 95 89 80 76 70 63 64 62 56 51 45 42 39 35 33 36 31 27 24 20 17 15 16 17 14 18 19 22 21 19 22 22 19 18 15 13 11 11 9 7 5 6 9 9 11 14
111 117 110 98 91 84 79 72 67 71 68 63 59 54 50 45 42 40 36 33 26 23 24 21 21 19 19 21 23 25 24 25 24 26 24 23 22 20 17 15 14 12 10 9 9 11 11 13 14
110 118 113 106 95 87 85 81 76 73 71 69 65 62 57 51 48 43 39 32 30 29 28 26 23 24 24 24 25 26 28 25 28 27 27 26 25 24 22 19 17 16 14 12 12 11 14 14 13

GFSSGP_250_spd_051.txt.gz
Wind_Speed
14 11 7 3 1 3 6 7 9 10 10 9 12 19 19 24 22 25 36 40 38 45 34 29 21 11 13 10 9 10 11 10 17 21 22 17 12 10 11 13 12 13 11 10 8 3 0 6 5
17 13 10 5 5 4 3 10 6 7 10 10 11 9 19 24 23 28 36 36 47 44 40 27 18 12 10 9 11 13 16 17 22 22 17 14 15 16 14 13 13 13 10 12 12 9 1 7 10
19 16 12 10 14 11 9 9 3 2 5 8 19 23 16 18 26 33 36 38 47 53 47 23 10 10 9 9 11 13 16 19 18 16 14 14 15 15 15 15 15 14 12 11 12 10 11 8 7
19 18 18 18 17 16 16 13 5 3 5 11 17 17 23 32 31 31 38 37 49 54 52 17 5 11 10 11 10 13 14 15 15 15 15 15 17 19 17 16 16 16 16 16 12 12 7 6 8
26 23 21 20 15 15 14 11 11 10 10 11 21 22 24 20 26 37 44 41 45 54 42 11 6 12 11 11 9 9 12 13 14 15 15 20 20 17 15 16 18 21 17 17 17 13 12 11 13
29 24 22 24 19 16 12 10 11 6 16 22 22 16 18 22 31 40 41 43 46 57 29 6 7 13 12 13 11 9 10 10 10 14 19 20 19 19 18 21 22 25 20 20 22 21 16 14 13
25 23 22 24 28 27 23 14 14 6 15 24 20 17 22 27 34 37 40 44 45 57 12 6 10 14 16 13 14 13 12 11 16 18 19 18 20 18 19 26 31 33 36 37 37 35 30 25 20
27 26 21 22 26 27 27 21 14 13 22 8 20 27 30 31 34 32 36 40 50 49 9 12 13 15 18 15 16 19 20 27 21 22 21 22 23 22 22 28 32 33 35 40 39 44 47 47 41
28 26 25 22 23 27 27 26 19 20 17 14 23 21 26 33 31 32 35 36 47 32 13 14 15 16 16 16 19 28 27 23 26 27 26 27 27 28 27 31 32 32 32 35 39 43 52 51 51
28 25 26 24 23 26 29 27 25 22 26 30 25 26 27 24 26 31 34 42 40 22 12 11 15 17 16 18 23 31 24 30 29 30 31 30 31 31 30 30 32 32 33 36 41 45 45 43 42
29 26 24 27 25 24 28 28 27 25 26 30 29 28 24 23 25 25 35 38 38 15 10 10 13 16 19 23 23 26 29 30 28 33 34 30 31 32 32 32 32 31 35 36 41 43 47 34 36
38 34 32 29 28 26 25 26 32 26 21 31 26 23 22 25 22 25 31 38 33 14 6 9 12 16 18 23 24 24 25 30 30 30 33 29 30 31 31 32 30 32 32 34 34 37 37 34 35
43 41 38 35 32 29 29 30 27 25 35 32 28 25 24 24 25 28 33 33 33 10 2 5 10 14 18 20 19 23 23 26 26 24 26 27 29 29 31 33 31 31 32 30 28 31 31 31 29
47 46 44 40 36 34 33 31 31 30 31 29 29 27 27 25 26 30 30 27 29 7 1 4 9 11 15 17 18 17 19 22 21 22 20 24 25 26 29 32 34 33 30 30 27 26 26 26 27
54 51 49 45 43 39 36 35 34 31 33 31 30 29 29 27 27 30 32 20 20 5 4 5 8 10 12 11 15 13 17 17 14 15 16 19 21 22 26 28 31 32 33 32 30 26 25 23 23
55 57 56 50 46 43 41 37 37 39 38 35 34 33 30 29 30 30 27 19 13 4 6 5 9 14 13 11 15 12 18 18 21 19 18 22 19 20 22 26 25 26 27 28 26 26 26 25 25
46 55 58 55 52 48 43 34 39 39 41 40 37 35 34 33 31 29 18 13 6 5 8 7 12 16 14 13 15 13 15 14 18 19 19 21 19 19 17 21 21 21 22 23 22 21 22 22 22
47 52 55 56 56 53 48 39 46 47 47 44 40 37 37 33 29 26 14 10 7 7 10 10 14 18 17 16 15 15 14 16 17 19 19 19 18 18 17 16 18 18 17 18 18 18 20 21 22
50 50 51 48 47 45 47 44 20 37 45 48 45 41 38 32 29 19 14 11 10 9 8 9 13 18 17 18 16 18 15 16 17 20 19 19 18 17 15 17 16 16 16 15 15 15 17 20 22
56 54 52 49 44 40 39 41 50 53 49 47 44 40 36 30 23 17 15 9 13 10 10 11 15 18 20 20 22 19 14 12 14 15 16 16 15 16 16 16 13 13 15 16 14 14 17 20 22
62 60 58 54 48 43 38 34 33 31 31 34 33 33 28 23 21 19 16 12 16 15 13 11 15 16 20 20 22 21 18 15 13 13 13 12 14 13 11 13 11 12 13 14 12 14 17 20 21
69 67 62 59 54 49 42 37 30 27 27 28 27 25 23 21 24 19 15 13 16 17 14 13 16 16 19 21 18 21 22 17 15 12 10 10 12 12 11 10 8 8 11 12 11 13 16 19 21
72 73 68 64 61 56 46 40 32 28 25 27 27 25 19 26 23 23 19 17 19 20 18 14 16 16 19 22 21 21 23 20 16 13 9 6 9 10 11 6 7 6 8 9 10 12 14 17 21
78 75 77 70 68 57 53 45 40 33 31 32 29 25 22 27 27 24 23 22 13 17 22 20 18 15 19 22 26 22 21 20 17 15 13 9 7 7 8 5 4 4 5 5 7 8 10 13 17
83 80 77 80 75 61 62 52 46 42 37 35 32 29 25 29 28 26 26 27 18 14 15 20 22 18 18 23 23 24 21 21 19 17 14 10 8 7 6 5 3 2 2 2 3 4 7 10 15
88 86 83 79 78 65 69 56 50 50 45 37 32 34 31 33 33 29 28 29 23 19 17 17 18 21 19 19 22 22 22 22 21 19 16 12 9 9 7 6 5 5 4 1 2 5 7 10 14
92 96 84 84 83 75 75 70 63 58 53 51 52 41 34 38 39 32 29 30 27 24 23 18 16 18 18 16 17 22 22 23 22 19 18 16 13 12 9 7 5 5 7 5 4 5 8 9 13
98 92 96 92 88 82 85 75 66 64 60 58 52 44 42 43 43 37 35 31 31 27 27 22 19 18 19 16 14 19 21 22 21 20 20 18 18 14 12 9 8 9 9 8 6 6 8 10 12
96 96 101 101 95 88 87 80 74 70 67 65 58 53 49 50 44 44 41 35 32 29 26 27 24 20 21 23 22 19 22 23 21 23 23 22 21 19 16 13 12 13 13 12 9 9 10 10 12
104 103 104 106 98 91 88 87 81 80 74 72 68 61 55 54 51 46 43 38 34 35 31 29 23 22 22 24 26 26 24 23 27 26 25 27 25 24 22 18 16 17 17 16 14 10 11 10 11

GFSSGP_250_spd_054.txt.gz
Wind_Speed
12 10 7 2 2 7 5 8 6 8 10 12 10 16 21 26 26 32 39 39 51 48 51 34 14 13 12 14 16 15 12 19 24 22 16 10 8 6 7 8 8 7 5 8 6 2 4 8 9
14 13 7 5 5 4 10 12 7 7 8 12 14 20 24 18 31 37 37 52 47 51 49 28 11 12 11 13 13 14 17 20 20 17 14 13 9 11 13 15 13 10 8 9 8 4 7 8 9
17 13 7 8 9 10 12 16 11 5 8 9 11 19 21 26 29 29 42 49 53 51 46 17 9 11 10 12 12 12 15 15 15 15 15 15 14 17 17 16 14 13 12 9 9 8 11 10 9
19 15 12 12 7 11 9 10 13 8 12 14 10 22 24 23 23 32 43 47 47 50 39 10 10 12 11 11 9 11 15 15 17 16 17 17 17 18 17 16 15 11 12 12 9 8 9 10 9
24 17 13 12 8 7 16 14 15 16 16 4 15 27 21 20 33 32 44 49 48 51 22 9 12 13 12 11 7 11 14 15 16 17 19 20 19 20 17 14 13 14 17 17 16 16 13 12 11
25 21 16 10 15 12 14 11 15 10 12 10 22 27 22 22 35 41 39 47 51 51 10 11 15 16 14 14 10 10 13 13 16 19 18 18 20 21 26 28 29 32 39 38 34 29 22 15 11
26 26 23 17 18 19 13 15 15 14 12 8 15 24 19 21 28 38 36 44 51 41 9 13 17 20 16 16 14 12 13 15 17 18 20 20 23 27 28 34 40 45 49 53 49 50 40 30 24
29 30 28 21 19 17 22 21 20 18 9 10 20 16 25 24 26 37 34 41 43 29 9 15 20 22 19 18 18 20 18 16 17 22 22 24 25 28 31 34 40 48 54 55 52 53 55 51 51
30 28 26 22 19 21 22 25 26 19 17 13 17 18 24 20 29 32 32 38 38 21 8 14 19 21 20 24 20 21 20 20 23 24 25 26 28 28 30 34 37 47 51 51 50 44 46 46 41
33 30 30 25 22 14 24 23 27 24 23 24 24 28 32 29 28 29 30 37 35 18 8 12 19 18 20 22 19 23 25 25 25 28 29 28 28 28 30 32 36 34 38 33 34 33 35 31 35
32 32 30 27 23 24 28 22 24 29 29 27 27 29 29 28 25 27 30 33 31 18 5 10 16 17 20 16 22 22 26 27 27 29 31 29 29 28 28 32 34 40 44 35 29 30 34 31 30
36 35 32 30 27 26 21 15 17 11 11 25 29 25 23 23 24 26 29 32 27 17 4 7 13 17 17 18 17 23 27 29 30 30 31 31 28 28 27 27 30 34 37 34 30 29 32 24 31
41 37 36 32 27 28 24 21 10 28 30 34 27 23 23 25 25 27 29 32 24 15 3 4 8 13 12 17 18 20 21 24 27 28 30 28 30 29 30 28 26 29 30 29 27 25 27 28 28
44 42 41 35 33 27 27 22 29 23 25 27 34 30 27 27 26 28 30 30 18 13 1 5 6 17 15 16 15 14 20 20 23 24 27 28 30 32 28 26 25 21 25 24 22 22 26 27 27
50 47 44 42 39 34 31 31 30 28 33 33 31 29 29 27 28 29 30 30 17 12 4 7 9 11 18 15 13 17 17 19 19 22 21 25 28 30 30 29 26 25 26 24 25 26 27 26 27
55 52 49 45 43 39 36 30 26 22 28 26 26 30 31 30 29 29 30 28 14 10 6 7 9 11 14 16 12 14 17 19 18 18 21 21 23 26 25 24 22 22 22 24 23 24 25 26 26
52 57 56 50 47 42 39 34 28 25 33 41 37 38 33 31 31 30 30 26 13 11 10 9 11 15 13 16 13 13 14 15 18 17 19 18 20 20 22 21 20 20 21 21 21 22 24 25 27
51 57 57 55 53 47 42 39 34 33 30 40 42 33 32 34 34 33 30 26 11 11 12 10 12 17 14 16 15 14 14 14 15 19 17 17 17 16 18 18 19 18 17 18 19 20 22 24 29
52 52 54 57 56 53 49 45 40 40 42 39 31 42 35 36 37 34 29 23 12 12 12 9 12 17 19 17 19 16 16 14 15 15 17 16 15 15 17 15 16 16 16 16 16 20 21 23 27
57 54 54 54 54 54 52 49 45 37 36 35 37 31 36 36 42 36 29 19 14 13 15 12 14 19 20 19 20 17 16 16 15 15 15 14 14 14 14 13 13 14 15 17 17 20 22 24 26
63 61 60 57 53 51 50 46 45 31 37 43 47 53 44 40 39 30 23 18 15 17 17 15 16 18 20 22 20 21 18 18 14 12 13 13 11 10 12 10 9 12 14 15 17 20 22 25 26
66 67 65 61 55 51 47 43 43 45 32 36 41 31 28 28 27 22 18 18 15 18 20 18 18 18 21 20 23 22 20 17 16 12 11 12 10 9 10 6 6 9 12 12 15 17 19 22 25
69 72 70 67 62 54 46 41 38 36 40 38 36 25 23 23 20 18 21 17 16 20 22 19 19 18 22 23 24 23 21 19 17 14 9 10 8 8 8 5 3 7 8 8 11 13 15 19 23
75 73 72 70 68 56 50 45 39 34 44 42 35 26 24 22 21 25 24 18 16 22 23 23 22 20 22 26 25 24 23 20 17 14 10 7 7 6 6 3 4 4 5 5 6 10 12 14 19
77 77 74 73 73 59 61 52 47 44 42 36 36 41 30 23 25 27 31 21 19 21 17 21 24 24 24 28 28 23 22 22 19 15 12 8 7 6 5 3 2 1 2 4 5 7 10 13 15
84 82 79 74 71 65 69 57 53 52 49 51 34 29 28 28 26 28 31 27 23 20 17 16 20 23 25 30 30 28 24 22 20 17 15 11 8 8 5 3 2 2 4 4 5 8 9 11 13
89 91 81 80 76 72 73 67 62 59 55 50 51 43 41 30 28 32 30 30 29 24 20 16 17 21 21 23 27 28 28 25 23 19 17 14 11 10 8 6 5 4 6 7 7 9 9 10 12
92 85 89 86 82 75 76 71 70 63 60 55 50 41 47 50 22 32 32 31 34 28 25 21 18 21 20 18 22 26 28 26 24 22 20 18 15 14 12 9 9 8 7 9 9 10 10 12 11
88 88 95 94 89 81 78 76 76 73 67 62 52 54 57 54 64 46 29 38 32 31 31 27 23 21 21 25 24 26 28 28 26 25 24 22 20 19 16 14 12 12 10 11 12 11 11 11 10
95 96 97 99 97 89 84 81 81 84 77 69 59 57 57 51 49 54 50 43 35 34 34 35 28 28 24 22 25 26 26 24 26 27 26 25 24 23 21 19 17 15 15 14 14 14 13 11 11

GFSSGP_250_spd_057.txt.gz
Wind_Speed
9 8 6 4 4 10 5 9 10 5 11 12 8 19 21 22 27 34 39 46 54 52 48 18 13 13 17 18 18 16 21 24 20 15 10 5 3 5 7 7 5 3 2 4 4 4 5 8 9
11 9 7 3 5 2 5 7 12 8 13 12 12 19 24 25 31 39 43 50 56 56 37 16 13 13 17 16 16 18 18 17 17 14 8 8 11 12 11 10 7 5 8 7 8 1 6 8 9
14 12 5 3 3 6 8 14 9 13 16 19 22 16 28 26 27 44 50 47 57 53 21 15 15 16 17 15 15 16 16 17 15 14 17 18 19 16 14 13 10 7 10 6 6 6 9 9 8
17 12 4 5 1 5 3 4 14 7 23 17 17 24 25 18 30 39 46 51 53 42 17 14 16 18 15 13 14 16 17 16 16 20 25 24 20 18 14 12 11 9 9 9 13 13 12 9 4
21 12 8 7 1 6 7 11 3 5 16 11 10 16 21 25 30 31 43 50 52 32 18 18 18 19 17 13 13 13 15 15 19 23 22 22 24 25 28 26 28 28 23 20 20 19 16 14 8
24 16 15 7 7 9 11 5 8 8 13 18 7 10 16 24 34 35 37 48 47 28 19 20 20 20 16 13 10 12 14 15 21 23 22 24 25 34 37 45 49 50 44 36 30 28 27 24 21
27 20 19 10 8 12 7 6 13 16 14 9 6 6 17 26 30 35 38 44 41 25 20 21 21 20 14 13 13 13 15 19 23 23 26 29 30 43 45 45 50 55 57 55 50 47 44 44 43
28 23 23 20 16 13 13 18 20 19 19 14 14 10 19 23 30 33 38 40 36 25 19 19 23 22 23 20 16 15 20 20 22 26 29 31 33 39 47 46 43 47 49 47 43 39 39 41 41
29 27 26 21 17 15 15 17 17 22 22 20 12 16 20 28 28 32 34 36 32 25 16 17 22 21 22 17 17 18 20 20 22 26 31 31 30 40 31 33 35 37 35 32 37 36 35 37 37
31 28 27 24 21 17 15 11 18 21 21 24 25 23 23 21 24 28 29 36 29 25 14 11 19 23 22 21 20 21 21 22 23 26 27 27 30 25 30 40 38 33 31 28 30 29 29 31 33
35 32 31 28 22 13 10 20 23 24 25 27 26 24 28 20 18 22 29 34 30 24 10 7 16 21 21 23 23 22 21 23 23 25 25 26 30 30 30 28 26 23 27 31 29 29 27 27 28
40 38 34 33 32 23 16 22 12 25 17 14 7 8 11 13 19 21 27 32 31 22 9 3 13 17 22 20 21 21 22 24 25 22 26 25 27 27 24 25 34 31 27 29 27 22 27 27 25
41 38 37 36 36 33 28 28 23 26 15 15 21 24 21 22 22 22 27 30 30 19 9 2 2 9 16 18 19 23 21 23 18 27 25 29 28 28 24 22 22 24 23 22 27 29 29 28 26
43 40 36 35 36 36 34 28 27 25 20 24 31 21 20 25 21 22 25 28 27 18 9 1 2 10 12 12 14 19 18 19 19 17 22 27 25 25 20 22 21 21 23 28 29 28 27 25 24
47 42 40 38 36 37 34 32 24 24 22 26 25 26 22 23 19 21 24 27 26 16 10 4 5 8 10 9 14 12 13 18 21 23 24 26 25 26 25 24 26 25 24 25 26 26 27 28 29
53 49 45 41 40 39 34 30 27 27 25 30 22 24 30 20 24 22 22 25 26 13 9 5 8 9 10 11 14 12 13 18 19 21 20 24 24 22 21 24 25 24 23 23 25 26 30 32 30
56 55 53 48 44 41 39 33 30 27 30 34 28 21 23 33 29 26 23 25 25 13 9 7 12 11 13 11 14 15 12 13 17 18 20 17 20 16 18 19 21 21 21 22 23 25 28 33 31
59 60 57 53 50 45 41 36 36 32 33 29 26 24 35 32 21 28 26 24 21 14 7 7 11 12 15 15 15 15 13 14 13 14 14 13 17 16 15 18 18 19 20 19 20 23 27 33 33
55 59 57 57 54 50 44 42 38 34 31 20 26 36 33 33 28 21 23 27 21 12 7 8 14 16 16 20 18 15 13 14 13 14 14 13 11 14 13 15 16 18 20 20 21 24 27 31 33
56 55 56 59 58 56 49 46 41 38 34 22 32 38 43 42 34 28 33 24 19 10 10 11 15 17 16 19 19 18 11 12 13 13 12 11 10 11 11 12 13 15 18 19 20 23 27 28 30
59 58 59 58 56 53 50 50 48 44 40 37 45 39 39 38 37 38 24 16 16 11 12 14 17 20 18 17 20 19 16 14 12 12 12 11 10 9 8 9 12 14 15 16 17 21 24 26 28
64 63 62 63 57 51 49 49 51 49 46 43 43 41 40 35 26 25 15 15 14 13 15 15 19 19 20 22 22 20 18 16 12 11 11 10 9 7 4 5 9 12 12 13 15 17 21 24 26
70 69 67 64 59 54 48 45 46 43 45 47 25 26 33 32 19 15 16 17 18 15 17 16 21 20 21 23 24 23 20 17 14 11 10 8 6 7 4 3 4 8 9 9 11 14 18 20 24
76 73 71 68 65 54 52 47 47 42 45 49 52 40 39 29 19 15 19 21 21 19 19 16 20 21 22 26 27 26 24 20 17 12 10 9 7 8 4 2 3 5 6 6 6 11 15 19 20
76 76 74 71 69 55 61 54 52 48 48 48 44 34 29 24 24 21 21 25 25 21 19 17 16 22 24 27 27 31 28 25 21 17 12 9 8 6 6 3 3 2 3 5 7 11 14 16 17
81 81 78 73 64 63 68 56 57 54 52 52 54 50 38 35 27 20 20 27 27 24 20 16 14 19 24 26 30 31 31 29 25 21 17 13 10 9 6 5 3 2 1 2 4 7 10 13 14
86 83 78 79 74 75 72 64 64 56 51 56 56 61 44 39 31 26 22 28 29 22 19 17 17 18 23 24 27 31 30 32 29 24 20 18 14 11 10 7 6 5 5 3 2 5 8 11 11
93 86 87 82 75 74 72 68 68 65 56 60 54 59 51 44 38 29 28 28 32 27 21 19 18 20 21 22 23 30 31 29 29 27 24 21 19 15 13 11 10 9 8 7 4 3 5 9 12
91 92 91 88 80 74 72 69 72 74 68 62 60 59 50 49 48 31 33 32 34 30 28 22 21 23 23 22 21 28 32 33 31 31 28 25 23 19 17 16 13 12 11 11 9 7 6 7 9
89 94 94 95 89 83 78 70 79 83 76 68 69 64 60 56 50 55 50 39 37 37 35 27 25 24 24 24 22 25 29 30 33 32 31 29 28 25 23 21 18 17 14 12 12 12 9 8 9

GFSSGP_250_spd_060.txt.gz
Wind_Speed
9 12 8 5 6 6 10 12 6 8 11 17 18 17 31 25 31 40 44 50 61 32 20 16 15 16 19 19 23 23 21 18 15 12 10 9 9 8 9 8 7 5 5 7 7 6 6 7 6
10 10 8 2 5 2 10 5 2 11 14 21 18 19 31 27 32 39 46 50 56 29 23 17 16 16 17 18 19 17 16 14 14 16 15 13 11 9 9 7 5 2 6 4 5 3 1 4 5
13 12 7 4 3 3 10 9 8 12 14 21 11 15 25 30 33 42 49 51 46 32 26 16 17 15 16 18 18 16 15 18 19 20 21 20 17 12 8 6 5 5 3 3 7 10 8 8 4
16 12 6 7 1 1 2 1 6 3 12 19 11 17 18 23 39 41 44 51 40 31 30 18 18 16 16 15 14 14 17 19 20 23 26 26 25 22 17 13 9 11 13 15 16 13 11 7 2
19 12 9 9 3 2 2 3 12 6 3 4 20 19 20 21 31 36 42 49 38 30 30 19 18 16 15 13 13 14 18 18 23 25 28 35 40 37 35 32 28 27 26 23 18 15 13 10 9
21 14 12 11 7 10 6 3 7 7 4 10 12 8 15 31 26 35 41 44 34 28 30 21 21 16 14 13 12 17 17 18 25 28 36 44 48 52 52 52 49 47 43 38 33 32 31 28 29
24 19 15 9 9 9 8 3 10 14 13 9 8 12 20 21 27 31 38 41 30 26 27 21 24 21 18 15 15 18 17 24 29 33 41 37 39 42 45 46 45 46 44 41 38 36 33 31 27
28 25 21 18 12 11 7 7 14 16 15 9 13 14 14 23 24 30 33 38 27 24 23 20 21 19 17 19 19 16 21 29 31 36 37 34 35 34 34 34 33 36 35 36 35 33 34 32 29
33 31 27 25 25 19 16 8 14 23 19 19 22 16 20 21 22 25 31 36 27 22 20 21 23 24 22 21 19 18 22 29 29 30 33 28 24 26 28 31 31 29 30 30 30 30 27 28 30
36 33 32 29 25 23 23 13 18 23 19 15 17 17 20 25 18 22 29 35 25 20 17 19 22 21 21 22 21 20 22 24 25 24 22 26 30 27 29 30 32 31 30 29 28 26 24 26 25
37 36 35 33 30 27 22 14 20 21 19 9 7 8 12 11 17 21 28 33 24 18 12 16 18 22 21 22 20 20 23 19 17 17 18 22 22 23 22 24 29 29 30 26 25 26 23 22 24
40 40 36 34 30 30 24 12 15 8 11 7 4 4 9 13 18 20 24 27 25 16 10 10 12 15 20 23 22 25 22 18 20 21 20 20 20 20 23 23 24 25 28 28 28 28 27 24 22
45 41 38 35 36 30 28 17 24 12 9 5 11 11 16 16 16 19 22 23 26 16 8 5 6 8 15 17 18 22 29 25 20 18 19 18 18 16 19 21 21 27 27 28 29 28 26 25 23
45 45 45 39 39 36 35 33 30 25 13 12 17 17 24 17 16 17 20 21 24 15 9 4 4 6 9 14 12 15 20 22 20 21 19 17 18 21 20 22 23 26 28 29 31 32 30 31 29
47 47 48 42 44 40 39 34 28 21 22 18 18 17 17 22 14 15 19 20 20 17 7 2 3 5 4 8 11 14 17 19 21 20 21 20 23 21 20 22 24 25 26 28 31 31 31 29 28
53 51 50 47 44 42 43 38 34 30 22 22 27 20 23 22 20 19 21 17 19 17 5 1 5 7 4 7 10 11 17 18 20 21 20 19 18 19 21 20 21 21 23 26 29 32 30 28 29
61 58 53 49 46 46 43 42 38 32 30 30 27 20 17 18 15 23 17 17 16 16 5 3 6 10 8 5 11 14 11 16 16 16 16 17 15 18 19 20 20 19 23 24 26 30 30 27 28
64 61 57 53 49 46 43 42 38 36 33 32 30 27 24 23 23 24 18 15 18 15 5 6 6 13 14 10 12 14 13 13 13 10 12 12 16 16 16 17 19 18 18 23 25 27 29 29 27
62 61 63 60 56 50 45 42 40 38 36 31 28 27 27 21 22 25 20 19 27 16 6 9 9 16 18 14 15 14 15 13 12 9 9 10 12 14 15 15 16 15 18 21 22 23 26 27 29
58 60 63 63 61 56 51 49 44 41 35 33 32 29 26 27 28 23 24 23 26 15 9 11 12 18 20 18 17 16 14 12 12 10 8 9 10 12 13 12 12 14 16 19 20 22 23 25 26
62 60 64 66 62 59 57 53 48 46 40 38 37 35 27 30 30 20 18 27 20 12 13 15 15 21 21 23 20 18 15 15 13 10 9 8 8 7 10 12 10 10 12 15 17 20 22 23 23
64 66 66 67 62 58 58 56 52 49 46 44 43 37 35 33 33 27 21 24 18 15 16 18 18 23 24 23 23 21 17 16 12 10 8 7 7 5 6 6 7 7 10 12 16 18 20 23 23
74 71 69 68 61 58 56 53 56 55 54 51 48 42 36 35 33 30 23 33 20 17 18 19 19 23 27 25 27 23 21 17 13 9 8 7 6 5 5 4 4 5 5 8 13 17 17 20 21
77 74 74 71 64 58 57 53 50 52 55 59 55 50 49 46 35 28 30 28 18 20 20 20 21 23 29 29 28 28 24 20 16 12 9 7 5 5 2 0 1 3 4 7 10 14 16 16 18
78 76 76 73 67 60 62 58 55 56 55 55 57 54 50 46 37 37 35 21 18 23 20 18 19 19 27 32 31 31 27 24 20 17 12 10 6 5 5 3 2 1 1 3 7 10 13 15 14
81 80 78 75 71 69 71 60 60 62 57 54 53 51 51 47 39 38 36 28 21 25 19 19 20 20 24 28 33 33 32 28 24 21 16 11 8 8 7 6 5 5 5 3 5 6 10 14 12
81 81 83 81 78 75 76 66 69 68 60 54 53 53 53 51 42 37 39 27 22 29 20 19 21 21 20 25 29 32 33 31 28 25 21 17 12 11 10 8 7 6 6 5 4 6 8 9 10
90 86 86 83 81 78 76 73 75 72 66 59 54 54 53 53 44 41 37 27 26 30 27 23 21 23 22 25 25 29 30 32 31 28 24 21 18 17 14 13 12 9 10 7 6 6 8 10 11
95 94 90 86 81 79 78 80 79 76 71 66 61 57 50 55 47 42 34 29 30 30 28 24 23 21 24 25 25 29 32 31 33 32 29 26 23 22 19 18 16 13 11 10 9 8 8 9 10
100 100 96 91 85 83 79 83 81 81 78 72 65 62 55 58 55 45 44 35 36 33 34 30 29 25 24 23 25 23 30 32 31 32 32 31 28 26 25 22 20 18 15 14 12 11 9 10 11

GFSSGP_250_spd_063.txt.gz
Wind_Speed
10 11 8 3 7 10 11 10 7 12 13 21 19 21 26 30 35 42 45 47 37 33 25 17 13 17 18 22 24 24 23 20 16 12 8 7 6 7 6 6 4 2 3 3 3 4 2 3 7
11 12 8 4 1 7 6 3 5 13 16 27 17 20 23 28 38 41 44 50 36 34 25 16 12 16 19 22 21 22 20 17 14 14 13 9 6 6 7 3 2 1 7 4 5 4 3 3 3
13 13 9 4 1 3 8 11 13 14 16 19 21 25 22 29 40 39 44 47 32 33 24 16 13 15 18 20 21 20 18 19 22 23 21 16 13 12 10 5 2 3 5 7 11 11 12 10 8
15 14 9 6 5 5 3 8 9 6 10 9 10 20 21 29 38 35 44 45 32 33 26 18 13 15 18 19 20 18 17 25 31 27 25 26 28 29 26 22 18 18 18 18 15 12 11 11 11
17 15 11 10 6 9 4 3 5 12 4 6 19 17 22 27 29 35 42 40 31 31 27 21 15 14 16 20 18 17 23 37 35 45 46 49 49 44 40 35 29 24 24 25 22 20 17 17 18
21 17 13 11 7 10 2 4 6 10 6 10 17 17 22 20 28 33 39 36 29 30 29 22 21 17 19 19 19 20 29 36 35 38 41 44 43 45 44 42 40 37 34 32 32 29 26 23 22
23 20 16 16 11 12 1 7 9 17 17 18 14 16 20 20 27 29 38 33 27 29 29 22 20 21 22 21 22 25 32 31 32 34 35 37 35 35 37 39 38 34 34 31 29 26 29 27 24
30 25 22 18 12 15 2 8 7 12 19 19 19 22 16 23 22 25 35 32 24 26 27 26 25 23 24 23 25 27 31 28 28 27 28 33 35 32 31 32 33 32 26 28 27 26 26 23 22
33 29 27 23 16 17 12 4 9 11 14 22 17 18 18 16 18 25 31 34 24 23 25 27 25 24 23 23 23 26 27 28 28 24 26 31 32 33 35 33 31 30 28 24 25 25 24 22 21
36 33 31 28 24 21 18 17 11 13 19 20 16 13 8 11 15 25 29 33 24 20 21 24 25 23 22 22 22 23 20 18 23 24 21 23 28 28 31 32 30 29 29 23 21 20 21 19 22
38 35 35 32 29 26 23 22 12 16 18 21 13 6 1 10 17 20 26 30 24 17 15 18 21 24 22 19 20 15 15 15 11 17 24 27 25 24 27 28 30 31 29 28 25 23 22 21 20
39 36 39 37 34 31 28 24 16 15 11 12 14 2 3 10 17 18 23 26 27 15 11 13 15 19 23 22 18 17 15 17 16 17 15 17 20 22 24 27 31 33 33 33 30 29 27 25 24
44 39 38 39 38 36 33 26 23 14 6 12 9 11 7 8 21 17 19 21 25 14 10 8 10 14 18 20 20 17 15 17 17 16 19 19 21 21 22 26 30 33 33 32 30 31 29 28 27
46 43 43 40 42 38 35 30 23 23 10 8 14 16 14 16 19 23 16 20 20 19 8 5 5 8 12 12 14 18 15 18 19 18 19 21 21 19 22 25 28 30 31 31 30 31 31 30 29
51 49 48 45 44 41 36 35 35 29 23 21 20 19 19 17 20 16 22 17 17 20 11 3 3 4 4 10 12 15 17 18 17 15 20 21 20 19 22 23 24 27 28 31 31 30 31 31 31
55 52 49 50 49 44 41 40 36 36 33 26 25 18 22 19 14 8 15 14 17 18 14 4 1 4 2 6 11 14 15 19 19 16 17 19 20 21 20 19 23 24 26 29 30 31 32 30 30
62 58 53 51 50 46 47 42 40 36 39 31 25 23 23 19 14 10 16 12 10 17 13 8 3 6 5 5 9 13 13 14 15 13 14 18 17 18 19 16 20 23 23 25 29 31 32 31 28
66 62 56 52 50 47 47 42 37 36 37 37 28 26 24 21 21 18 16 15 10 19 14 9 6 9 9 8 10 12 12 13 12 11 13 15 14 15 14 15 18 20 22 23 26 28 32 33 35
68 67 63 60 57 52 49 47 43 40 37 37 33 30 29 25 20 14 15 11 15 20 13 11 9 12 14 11 13 14 14 12 10 11 11 12 13 14 13 14 16 19 21 22 24 26 28 32 35
65 69 70 65 61 57 52 49 46 44 43 39 36 34 31 25 22 15 12 17 16 21 13 12 11 14 16 16 14 15 16 13 9 11 8 11 11 14 13 12 13 15 17 21 26 25 24 25 30
62 69 72 69 64 63 59 55 51 46 45 43 41 35 32 26 25 16 24 18 14 18 14 13 14 16 20 20 16 17 16 14 13 12 9 11 8 11 11 11 10 10 15 19 22 21 22 21 23
65 73 72 71 66 64 62 58 57 51 50 47 44 38 35 31 29 28 27 23 22 23 18 17 16 17 24 22 20 18 18 16 14 13 10 10 8 8 7 8 8 7 10 16 18 17 19 21 20
76 74 73 68 64 63 63 59 57 57 59 57 49 43 39 37 34 38 33 26 24 25 21 20 18 19 26 26 24 21 18 17 13 12 11 9 9 7 7 5 7 5 7 11 14 16 16 20 19
80 75 75 69 66 61 58 60 59 60 61 61 55 50 45 40 41 39 36 28 21 21 24 24 20 22 23 28 27 24 22 18 14 13 13 10 8 8 5 4 5 2 4 8 12 13 16 17 18
81 81 79 75 69 65 65 58 60 61 62 62 58 53 48 47 47 44 40 33 25 19 26 21 19 24 23 29 28 28 26 24 19 16 15 14 10 9 7 4 3 1 2 5 8 11 13 14 15
81 81 80 78 75 72 70 66 64 63 62 61 55 54 54 54 54 48 43 39 33 27 26 23 18 24 21 24 31 30 30 27 24 21 17 16 14 10 6 3 3 1 2 3 4 6 11 13 12
85 83 80 81 81 78 78 73 71 68 62 56 53 54 54 55 57 54 47 40 37 38 34 27 20 24 22 22 29 33 32 31 28 24 21 18 15 12 10 6 5 3 3 3 2 4 7 11 11
89 88 86 83 81 80 81 81 76 72 65 60 54 56 54 52 49 56 50 38 38 36 37 33 27 29 26 24 26 30 33 34 32 28 26 22 18 15 13 10 10 8 6 4 3 3 4 6 9
93 90 88 88 86 83 82 83 78 76 71 66 62 59 55 49 43 44 45 39 34 41 40 36 28 28 32 30 28 29 33 33 33 33 31 27 23 20 18 15 14 11 10 5 4 4 4 5 5
100 97 92 89 89 90 87 87 81 79 75 71 67 63 60 55 50 50 46 43 46 42 37 36 32 31 32 25 28 29 30 34 34 35 33 31 28 25 22 22 19 15 13 10 7 7 6 6 6

GFSSGP_250_spd_066.txt.gz
Wind_Speed
9 9 7 6 10 11 8 0 7 12 22 28 23 26 28 33 42 42 47 39 37 29 21 14 16 20 23 22 21 20 19 17 12 9 9 10 10 7 3 1 3 7 4 3 6 5 3 3 2
13 12 8 4 5 13 4 3 6 12 20 28 22 25 28 36 40 43 47 36 36 28 22 14 17 21 22 21 22 23 21 19 19 21 20 17 13 7 1 0 5 4 7 6 7 9 8 9 8
15 13 9 3 4 15 13 11 1 6 23 16 14 31 34 37 37 43 43 35 35 30 22 16 18 21 19 20 22 25 26 26 28 30 31 32 32 29 21 16 14 15 15 15 15 14 13 11 10
16 16 11 6 5 3 8 11 12 8 8 16 12 29 36 34 33 40 43 34 34 31 22 15 16 18 17 22 26 31 38 41 40 44 45 42 37 34 29 27 21 19 19 18 17 16 15 14 15
18 15 12 11 1 12 6 4 4 10 3 10 19 29 32 31 37 35 42 31 34 31 20 19 17 16 19 23 32 38 37 38 38 39 42 42 42 42 38 34 31 28 28 29 29 29 26 25 23
19 16 15 13 12 9 8 7 7 10 8 10 20 27 30 32 29 33 43 33 32 31 24 23 21 20 24 31 33 32 30 34 36 32 38 37 39 37 35 33 33 31 29 29 28 25 24 23 24
23 19 17 16 13 13 4 3 12 18 14 17 24 26 27 24 24 31 40 37 29 31 26 22 23 22 24 28 28 28 26 27 35 36 35 34 34 34 31 29 30 29 29 28 26 23 22 19 23
26 23 21 18 15 17 4 6 2 9 14 13 20 27 23 15 21 30 36 38 25 29 28 22 22 21 24 27 27 25 24 23 29 33 34 36 34 30 30 29 28 26 25 24 23 22 22 22 23
32 27 26 22 19 18 14 10 12 9 7 10 17 18 11 14 19 26 33 38 25 26 27 25 21 20 21 21 20 20 23 25 22 26 30 34 33 32 31 28 27 23 20 19 19 20 20 20 23
36 32 30 27 22 21 22 15 10 8 7 8 19 15 11 10 17 25 30 33 30 22 24 25 20 20 19 16 15 11 15 21 24 25 26 30 31 30 32 34 32 28 25 23 23 24 22 21 22
40 39 35 31 29 26 24 19 16 14 11 8 15 16 7 6 19 22 28 30 33 21 20 21 23 18 18 13 11 10 11 14 20 21 23 27 30 31 32 35 34 32 31 30 29 29 29 26 24
41 40 39 37 35 31 29 26 21 18 13 9 11 11 4 8 18 25 26 26 31 24 17 17 18 20 19 15 15 15 13 16 17 18 20 25 27 30 32 34 34 33 33 31 30 31 30 29 27
44 45 43 41 38 35 33 29 25 18 17 10 10 8 11 11 16 23 24 23 27 27 16 12 13 16 16 15 17 15 16 15 17 20 20 22 25 27 30 32 33 32 32 33 34 34 33 33 30
45 48 46 42 40 38 36 32 27 20 18 12 8 10 13 13 17 21 16 20 22 24 17 11 9 12 13 15 16 18 16 17 17 20 19 20 23 25 28 27 30 33 33 35 34 33 33 35 33
51 51 49 43 40 39 38 33 29 25 23 11 17 17 15 16 14 9 12 18 16 21 16 10 6 8 10 7 12 15 16 16 18 21 18 18 21 22 26 26 28 30 32 35 35 31 30 34 36
55 52 52 49 44 40 39 36 30 27 26 25 25 20 17 12 11 11 13 15 15 17 16 8 5 4 7 6 7 10 14 16 17 19 18 15 16 21 24 23 25 27 29 33 35 35 34 33 35
60 59 54 52 50 45 43 39 33 33 37 32 33 28 21 14 16 17 11 18 19 15 16 10 2 1 3 2 4 8 7 10 15 18 16 14 15 17 20 22 24 25 27 29 32 35 37 36 36
65 63 59 54 52 50 47 45 41 38 36 38 37 33 25 22 15 18 15 12 12 17 18 8 5 5 4 5 4 4 4 7 12 14 12 11 14 14 18 19 22 24 25 25 28 32 35 37 36
66 64 62 59 56 52 50 48 44 42 42 37 34 31 26 23 17 18 17 9 13 19 15 11 9 9 10 8 7 6 4 6 7 8 9 10 13 14 14 15 18 21 23 24 26 28 31 34 36
69 67 66 63 61 57 53 51 48 44 41 41 37 35 30 27 21 20 19 18 11 14 15 15 9 11 13 12 11 10 10 7 4 3 8 10 12 11 11 11 16 19 19 21 23 24 26 30 33
69 72 70 66 63 62 58 55 51 48 46 41 36 35 31 29 26 25 22 21 15 17 19 20 9 14 13 17 14 12 13 10 6 7 6 8 7 9 7 8 13 16 18 19 21 23 24 25 30
69 73 72 67 63 65 63 58 55 52 48 44 42 39 36 32 28 27 26 25 20 19 21 23 14 12 14 19 18 14 12 10 9 11 7 5 3 4 4 7 9 12 14 17 17 21 22 24 26
77 73 70 70 62 60 63 61 60 58 57 52 48 46 39 33 31 31 30 22 23 20 22 20 17 12 14 19 19 18 14 13 11 10 7 5 4 2 2 5 6 8 12 14 16 18 20 22 24
81 76 71 67 65 61 60 59 59 63 60 56 55 50 42 35 32 32 33 33 30 23 22 21 17 11 14 19 23 23 19 16 13 12 11 6 6 3 2 3 2 5 8 11 15 15 17 19 20
83 81 77 73 68 64 63 63 63 60 58 59 56 54 48 42 39 38 39 34 30 27 24 21 14 15 15 18 23 25 23 20 16 13 12 9 9 7 4 1 1 3 5 7 10 13 15 15 15
87 85 82 78 74 70 69 65 64 62 61 59 57 55 55 51 46 43 45 38 34 33 30 26 17 15 17 20 22 27 26 25 21 17 13 12 10 8 7 3 3 3 4 4 6 9 12 13 11
90 87 86 84 80 77 73 68 66 63 61 59 57 58 55 54 52 49 46 42 39 39 33 28 28 20 20 22 24 28 30 29 24 22 19 14 13 12 9 7 5 5 4 5 4 7 7 9 10
90 90 89 86 83 80 77 73 67 66 65 62 59 57 54 52 51 50 50 46 42 41 39 34 34 29 25 28 25 27 31 30 30 26 24 21 18 15 13 11 8 8 5 4 4 3 4 6 6
92 91 90 89 85 82 81 79 73 70 69 66 63 60 57 54 51 51 50 47 45 41 42 35 36 29 26 30 29 26 30 31 32 31 28 27 24 21 18 16 13 10 7 6 7 6 6 7 8
95 94 92 90 88 85 83 80 77 73 72 71 69 65 61 55 49 47 46 46 42 43 39 38 36 32 29 31 29 29 28 32 32 32 33 33 30 27 24 20 17 13 10 8 10 8 8 7 9

GFSSGP_250_spd_069.txt.gz
Wind_Speed
10 9 6 11 9 8 6 3 3 6 21 20 23 30 38 44 49 46 37 38 31 23 15 18 18 21 24 22 19 19 18 15 12 10 6 3 2 4 4 5 5 8 6 5 3 4 3 4 4
12 11 8 11 10 9 5 3 8 6 20 12 18 27 40 46 45 43 34 39 29 22 16 19 20 23 24 24 27 33 36 36 33 31 31 27 21 14 9 8 6 5 11 13 13 13 13 10 8
15 13 10 9 14 7 6 7 9 6 12 8 20 28 36 42 38 40 33 38 29 23 17 18 19 24 26 33 37 38 40 42 43 44 39 38 37 32 25 18 15 14 16 15 14 14 13 11 7
19 16 10 9 10 7 4 8 7 4 4 11 17 28 36 32 35 40 33 36 30 23 16 18 19 26 35 33 36 34 37 38 39 43 44 42 40 35 29 24 21 18 17 18 22 24 20 17 14
21 17 13 10 12 8 2 5 8 11 2 9 16 32 34 28 32 39 34 34 32 23 22 21 22 29 31 32 36 34 30 36 35 36 39 39 38 36 33 30 29 28 26 23 24 24 24 23 20
23 19 16 11 13 8 4 3 6 13 7 12 20 27 30 24 31 37 36 30 34 24 24 23 24 26 27 25 30 34 32 31 31 33 35 32 32 32 30 28 27 27 25 22 22 20 19 22 21
23 20 19 14 15 8 2 2 4 7 11 14 19 22 20 22 28 35 39 30 33 27 24 21 22 24 24 23 24 25 30 31 31 29 31 30 27 26 24 23 23 22 21 19 19 18 16 18 21
24 22 21 19 18 12 6 5 4 8 10 11 13 24 20 20 26 32 36 32 29 31 25 21 20 19 21 22 22 21 25 26 31 30 30 30 27 24 23 19 18 16 15 13 13 15 16 19 24
29 26 23 22 21 15 9 7 11 11 12 9 11 20 23 17 24 30 33 35 25 28 28 23 18 18 15 14 17 20 23 25 29 27 27 30 33 31 29 28 27 26 26 24 23 19 16 19 24
36 30 29 26 24 22 17 12 12 10 6 3 6 13 15 14 22 27 30 32 27 24 27 25 22 14 13 12 15 15 18 23 25 25 27 29 34 32 30 31 30 30 28 28 27 24 20 22 25
40 37 33 30 28 24 24 19 18 10 10 9 6 10 9 15 16 26 25 29 31 22 23 23 25 18 12 12 13 16 15 19 21 23 24 27 31 34 32 32 31 32 32 31 29 27 22 21 26
44 40 39 36 32 30 25 28 20 13 11 14 8 5 8 17 18 23 21 25 28 26 18 18 22 19 15 14 15 16 17 18 20 22 23 25 28 31 32 33 33 33 33 33 33 33 26 20 23
48 47 44 40 36 33 31 29 25 18 16 13 12 9 7 12 16 19 18 20 27 26 21 15 17 17 16 14 15 16 16 17 20 20 21 22 26 28 30 32 34 35 32 31 32 34 32 24 20
53 52 47 43 40 36 34 32 29 23 17 18 16 7 5 9 13 11 13 17 22 24 22 16 13 14 13 11 12 15 16 17 18 19 21 22 24 27 27 29 32 34 35 34 34 34 33 31 23
55 55 48 45 41 39 37 35 31 26 21 20 20 16 7 7 7 8 13 15 21 21 21 17 10 12 11 9 8 11 16 17 17 18 20 21 22 26 27 28 30 33 35 37 37 35 35 33 30
57 58 53 49 45 42 39 36 33 30 26 25 21 19 16 11 9 11 14 14 17 18 23 17 10 7 9 9 6 8 11 13 15 18 19 18 20 25 26 28 28 30 32 35 37 35 35 35 34
60 59 57 52 49 44 41 39 33 31 31 29 27 21 14 14 14 11 12 14 11 16 20 16 11 4 6 5 4 6 8 12 12 14 17 16 19 21 24 26 29 30 30 33 35 35 35 35 35
66 63 59 57 53 49 44 41 34 35 33 32 28 22 22 23 23 16 14 12 9 12 16 16 11 5 0 3 2 3 6 8 9 11 13 14 15 19 20 24 26 29 29 30 33 34 36 37 35
69 67 61 57 55 52 47 46 43 40 39 36 32 32 30 28 27 18 14 13 14 9 10 18 14 8 6 2 1 2 4 6 7 8 9 11 12 16 18 21 23 25 27 28 29 31 33 36 37
73 71 67 61 58 54 50 48 47 45 42 40 37 34 33 28 27 21 16 16 14 9 9 14 17 9 8 7 4 3 2 3 5 4 5 7 10 13 15 18 21 22 23 26 26 28 30 33 34
73 75 71 67 64 59 56 53 49 48 46 44 42 38 34 29 28 24 21 17 17 16 12 13 16 14 8 10 9 7 4 5 5 3 0 6 7 12 14 14 17 19 19 22 24 26 27 29 31
74 78 74 69 66 64 61 59 57 54 51 48 44 42 39 31 27 28 26 21 22 20 18 11 14 16 11 10 13 11 3 4 6 4 2 6 5 8 10 12 15 15 17 18 21 23 24 26 28
76 76 75 70 67 67 65 64 63 62 58 53 49 45 42 37 29 30 28 25 23 22 17 12 11 15 14 11 13 14 9 6 6 4 4 8 3 4 4 7 9 12 14 17 19 19 21 23 25
77 73 71 68 65 69 68 68 68 64 61 56 52 47 43 35 30 30 31 29 26 26 21 19 10 11 11 11 14 15 14 9 8 8 7 7 7 0 3 6 7 10 10 12 15 16 17 21 22
81 76 72 68 64 64 66 69 69 67 65 62 58 54 50 44 37 33 34 33 31 26 26 23 14 13 10 14 14 16 17 14 10 9 9 9 10 2 2 3 4 6 7 8 11 13 14 17 18
87 83 79 73 67 67 67 66 65 67 65 64 61 60 57 51 44 39 39 35 33 29 29 23 18 18 15 13 17 16 19 18 16 14 11 10 10 8 2 1 2 4 6 6 8 9 11 12 13
90 86 84 79 75 73 69 69 69 65 64 61 58 59 59 56 51 45 44 40 38 35 34 29 24 22 19 17 17 19 21 21 20 19 17 15 11 11 7 4 3 3 5 5 5 5 7 9 9
91 91 89 85 81 77 73 72 69 66 64 61 59 58 58 56 53 49 48 46 44 40 37 34 32 27 23 21 22 22 22 24 24 24 22 21 17 14 11 7 4 4 2 4 4 4 3 5 6
94 91 91 89 85 83 79 76 73 71 67 64 62 60 58 56 54 51 50 47 47 45 44 40 37 32 27 21 21 21 24 26 27 26 27 25 23 20 15 12 8 7 4 1 2 3 3 4 5
96 94 92 91 89 86 84 81 78 77 73 70 67 65 62 57 54 50 49 47 48 45 43 44 42 38 31 27 23 20 26 27 29 29 29 30 26 25 21 18 14 10 9 7 6 6 7 6 5

GFSSGP_250_spd_072.txt.gz
Wind_Speed
10 9 14 11 9 7 8 4 4 10 15 14 23 34 36 39 41 34 36 26 22 19 20 19 20 26 32 35 34 30 25 22 17 11 7 4 5 5 6 6 8 6 6 2 1 2 3 7 9
11 9 16 14 11 4 7 8 4 10 13 21 22 33 41 37 40 34 37 28 23 20 20 22 27 33 36 36 36 40 36 35 35 31 24 18 13 8 6 6 6 10 11 12 12 12 10 8 6
14 11 15 16 8 4 6 8 7 11 14 16 22 32 32 36 40 33 36 30 26 20 20 26 31 32 31 31 32 36 38 41 40 37 35 32 26 21 18 16 14 14 15 15 15 14 10 7 2
18 14 12 16 5 1 4 7 1 11 14 17 24 33 31 35 40 32 36 33 27 23 21 27 29 34 35 29 32 33 34 35 35 36 35 34 32 29 26 23 21 21 23 22 20 16 13 8 6
21 18 14 13 9 5 4 7 2 4 4 14 25 29 25 32 37 35 32 37 30 25 24 25 26 30 32 33 30 30 32 31 31 32 31 29 28 29 27 24 22 22 20 17 16 16 14 14 13
25 21 15 11 12 7 3 10 18 8 4 18 22 28 23 31 35 36 29 36 32 26 21 22 24 26 29 31 30 31 29 29 28 26 25 24 24 24 22 20 19 17 16 15 14 14 14 14 18
27 23 18 15 13 8 5 4 6 4 8 13 17 22 23 28 35 34 29 32 34 27 22 20 24 25 26 27 27 28 28 28 31 28 23 19 18 16 15 13 13 13 13 11 10 12 16 19 20
29 26 21 19 16 8 6 3 8 7 9 14 10 18 22 24 31 31 31 28 34 29 23 19 18 22 22 24 25 24 27 25 27 29 27 26 26 24 22 20 18 13 9 8 6 11 18 25 25
31 27 25 23 19 12 12 2 9 7 12 14 11 14 20 24 28 27 30 25 29 29 27 19 17 16 18 20 20 21 22 24 27 29 30 28 27 27 25 22 21 20 18 14 10 14 16 20 29
32 29 28 27 24 19 17 7 7 7 4 3 8 12 15 21 25 24 29 27 26 26 28 22 15 14 15 17 16 18 18 22 24 28 30 31 29 27 27 26 25 24 22 19 14 15 18 18 26
38 34 32 31 28 25 21 19 7 4 5 7 10 10 11 19 20 19 25 29 25 24 24 26 20 16 14 13 16 18 17 21 23 26 30 30 31 31 28 26 26 27 26 24 17 15 18 20 26
44 41 37 34 32 31 27 20 19 15 12 9 12 11 11 13 16 16 20 25 27 24 20 23 20 17 14 14 16 17 18 21 22 25 28 28 30 32 33 31 26 26 27 27 22 15 17 21 24
50 46 42 37 36 34 31 23 20 18 16 10 10 10 7 10 13 15 18 22 24 23 20 17 18 19 15 15 14 17 19 22 23 24 26 28 29 33 32 34 33 31 30 29 27 21 17 19 22
55 52 47 44 40 36 32 29 28 26 21 14 11 12 5 8 9 12 16 20 21 22 22 14 15 16 14 14 13 15 19 21 22 24 26 27 29 33 31 31 34 35 33 33 32 28 21 18 20
57 56 51 48 44 40 35 32 28 28 25 20 16 16 13 3 8 12 13 16 16 20 22 14 11 14 13 11 11 13 16 22 23 23 25 27 26 31 30 30 33 34 35 32 33 32 27 18 18
58 59 55 51 48 44 41 35 32 31 30 24 20 18 16 14 4 8 11 12 13 18 20 15 10 9 11 10 9 13 13 17 22 21 23 25 25 26 29 31 32 33 35 35 35 34 32 27 16
63 60 59 56 52 49 45 42 38 34 32 29 22 21 20 16 8 8 11 14 10 13 15 17 14 7 6 7 7 10 11 14 20 19 20 23 24 23 26 29 30 31 32 34 35 35 36 34 27
67 63 61 58 55 52 48 45 43 38 32 31 30 28 23 21 14 14 16 13 8 9 11 17 16 12 3 3 5 6 8 11 16 16 16 20 20 21 23 24 27 28 29 32 34 33 34 35 34
73 68 62 60 57 53 49 48 46 42 38 33 33 28 24 25 20 18 16 12 10 4 7 14 16 15 6 1 5 4 4 7 12 12 14 16 18 17 21 22 22 26 27 29 31 32 33 35 37
75 73 66 62 59 54 50 49 48 46 41 36 34 30 29 28 26 23 21 16 14 8 6 9 13 14 11 4 5 6 3 1 7 7 10 12 15 14 18 21 22 23 25 26 28 30 31 34 36
77 78 72 66 62 58 54 52 50 51 46 41 38 36 32 32 28 24 23 21 16 14 11 7 9 10 11 10 5 6 5 1 1 4 4 9 10 12 14 18 20 21 23 23 26 28 29 30 32
72 79 77 71 68 65 61 57 53 52 50 45 42 39 36 33 31 25 25 23 22 20 15 9 7 9 10 9 8 6 6 5 3 1 4 4 5 7 11 12 16 18 20 21 22 25 27 28 31
71 73 79 76 73 69 68 64 58 55 51 47 44 41 39 34 35 29 25 26 26 22 19 13 9 9 10 7 8 8 8 6 5 3 3 2 4 5 8 9 12 14 16 19 19 21 23 25 28
73 69 71 76 78 76 73 70 66 61 57 52 49 45 42 39 37 34 30 31 30 24 22 18 12 10 9 8 7 10 10 10 8 6 5 1 2 4 7 7 9 11 12 15 17 17 19 22 24
77 74 71 72 74 75 78 76 68 66 63 58 56 53 49 46 42 38 35 33 34 28 25 22 16 10 10 11 8 9 13 14 10 8 8 4 3 2 5 3 5 7 6 10 13 14 14 15 18
82 81 78 73 71 72 72 77 70 69 66 64 61 60 56 52 47 43 42 36 37 32 26 25 18 13 13 11 8 7 12 15 13 13 11 8 5 3 3 2 4 5 6 7 9 10 10 10 12
86 83 84 78 73 75 77 75 68 69 67 66 65 63 61 57 53 48 46 42 38 35 30 28 24 20 15 16 14 10 12 14 16 16 15 12 8 5 4 3 2 2 4 4 5 5 7 6 7
91 89 86 85 79 78 75 73 71 67 66 65 64 65 64 61 57 55 51 48 45 40 34 33 31 29 24 22 20 15 12 15 19 20 19 17 13 10 7 5 4 3 0 2 2 4 4 4 4
96 91 89 90 86 84 78 76 70 70 67 65 65 66 66 62 57 54 51 51 48 45 41 40 37 36 32 26 24 19 14 16 20 22 23 22 18 15 12 9 8 4 4 3 1 1 3 4 4
102 96 91 89 90 90 83 77 76 74 72 69 66 64 64 64 61 54 53 49 46 45 46 46 44 42 38 34 29 24 21 20 21 24 25 26 22 20 18 16 13 10 6 6 5 4 3 4 3

GFSSGP_250_spd_075.txt.gz
Wind_Speed
12 14 15 13 10 8 5 5 7 10 16 27 27 33 36 38 33 31 25 20 20 23 26 29 29 30 35 34 33 32 30 25 21 15 8 7 8 6 6 8 4 3 1 3 4 4 4 5 6
13 12 9 14 4 3 6 6 7 5 10 18 27 32 36 37 34 32 27 22 24 26 27 26 26 27 30 33 35 35 33 34 32 28 23 15 10 7 6 5 3 6 8 8 8 8 7 6 4
11 14 15 10 3 6 6 11 4 8 10 23 27 30 35 38 34 32 29 25 25 27 29 32 28 28 28 30 31 31 32 32 31 30 28 22 16 15 15 12 12 12 12 11 8 6 3 2 6
11 19 15 11 2 5 12 6 8 9 11 21 23 28 35 41 34 31 28 25 24 23 26 29 32 29 27 29 29 29 29 27 28 28 26 24 23 24 21 19 19 18 16 12 10 10 9 7 10
16 17 18 11 7 4 6 12 5 6 5 14 22 26 33 36 33 31 28 25 23 21 23 29 31 29 31 29 28 25 25 22 22 23 23 23 22 20 19 17 15 12 11 10 11 8 9 12 13
20 19 15 11 11 6 3 10 11 6 3 16 18 28 27 32 31 28 30 25 22 22 22 25 26 27 27 28 26 24 28 26 23 22 20 18 17 15 13 11 9 10 10 8 6 10 16 21 13
26 25 19 16 10 11 6 3 2 6 6 11 16 22 26 29 31 27 26 28 25 19 20 21 22 23 23 26 23 24 28 29 27 26 25 24 22 20 16 11 8 8 7 6 8 11 18 22 14
32 27 21 21 14 10 2 9 10 7 7 12 14 17 21 27 28 31 26 27 25 22 18 16 18 21 23 21 24 24 30 31 29 26 26 24 22 21 19 16 13 11 9 7 6 9 18 21 18
35 30 24 25 19 19 5 4 6 8 11 10 10 14 20 23 23 29 30 24 27 22 18 17 18 23 20 20 23 24 25 29 30 30 28 24 23 22 19 19 17 15 14 9 9 11 17 19 19
38 33 28 28 24 18 13 2 8 8 6 5 10 15 16 20 20 26 29 27 24 25 23 20 20 21 20 20 24 24 25 27 31 32 32 28 23 22 22 23 21 18 15 10 10 11 16 21 21
41 34 33 33 29 24 22 9 5 7 3 7 8 13 15 15 15 21 26 27 24 22 24 23 20 19 20 20 23 24 24 26 29 31 33 31 32 30 25 23 23 22 19 11 8 12 17 23 22
42 40 36 37 35 32 28 23 16 5 7 13 9 10 12 11 14 19 25 25 26 22 21 22 20 19 19 20 21 22 24 26 29 30 32 31 31 34 32 29 28 26 24 16 9 13 19 23 23
46 45 40 41 38 34 31 28 27 18 11 13 11 7 6 9 12 16 21 24 26 22 19 17 18 18 19 20 20 20 23 26 28 29 31 32 31 32 33 33 30 30 29 24 13 13 17 21 24
53 50 46 44 42 40 34 34 26 21 21 17 12 9 6 9 10 16 18 21 25 23 17 15 15 16 16 19 19 20 21 24 26 27 27 32 33 32 34 33 33 32 32 29 21 12 16 18 22
59 56 51 49 45 44 38 31 26 25 24 24 18 15 10 12 11 11 15 18 19 22 18 13 11 12 14 16 17 16 20 22 25 25 26 28 31 32 32 32 33 34 34 33 29 18 12 15 18
64 60 57 51 48 43 41 33 31 33 30 29 24 20 13 13 14 9 11 17 14 17 20 15 10 8 10 13 14 15 18 19 21 23 24 26 27 29 30 31 31 33 33 34 35 30 17 11 14
65 64 62 58 51 47 44 37 37 36 34 31 27 26 18 16 15 10 8 14 10 11 16 18 13 8 6 9 10 12 16 18 18 19 21 23 26 26 28 29 30 31 33 35 35 35 32 14 12
69 67 65 62 58 53 48 31 48 40 34 32 29 29 22 19 19 14 12 12 11 7 10 15 13 9 6 4 5 6 12 15 16 18 19 21 23 25 24 26 28 30 30 33 35 36 36 29 13
68 67 65 62 58 56 55 55 52 47 42 38 31 24 29 24 21 20 17 11 14 8 9 10 13 9 6 4 2 2 5 10 13 15 16 18 20 23 23 24 26 28 28 31 32 34 37 37 24
73 71 69 64 61 57 57 56 54 50 46 41 36 31 29 26 21 22 20 15 16 12 10 7 10 11 4 4 4 5 4 4 8 9 12 14 18 20 20 22 23 25 26 29 32 33 34 36 36
71 74 71 70 66 61 56 55 56 54 49 44 40 35 31 28 23 24 22 19 16 18 14 10 9 9 10 2 5 6 5 4 3 5 8 11 14 14 16 18 20 21 23 26 29 30 33 33 36
65 77 74 71 68 67 63 58 54 56 50 46 42 38 36 32 27 28 29 22 17 19 17 12 9 7 12 6 3 5 4 5 1 1 3 8 9 13 12 14 16 18 20 23 25 27 30 32 32
69 72 77 69 74 71 67 63 55 58 54 48 44 40 39 36 32 27 30 26 22 19 18 14 11 8 7 11 2 4 8 7 4 2 2 3 7 11 10 11 12 14 17 19 21 23 25 29 30
74 67 70 70 72 73 71 70 66 63 54 50 46 44 43 39 38 32 31 31 27 23 20 17 14 8 5 8 8 3 10 10 7 5 3 1 3 6 8 8 8 10 12 15 16 18 20 23 25
72 72 72 71 72 72 74 75 71 65 62 56 52 49 45 41 41 36 32 32 29 26 24 20 19 13 8 5 6 5 7 10 11 8 6 2 1 3 6 5 5 6 8 10 12 13 15 17 19
78 78 75 72 72 73 73 81 71 70 67 62 60 56 49 47 43 40 37 34 32 30 27 23 21 18 13 10 7 4 5 8 11 13 9 6 4 2 3 4 3 6 6 6 8 10 11 12 13
83 80 79 82 77 78 81 72 74 72 72 70 66 62 57 53 48 45 43 40 37 35 32 28 24 22 19 15 13 10 7 7 13 15 14 11 8 5 3 3 2 2 5 4 3 6 8 8 8
87 85 86 81 81 78 79 71 79 71 75 74 71 68 61 53 49 48 45 45 43 41 38 34 31 27 25 24 21 17 15 13 13 17 17 17 13 9 7 5 3 4 1 3 3 4 4 6 5
94 91 90 87 86 85 84 82 70 65 71 75 76 74 68 62 55 52 48 48 45 44 43 38 35 35 34 31 27 24 20 17 16 18 20 21 19 17 14 9 7 5 4 2 1 1 3 4 5
93 94 93 90 88 88 90 91 76 73 71 72 75 75 73 68 62 46 49 43 42 44 40 45 44 44 41 38 35 30 26 24 22 19 21 24 24 23 21 16 13 11 9 6 5 3 3 3 5

GFSSGP_250_spd_078.txt.gz
Wind_Speed
14 16 12 12 11 14 15 4 9 16 16 23 33 36 40 33 30 21 20 25 26 23 23 23 23 27 27 26 28 27 26 22 17 10 7 6 5 4 4 5 3 0 2 5 5 7 9 9 9
13 17 14 8 4 3 22 11 15 8 9 27 34 36 38 32 29 21 23 27 28 26 24 25 25 25 27 29 30 29 29 28 27 24 18 11 7 5 4 4 5 3 3 4 6 5 8 8 8
12 11 15 10 8 5 13 6 4 1 8 23 31 33 35 31 30 20 22 24 25 28 26 27 25 26 27 28 30 29 27 26 24 26 22 16 12 12 11 9 7 7 6 5 3 0 3 10 11
10 21 15 10 8 9 13 14 5 1 8 19 25 30 35 30 29 20 18 18 23 28 28 26 27 26 28 31 32 29 26 24 24 23 21 22 20 17 16 15 11 10 8 6 2 4 6 9 13
11 20 17 5 4 5 6 6 19 1 6 19 24 27 30 29 28 22 16 17 20 24 27 28 28 27 27 27 30 29 28 25 24 21 17 18 17 14 12 9 7 6 5 3 5 6 9 16 19
17 17 12 9 11 5 4 6 13 4 6 17 19 23 26 33 31 26 18 16 18 22 23 26 25 26 28 29 30 29 29 26 26 26 24 21 15 11 8 7 7 8 8 7 8 11 16 24 14
22 22 14 12 12 9 9 9 15 14 11 14 13 20 25 29 33 28 22 15 14 17 20 23 24 24 25 25 28 29 31 29 26 26 26 22 20 20 18 16 14 14 12 10 11 15 23 21 13
28 25 19 16 12 12 5 10 5 5 8 11 11 18 23 25 29 29 25 19 18 18 20 22 25 24 24 24 26 28 30 32 29 28 28 26 22 20 19 18 16 14 12 11 13 20 26 17 12
32 26 24 21 18 15 8 2 6 5 9 10 12 17 21 19 26 28 27 25 22 20 19 21 22 23 21 24 27 28 30 31 34 32 30 24 22 22 21 21 19 16 12 11 17 22 20 18 21
26 31 29 24 22 21 9 8 2 5 6 7 12 15 18 17 23 28 27 27 23 24 21 22 20 21 23 24 28 29 30 31 32 33 28 30 29 26 26 25 26 22 17 18 20 24 18 16 22
33 35 35 31 27 24 14 8 8 10 6 11 8 12 14 17 21 26 26 26 24 21 21 23 21 22 23 24 27 28 29 31 30 30 29 31 33 30 29 30 33 21 20 21 20 24 19 16 21
46 43 40 33 32 29 23 16 15 9 5 7 7 10 12 13 22 21 26 25 24 21 19 21 22 22 23 24 26 26 27 29 32 30 31 32 33 34 32 33 33 25 15 7 14 20 21 18 20
44 42 44 36 38 35 29 24 20 14 11 6 7 11 9 10 17 22 22 24 23 22 20 17 19 22 23 25 25 25 26 26 28 32 32 32 33 34 34 34 35 25 14 6 12 18 24 21 19
54 47 48 44 42 39 37 32 26 18 15 18 13 13 9 10 13 16 19 19 22 21 20 18 17 19 20 22 24 24 25 26 27 28 32 34 32 33 35 34 35 34 27 17 10 17 24 22 21
58 54 51 46 45 44 39 32 31 28 25 21 20 15 12 11 12 14 15 15 18 23 23 18 17 15 16 20 22 23 23 25 25 28 30 16 30 33 31 33 34 34 34 29 17 12 18 23 22
62 56 50 50 46 47 40 29 32 31 28 25 22 22 20 17 12 11 14 16 13 17 21 20 16 14 13 16 19 22 21 21 23 25 28 27 27 29 29 29 33 35 35 35 27 13 11 19 23
64 61 55 53 49 47 44 30 31 33 30 29 25 26 22 19 16 12 13 13 16 16 18 18 17 14 13 13 14 19 18 19 20 21 25 24 26 27 29 30 29 32 33 35 34 22 11 13 19
70 66 61 57 55 49 44 39 16 31 38 33 31 30 24 21 19 15 15 16 16 18 16 16 16 14 12 11 10 12 15 16 17 20 12 23 24 26 27 28 29 30 31 32 34 33 15 14 14
72 69 66 63 57 56 51 50 41 34 38 36 32 32 27 24 21 16 16 15 14 16 16 12 16 16 11 10 9 8 11 13 14 16 17 18 21 23 25 25 27 30 30 31 32 34 26 16 13
73 69 68 64 62 62 58 59 59 45 38 43 38 32 29 21 24 19 17 14 11 13 16 14 12 14 15 8 7 8 9 9 12 11 12 15 18 19 22 23 24 27 28 30 32 34 34 18 19
60 71 71 69 62 67 66 61 57 49 39 34 38 37 36 30 28 21 19 14 13 15 11 15 12 10 16 12 6 6 6 7 3 5 10 10 17 16 19 20 21 24 28 29 31 33 34 30 21
62 67 71 73 68 70 65 67 63 60 56 54 42 42 39 35 30 24 21 17 15 14 15 13 12 9 10 16 8 2 2 5 7 7 8 10 14 13 16 18 19 20 23 25 28 31 32 32 28
66 67 71 71 71 68 68 68 62 59 54 52 49 50 46 38 34 26 23 20 19 16 16 15 13 10 6 10 12 5 2 4 6 9 6 7 9 11 14 15 15 17 19 20 22 25 28 30 29
74 68 67 70 66 72 69 68 63 59 52 44 45 48 45 44 39 33 28 25 21 18 17 16 15 15 8 4 9 8 3 4 11 7 5 4 5 7 7 12 10 12 14 15 17 19 22 25 25
75 73 69 67 64 69 70 71 66 60 52 50 54 56 55 39 31 30 30 29 23 22 20 18 15 16 12 9 7 7 5 4 7 5 4 4 2 2 5 5 9 9 10 12 13 14 16 18 19
78 76 72 69 67 69 73 74 69 61 57 63 38 42 51 55 47 40 38 29 27 24 24 21 17 17 16 14 12 7 5 4 5 13 11 7 4 2 2 2 4 7 7 8 10 11 12 12 13
80 78 75 74 75 76 81 76 71 65 70 77 53 44 38 39 38 38 40 36 30 30 28 26 22 19 19 18 17 12 11 9 10 12 12 10 7 3 1 4 2 2 5 5 6 7 8 10 11
83 80 82 79 79 76 81 73 78 75 80 80 81 73 64 56 43 37 45 41 39 43 38 33 27 25 23 23 21 20 16 15 14 15 16 11 7 5 5 6 8 3 1 3 4 5 5 6 8
85 85 80 83 84 80 84 83 76 74 76 81 78 73 68 63 55 46 42 41 39 40 33 33 31 30 28 27 25 24 22 21 19 19 22 16 10 15 20 23 15 7 5 2 2 3 3 2 4
81 86 88 90 85 81 88 90 79 71 78 83 81 76 69 66 62 58 44 28 29 32 38 42 32 26 30 32 32 30 30 27 23 22 23 24 16 18 21 21 19 11 10 7 7 6 4 2 1

GFSSGP_250_spd_081.txt.gz
Wind_Speed
15 18 15 10 12 12 10 12 16 21 15 27 33 40 38 31 18 19 22 23 25 27 25 25 25 28 28 28 26 23 19 13 9 7 14 13 12 10 9 8 7 11 13 12 14 14 14 14 14
21 15 15 9 5 24 14 9 15 12 6 24 28 36 37 29 16 18 21 24 25 28 27 27 29 30 32 33 30 28 25 23 19 15 10 9 9 7 5 6 5 4 3 4 7 7 6 9 9
22 18 13 11 14 12 15 18 10 1 11 17 31 34 37 29 17 16 18 25 26 26 27 27 28 29 32 32 31 31 27 24 23 20 15 10 7 7 5 4 3 2 3 2 1 3 4 6 9
19 13 17 11 8 15 20 10 4 1 9 23 26 30 35 33 23 15 16 22 25 26 28 27 29 30 31 33 32 32 32 27 22 19 16 15 12 9 9 6 5 4 3 2 5 7 8 7 9
14 21 18 4 5 7 4 3 3 9 14 20 23 30 30 34 27 16 14 18 21 25 27 26 27 30 32 34 34 32 32 31 28 26 21 15 11 8 6 5 6 7 7 8 11 11 15 18 23
12 25 11 4 5 6 7 9 5 11 14 17 19 27 26 34 29 24 15 18 21 25 26 26 27 29 32 32 34 33 32 34 32 31 26 22 20 17 14 12 11 10 9 10 12 15 19 22 17
18 19 12 6 6 9 6 2 12 12 15 17 18 24 25 32 30 28 21 19 21 25 26 26 28 30 32 31 30 34 33 34 35 32 29 26 24 22 19 17 14 12 11 11 15 21 25 21 11
23 23 16 11 7 11 5 3 8 11 10 18 18 22 23 28 29 28 26 22 22 25 27 27 28 30 31 31 30 32 30 29 28 32 28 26 26 24 21 19 17 16 16 19 24 22 20 15 11
22 20 19 17 13 14 11 6 5 3 9 14 15 17 24 25 29 29 27 25 22 24 25 26 28 30 30 30 31 31 30 24 20 26 28 28 29 28 25 22 23 20 21 27 26 24 23 18 26
17 22 18 20 18 14 12 10 5 2 8 11 12 18 23 28 29 30 31 27 25 23 24 27 27 28 28 28 31 29 28 25 30 30 32 31 32 35 32 26 23 21 24 29 29 27 22 20 26
29 20 31 26 24 19 17 12 7 5 0 6 6 12 16 25 29 28 30 29 24 24 24 25 26 27 27 26 26 30 32 31 32 34 34 32 23 32 35 24 20 20 21 25 25 18 18 21 27
42 15 35 31 29 27 17 18 13 10 8 1 4 8 13 18 23 26 27 31 27 24 23 23 24 26 25 25 26 26 30 29 33 38 36 36 31 30 35 28 26 20 17 20 25 21 20 19 24
41 29 23 33 34 31 25 18 21 18 12 5 5 10 11 14 19 25 24 28 32 29 23 22 21 21 23 24 26 28 27 28 23 29 31 29 35 33 32 31 27 23 18 18 26 22 19 19 20
49 49 30 39 35 35 29 21 22 20 17 13 13 10 10 10 15 20 22 22 29 30 27 20 19 19 20 22 23 28 26 31 28 24 26 30 32 32 35 33 34 32 23 20 21 25 20 17 18
40 49 47 43 39 36 31 28 24 25 24 19 15 12 12 9 12 14 17 23 25 29 28 24 19 17 15 20 21 24 23 25 28 28 27 30 31 29 32 33 36 35 30 18 17 21 21 20 19
61 54 53 39 48 39 37 32 25 28 28 25 20 18 17 11 9 12 13 16 24 27 27 23 20 16 15 17 20 21 22 22 25 27 27 27 29 28 30 31 34 33 32 24 13 16 23 23 21
62 59 55 47 46 44 41 34 14 26 32 30 25 23 19 15 13 11 12 15 17 21 24 22 22 17 14 14 17 17 20 22 19 20 24 26 26 27 30 31 34 34 34 33 16 15 19 23 29
67 64 61 59 47 53 46 45 39 25 34 34 31 25 23 16 11 10 12 11 14 16 20 18 22 23 16 14 15 16 18 18 19 19 19 22 23 25 30 30 34 32 34 36 25 12 17 20 23
72 68 63 67 54 49 47 50 49 43 30 30 36 28 24 18 16 10 8 8 11 12 15 18 18 21 23 14 12 14 13 15 18 17 20 16 21 23 24 30 30 33 34 36 33 14 15 17 20
74 72 68 66 63 54 49 54 54 39 32 28 26 29 25 20 19 12 9 9 9 9 11 13 16 15 21 17 10 11 13 13 14 16 15 19 14 19 21 22 28 32 34 34 36 21 16 19 18
65 72 72 69 68 62 57 56 55 46 38 28 26 25 27 27 21 16 10 10 10 8 8 12 13 14 16 20 10 7 8 9 12 9 13 17 15 16 18 20 24 26 31 35 36 32 17 18 18
64 65 75 74 70 71 68 65 58 54 57 48 41 31 29 27 28 22 16 11 11 8 9 11 11 11 12 16 11 9 7 8 12 12 9 14 14 16 15 17 20 24 26 29 32 34 26 15 14
65 69 72 74 77 76 71 65 63 62 53 49 41 38 29 26 29 25 22 17 14 9 7 9 10 9 8 11 13 12 7 4 6 11 10 11 10 10 12 14 15 20 21 24 27 29 30 27 23
72 76 70 68 76 75 76 72 67 63 59 45 41 40 45 43 44 34 30 24 17 12 9 10 10 11 7 6 12 11 7 1 8 5 2 9 8 8 7 9 11 14 17 18 21 23 24 24 23
76 74 71 68 63 68 78 81 71 66 61 56 53 39 34 33 36 45 30 28 24 16 12 12 9 10 8 6 10 11 8 3 7 7 4 7 6 6 6 6 7 9 12 13 16 17 19 18 19
77 75 75 72 67 66 74 81 78 67 63 61 59 49 43 40 31 34 33 20 20 19 17 16 13 11 8 7 9 11 11 8 6 8 8 6 6 8 7 4 4 4 7 7 8 11 13 13 13
80 78 77 76 77 74 76 79 78 71 67 64 57 56 50 46 36 34 40 37 27 20 20 21 19 16 14 12 11 13 14 12 11 8 11 11 12 8 7 6 6 2 2 3 4 5 8 9 9
82 81 82 78 78 78 74 73 77 77 71 73 61 62 61 49 30 29 37 37 37 31 26 24 23 20 21 21 18 16 17 16 13 14 13 11 12 13 7 9 8 7 3 2 3 3 2 4 5
82 81 79 79 78 78 80 73 69 67 60 65 66 66 65 62 46 43 33 29 28 27 28 26 25 27 28 25 22 21 21 20 17 17 16 14 14 16 12 11 10 14 12 6 5 5 5 4 3
76 79 84 81 79 85 86 78 71 64 72 71 72 68 71 64 53 54 36 30 26 23 31 32 31 29 34 31 29 26 24 26 23 22 20 19 17 16 20 20 20 14 15 13 12 10 9 8 6

GFSSGP_250_spd_084.txt.gz
Wind_Speed
13 12 6 6 13 13 16 9 19 14 19 27 34 41 38 28 22 27 22 24 28 26 27 29 31 31 28 24 22 21 17 10 1 14 22 22 24 26 27 24 19 17 18 17 17 18 18 19 19
16 16 10 7 20 3 11 13 13 18 18 27 36 38 38 28 20 20 25 25 26 27 29 30 31 33 30 29 27 25 23 18 15 11 4 8 10 12 12 12 13 12 11 9 9 8 9 12 14
19 14 10 7 12 6 12 14 7 7 16 23 33 34 37 29 18 19 22 24 24 27 29 32 33 33 32 32 30 27 24 21 19 15 10 4 2 7 7 5 4 4 4 4 4 4 5 6 8
17 17 11 3 4 8 9 11 11 9 14 23 31 31 35 30 22 18 22 24 26 26 30 31 31 34 33 32 31 30 29 27 23 19 15 10 6 3 1 1 3 5 7 8 9 10 10 10 12
21 17 12 5 5 4 7 6 10 10 12 21 27 29 32 28 24 22 23 25 27 26 29 29 29 30 32 31 33 35 35 32 29 25 20 16 12 7 5 5 6 7 8 9 13 16 17 19 21
21 23 10 3 2 2 4 8 13 14 18 24 25 27 31 30 27 25 24 25 25 26 27 27 29 29 30 31 31 32 33 33 29 28 24 20 16 12 9 6 5 7 9 11 13 13 15 19 26
20 28 14 6 3 4 6 4 9 10 18 22 25 26 30 32 26 26 24 23 25 27 26 28 30 29 28 30 31 30 33 32 31 26 27 26 23 18 14 10 12 15 17 15 14 15 11 10 13
20 30 14 9 6 7 3 3 8 9 18 22 23 28 29 32 32 26 24 23 23 24 25 28 29 30 29 29 30 30 29 31 29 28 28 30 29 25 22 20 19 20 21 22 18 19 18 15 4
23 28 15 11 7 9 6 3 4 11 15 18 18 24 30 31 35 27 25 25 22 23 23 26 27 30 31 29 29 29 31 32 32 32 25 28 31 25 19 20 21 22 29 28 24 22 21 20 19
30 25 23 16 12 16 12 16 7 4 7 9 12 15 24 27 31 33 25 23 22 22 23 24 26 24 25 29 30 30 32 34 33 37 32 31 31 30 25 23 22 24 29 25 22 21 23 24 24
30 25 24 19 18 16 15 15 4 3 3 6 7 11 19 24 28 31 30 25 23 22 21 22 25 24 23 26 26 26 28 31 31 31 32 35 31 33 31 26 20 22 28 27 22 21 26 30 28
33 19 22 28 23 21 20 13 14 10 5 2 3 7 14 20 25 26 30 33 26 22 20 20 22 23 24 24 25 26 21 25 28 32 33 33 33 36 33 33 24 21 25 29 20 20 27 30 31
42 25 11 25 29 26 24 20 20 20 7 8 2 5 10 15 20 25 29 30 32 25 20 18 22 20 21 24 24 29 30 28 27 31 32 32 35 34 34 35 31 20 23 27 24 20 23 27 28
50 42 15 21 27 35 29 25 24 21 13 12 7 6 7 11 15 19 21 26 29 30 26 20 17 18 20 22 22 26 28 28 31 30 31 34 35 34 35 36 35 27 22 28 26 18 20 22 20
51 49 40 31 35 34 33 29 26 25 24 20 13 7 4 7 10 15 17 20 25 28 28 24 16 16 18 19 22 22 19 29 28 29 29 30 32 35 35 36 37 34 21 24 24 19 21 21 19
55 54 51 40 45 32 37 31 23 24 24 23 19 12 5 6 9 11 14 17 20 23 24 27 20 13 16 19 21 23 24 21 24 27 28 28 29 32 36 37 35 36 23 21 27 25 22 21 18
59 61 57 50 45 37 38 37 22 27 28 27 25 19 9 7 4 6 9 11 15 18 20 20 24 17 14 16 19 19 21 18 25 24 26 31 29 34 32 35 36 37 28 21 26 28 30 25 24
68 64 59 61 52 41 39 42 35 27 30 29 28 27 15 13 5 6 5 6 10 11 14 18 18 24 14 13 15 16 16 20 21 25 19 23 27 30 30 34 37 37 32 21 25 26 29 31 31
72 67 64 55 56 50 50 46 44 28 22 21 22 26 23 19 12 8 8 5 5 8 12 14 17 19 16 12 14 13 13 16 20 19 19 18 23 26 27 31 35 36 35 22 23 23 24 24 26
73 71 69 67 58 53 51 52 49 47 24 24 28 25 25 22 16 11 8 4 7 3 8 11 14 15 16 13 10 10 11 13 14 16 19 16 20 21 25 29 32 35 35 26 24 23 23 22 22
69 72 72 71 65 62 53 56 53 50 48 34 28 28 26 24 18 13 9 7 8 5 3 7 10 11 14 15 14 10 9 11 12 11 16 16 17 17 20 24 27 30 33 30 21 22 22 19 18
69 68 75 74 71 66 65 56 55 56 54 48 34 28 27 22 19 22 13 12 9 8 3 3 7 7 9 11 15 10 6 7 13 12 11 12 12 15 18 18 22 25 28 29 29 22 20 17 15
70 72 70 73 74 70 68 67 58 53 56 48 45 33 29 20 20 21 20 15 11 13 8 1 4 4 4 5 9 11 5 3 5 9 7 12 12 10 14 14 17 19 22 24 25 25 24 22 20
78 74 70 66 74 72 74 74 66 61 55 47 49 46 37 34 24 21 22 21 19 16 12 7 4 4 4 4 6 9 10 6 5 4 3 7 8 9 10 11 11 13 17 19 19 21 21 22 21
78 76 70 67 65 72 80 74 73 66 61 54 49 53 48 37 31 35 32 24 19 19 23 16 8 7 7 6 5 4 6 7 7 4 5 5 6 8 9 8 8 9 11 13 14 14 16 16 18
79 77 72 69 68 67 77 77 72 70 66 60 55 52 45 42 37 34 32 25 24 22 21 17 12 10 11 11 8 6 6 6 7 7 8 9 7 8 8 9 8 7 7 8 10 10 11 10 11
82 77 76 77 73 73 70 73 74 72 64 61 64 59 55 47 43 32 26 27 23 21 19 19 19 16 16 15 14 12 10 9 8 8 10 8 11 10 6 6 9 10 7 7 9 7 8 8 8
80 82 85 81 78 77 74 69 73 76 76 72 69 66 62 58 53 47 32 29 28 32 25 22 23 21 21 20 19 18 14 15 13 11 9 11 12 12 7 10 8 7 12 12 9 8 7 9 9
83 85 85 84 81 79 76 72 65 73 72 80 77 70 65 59 54 54 42 34 27 32 30 26 25 21 21 22 19 19 19 18 17 17 14 12 11 11 11 12 13 11 13 15 13 10 10 11 8
85 90 89 88 85 82 76 73 71 69 71 73 79 76 73 69 64 62 49 44 41 34 32 25 33 34 29 25 24 24 22 23 23 21 21 18 16 13 12 13 17 18 17 15 16 13 13 14 11

GFSSGP_250_spd_087.txt.gz
Wind_Speed
8 8 10 17 5 3 11 12 15 18 26 30 36 37 32 24 24 25 24 23 27 28 30 31 31 32 28 24 21 19 13 6 11 24 31 29 26 23 22 23 23 21 24 24 23 22 19 15 16
9 9 8 14 15 3 12 11 14 20 24 29 34 35 30 24 21 28 24 21 25 28 31 31 33 34 35 34 31 26 21 18 13 8 4 10 13 14 16 16 18 20 18 15 13 9 8 9 10
13 11 9 7 13 10 11 13 15 15 23 27 33 33 29 25 23 27 27 23 26 28 30 32 32 33 35 37 35 30 28 24 19 15 10 4 1 5 9 11 11 11 11 10 9 8 8 9 8
15 14 4 27 8 8 11 12 14 21 21 27 30 33 28 26 26 25 25 25 27 27 28 30 30 33 33 34 34 31 28 26 22 20 14 9 4 2 2 5 8 10 13 13 13 14 13 13 12
20 15 10 9 7 4 6 11 14 11 22 29 29 33 29 27 26 24 26 25 26 26 28 29 29 27 27 29 32 29 27 27 25 22 17 12 6 3 4 7 9 11 11 11 12 14 17 17 18
22 17 9 4 2 5 9 9 10 15 22 27 30 31 33 26 26 23 24 25 26 26 28 29 27 29 31 32 32 32 31 27 26 27 22 16 11 9 8 8 10 12 13 13 13 16 17 20 22
25 21 9 7 4 5 9 8 6 14 19 25 29 30 35 30 28 23 23 24 25 25 27 28 27 27 30 32 35 35 35 30 24 26 26 23 23 22 18 15 17 18 17 14 14 10 9 10 18
28 27 14 6 5 4 4 5 9 14 16 18 26 28 32 34 24 26 23 24 22 21 24 27 27 26 28 31 35 35 35 36 31 29 28 24 20 21 19 18 20 24 19 19 17 14 11 1 9
31 26 21 14 9 6 4 4 8 10 12 13 21 29 29 33 27 25 24 22 20 20 22 21 22 26 25 27 30 32 33 34 34 34 33 30 28 21 20 18 22 27 22 19 23 22 17 16 17
33 28 26 14 8 6 6 8 4 3 5 6 13 21 28 29 33 27 25 22 19 20 21 20 22 24 25 25 26 28 33 33 34 37 35 34 32 29 21 20 23 27 24 23 23 26 27 27 26
37 31 31 22 15 12 13 11 3 2 2 1 9 16 20 26 31 31 30 25 20 18 19 20 21 22 26 30 30 31 33 33 35 37 37 35 33 33 27 22 25 27 26 22 29 33 32 30 29
42 36 31 25 23 17 17 16 7 13 6 2 2 12 17 21 23 27 31 27 25 18 18 17 20 23 23 28 29 32 32 34 33 36 39 36 35 37 32 24 25 27 27 22 28 31 33 35 34
44 35 30 29 26 23 20 19 18 12 9 7 6 8 15 16 20 22 25 27 27 26 15 17 19 21 23 22 24 28 33 34 32 34 35 37 39 37 38 28 23 29 26 24 24 29 31 32 32
46 35 30 27 27 25 26 22 22 21 12 9 5 5 7 10 15 16 18 23 24 27 21 14 17 21 22 22 23 25 30 31 33 35 37 36 39 38 41 35 23 30 25 23 20 23 25 30 29
46 39 29 25 22 25 31 27 25 23 18 13 10 7 6 7 9 13 17 20 20 21 25 17 16 18 20 21 24 24 28 27 29 34 35 37 38 41 42 39 22 29 29 25 22 19 17 20 23
52 50 33 29 25 27 31 32 28 27 24 20 18 12 7 3 8 11 14 16 16 18 20 24 16 12 16 19 20 22 23 28 27 29 32 34 38 41 42 40 25 28 34 30 25 21 19 17 17
58 58 47 37 29 28 29 36 34 30 28 24 23 19 14 9 7 7 12 12 14 16 18 19 19 13 11 15 17 19 20 25 27 25 29 30 36 38 41 41 27 26 32 34 32 30 29 28 24
65 63 62 49 37 39 35 32 35 32 30 27 24 24 22 17 9 9 9 10 11 13 15 17 19 15 10 12 14 16 20 22 22 23 25 26 31 36 37 40 31 27 28 31 32 33 31 32 31
71 68 64 62 52 39 41 38 40 39 34 29 32 24 24 26 15 11 7 7 9 10 14 15 16 18 15 10 13 15 17 16 18 24 22 24 24 30 34 37 32 25 26 26 27 28 28 28 26
71 68 66 64 61 51 45 46 45 46 38 31 25 29 25 21 20 13 7 2 5 7 8 12 11 14 18 14 10 11 11 14 14 20 21 23 23 25 29 33 33 24 24 25 26 23 23 21 20
71 71 71 70 68 64 60 57 46 49 45 36 27 28 23 23 18 18 11 5 4 5 4 6 9 11 13 18 11 10 10 12 13 16 20 20 20 22 25 28 30 29 23 23 23 21 18 17 16
71 72 75 73 71 72 67 64 56 51 49 40 33 27 28 23 23 21 14 10 5 6 6 3 6 9 10 12 14 8 5 7 11 9 15 18 17 18 20 22 25 27 25 25 24 23 23 23 22
75 76 73 79 75 72 71 67 65 57 55 52 46 31 30 22 25 24 18 15 10 8 7 7 3 5 7 7 9 11 11 8 8 9 10 13 14 17 17 17 19 22 23 24 22 22 21 21 21
84 77 73 72 78 73 73 67 61 63 58 55 55 48 44 32 30 24 20 17 15 10 11 11 9 4 3 4 6 7 9 10 9 7 10 9 10 14 15 15 14 17 18 20 20 20 19 20 20
79 78 75 71 68 76 78 74 75 65 61 59 57 46 48 40 34 27 23 21 18 17 18 15 14 10 8 5 4 7 7 7 7 6 8 8 12 12 12 13 11 13 15 17 17 18 16 16 16
81 79 73 70 66 71 79 77 75 68 65 59 56 52 51 46 46 41 29 27 25 26 29 25 20 15 15 10 8 7 9 9 8 7 9 8 10 10 9 10 11 12 12 13 15 15 16 16 15
83 80 77 75 72 70 68 77 81 74 70 70 67 59 56 56 48 51 39 29 29 25 27 25 21 20 17 14 15 10 10 12 12 11 10 10 11 11 9 9 8 9 12 16 13 12 17 16 17
85 84 83 79 75 71 69 68 74 77 75 71 68 65 61 56 50 51 46 38 30 26 27 27 24 23 22 18 19 18 14 14 14 12 12 12 11 9 10 11 9 11 10 14 14 13 13 17 15
85 88 88 83 78 78 74 71 68 73 77 74 72 68 63 60 59 53 47 41 32 29 28 29 28 24 22 23 22 21 17 16 14 14 13 13 13 12 12 12 11 11 9 15 12 12 10 13 14
87 88 90 88 82 80 77 73 70 68 72 75 77 74 68 63 61 59 52 49 46 42 33 29 30 29 24 26 21 19 20 21 19 16 17 21 15 13 14 12 13 11 10 12 11 12 13 15 10

GFSSGP_250_spd_090.txt.gz
Wind_Speed
5 15 15 8 12 7 8 11 19 23 28 32 34 28 27 28 28 24 24 23 27 29 30 31 30 26 23 20 17 14 6 8 16 18 23 30 34 34 31 33 33 28 27 24 23 22 17 13 12
6 7 12 13 11 6 7 11 13 23 26 33 33 26 27 27 28 28 26 25 27 29 28 32 33 30 27 24 22 19 18 14 9 5 21 29 33 32 26 21 18 18 18 16 15 12 9 7 6
10 8 12 15 7 5 12 16 13 23 25 33 33 26 24 27 27 28 27 26 26 28 27 29 30 32 29 27 25 22 20 17 15 12 6 3 7 10 11 11 11 11 12 14 14 12 10 8 4
12 11 10 14 6 5 9 16 12 21 27 32 34 25 24 25 26 29 26 27 27 28 29 32 34 34 33 30 27 25 22 20 16 11 7 3 1 2 3 6 10 14 17 19 18 19 16 13 9
15 11 8 4 8 7 9 12 15 21 27 31 31 26 27 26 25 28 27 27 28 30 30 32 35 36 36 35 32 26 23 23 21 13 9 5 2 1 3 7 10 10 10 11 14 14 15 16 15
18 12 10 9 7 8 12 12 13 20 28 28 31 29 29 26 24 26 26 25 27 30 30 31 31 34 35 32 35 30 25 24 23 21 20 17 12 8 8 7 5 7 8 10 12 14 15 20 18
20 17 7 10 6 8 9 10 11 16 26 26 34 37 33 28 25 25 24 24 25 28 28 28 28 28 33 35 32 31 34 30 27 24 19 16 13 12 10 9 15 10 9 7 9 6 6 12 17
23 21 14 14 4 6 8 9 9 12 18 23 25 34 36 34 29 26 24 24 25 27 25 27 28 29 32 32 35 35 36 33 33 30 27 20 11 12 12 18 16 17 16 16 13 7 2 9 14
27 25 22 9 7 5 6 7 9 9 11 14 22 27 34 36 33 29 25 22 24 26 26 26 28 32 33 34 35 36 38 38 36 34 33 31 20 13 17 20 19 21 24 23 22 21 19 19 23
31 30 24 17 12 7 3 11 2 4 7 7 13 19 28 31 34 31 28 24 22 23 26 26 25 28 32 35 36 37 36 38 38 39 38 38 28 17 19 23 24 27 32 29 29 29 28 29 31
38 34 27 20 15 13 7 6 3 3 1 4 8 15 22 26 29 31 30 29 23 22 23 24 25 24 28 31 35 38 37 38 39 42 41 42 35 22 23 26 26 28 29 33 31 31 32 36 38
40 37 31 25 15 13 11 13 7 4 4 4 4 12 16 23 26 28 28 29 29 22 20 23 24 26 28 29 32 34 39 39 42 42 44 41 40 25 23 29 25 29 30 30 36 33 34 34 34
43 39 32 31 22 17 18 15 18 13 8 6 7 7 13 19 22 25 25 25 28 26 20 20 22 24 27 29 31 30 34 39 38 44 44 45 44 29 27 30 26 26 28 31 33 35 36 32 31
48 45 39 34 27 20 20 21 20 17 13 10 4 5 11 14 19 22 23 23 25 27 22 19 20 22 24 26 29 31 31 35 36 42 44 46 47 33 28 31 29 25 24 26 28 31 30 28 26
50 49 41 33 28 21 23 23 22 21 21 15 7 5 10 11 15 18 21 23 23 24 25 20 15 18 21 25 26 29 31 33 35 37 45 45 47 38 31 32 34 30 24 21 23 26 26 23 23
51 52 44 30 31 28 23 33 25 23 23 22 16 8 14 10 13 16 18 19 22 23 24 23 16 15 20 21 25 27 29 31 31 32 38 44 46 41 32 33 34 34 30 26 22 18 18 16 16
52 52 47 34 32 25 24 29 28 27 25 23 20 16 13 14 9 14 14 14 18 20 21 22 18 16 19 19 21 24 26 29 30 34 36 40 42 41 32 32 33 35 34 32 29 23 21 20 18
57 51 48 46 35 33 27 25 32 32 31 30 25 18 15 12 12 12 13 11 13 16 19 19 20 19 17 18 18 21 23 26 29 33 33 36 39 40 35 32 29 29 31 32 31 31 30 29 28
61 58 53 43 42 41 28 31 29 36 38 33 27 22 17 15 16 9 11 8 9 11 15 16 17 19 17 15 16 19 21 23 28 29 30 33 36 38 36 32 29 28 25 26 27 26 28 26 24
64 62 58 53 44 39 25 32 38 29 34 38 32 26 22 22 17 13 11 7 4 9 10 13 14 16 20 16 14 16 20 21 25 26 28 29 31 33 34 32 29 27 24 23 21 21 22 22 21
68 66 65 61 54 47 47 38 44 43 40 34 32 31 24 23 20 16 9 11 3 5 5 9 12 12 14 17 14 14 17 20 20 23 24 26 27 28 30 30 29 29 28 26 23 23 20 19 17
71 70 71 71 64 57 56 47 50 52 45 42 33 36 29 23 22 19 12 11 7 3 3 6 8 10 11 12 15 15 15 18 18 18 21 22 25 24 24 25 28 26 26 26 25 25 23 22 22
77 73 73 73 77 68 62 61 54 49 53 46 45 39 32 26 23 19 15 13 12 7 2 2 4 7 8 9 11 12 16 17 17 17 18 20 21 22 20 20 21 25 26 26 25 24 24 23 22
81 77 73 78 77 77 76 65 64 55 50 49 46 45 39 25 25 17 19 19 18 12 8 2 4 5 7 7 8 10 11 14 16 17 16 14 19 19 19 19 20 21 23 24 26 23 23 22 21
79 77 74 75 78 77 76 75 73 68 57 53 49 48 48 36 31 23 21 22 20 18 15 9 8 9 11 10 7 7 8 10 11 14 16 15 15 17 16 17 19 20 22 21 21 23 23 22 21
82 79 72 70 71 79 80 74 77 73 66 61 62 54 52 49 44 41 37 32 25 22 20 15 18 18 20 15 11 8 7 9 10 10 12 15 14 14 14 11 14 16 21 20 20 22 20 22 20
86 81 77 73 73 71 77 80 79 74 70 68 69 63 54 50 48 46 38 38 29 25 24 20 22 18 19 18 15 11 9 8 11 10 10 11 12 11 13 14 10 10 13 19 18 17 21 19 20
89 86 82 77 73 70 69 76 80 78 75 71 67 64 61 57 53 54 44 43 43 36 29 24 26 22 22 23 20 16 13 10 10 9 7 8 7 8 4 9 12 7 8 13 14 13 16 16 17
89 90 86 81 76 74 73 70 77 81 81 80 75 70 64 62 59 57 54 48 46 49 38 35 31 28 27 25 20 19 18 16 14 8 9 10 11 7 7 6 6 8 4 8 10 9 13 12 12
86 90 90 86 80 76 74 73 72 74 82 83 80 75 68 66 67 63 61 58 52 50 45 37 33 31 28 19 21 22 18 14 14 16 16 13 12 14 15 13 10 7 5 4 7 7 9 11 10

GFSSGP_250_spd_093.txt.gz
Wind_Speed
2 12 4 5 9 13 13 14 24 25 31 27 25 27 27 27 28 25 23 25 27 28 27 22 19 18 16 13 11 7 15 25 22 13 23 39 40 38 33 32 35 32 33 33 29 25 23 21 16
6 18 16 10 6 12 15 13 21 25 32 27 25 26 29 28 28 27 24 23 25 28 30 29 26 23 22 19 15 12 10 5 10 18 21 25 29 31 31 32 29 26 24 21 20 18 14 10 5
7 15 12 6 3 9 14 18 20 27 30 25 25 26 27 29 28 28 27 25 27 30 32 33 32 30 24 23 20 17 14 10 7 7 9 14 20 24 25 26 24 20 18 15 15 13 11 8 5
11 6 10 2 3 5 13 17 23 31 31 25 29 25 28 29 29 29 29 28 27 29 32 34 32 32 31 25 20 20 20 14 8 4 3 3 5 8 10 12 13 15 17 17 17 15 13 13 9
12 8 7 8 2 10 14 18 25 32 35 33 31 30 28 28 27 28 29 28 27 27 29 34 35 33 34 33 27 22 20 19 15 7 3 2 4 6 8 9 11 13 14 15 16 17 17 16 13
13 10 3 5 5 11 14 14 21 27 30 36 36 34 33 30 25 28 29 28 26 29 30 31 33 34 35 32 31 28 24 23 15 13 10 7 4 2 3 2 8 14 15 17 19 19 19 17 16
15 17 6 4 8 9 10 13 16 19 24 30 34 36 37 34 26 27 28 29 28 29 31 31 34 34 34 35 35 31 28 25 23 14 8 10 6 5 0 8 6 3 5 7 11 12 14 16 19
19 19 11 9 8 7 8 11 13 12 17 22 29 32 37 38 31 29 26 26 29 29 29 31 34 36 34 34 34 34 36 29 27 21 10 7 6 5 6 7 9 9 7 3 6 11 13 17 22
25 24 16 16 9 6 4 9 10 7 10 15 21 27 34 37 34 32 28 25 26 28 26 26 28 32 37 36 38 34 38 36 31 29 18 17 12 10 12 16 21 21 21 15 17 21 22 25 28
29 27 24 15 11 12 8 9 6 4 6 9 17 24 29 34 34 32 32 25 25 26 28 28 27 26 31 37 38 38 40 41 40 37 25 20 14 13 15 22 27 25 27 28 27 28 33 36 34
33 33 29 22 14 14 11 10 2 2 2 8 12 19 24 30 33 32 33 30 24 24 25 27 29 32 27 32 36 38 42 43 45 42 30 23 20 19 23 26 29 27 29 32 33 36 41 39 33
37 36 31 26 20 17 15 12 7 3 2 3 6 13 22 26 30 32 31 32 28 23 24 25 27 29 34 31 34 37 38 45 46 46 34 30 25 23 27 28 29 32 33 35 37 40 38 36 31
42 39 36 31 23 20 16 15 12 7 6 2 5 8 16 23 26 28 30 31 31 24 22 23 27 28 31 32 33 36 36 43 47 48 36 35 29 25 27 28 27 33 36 39 40 38 35 30 25
45 41 38 33 28 19 17 17 14 12 11 7 5 5 12 20 22 25 27 29 31 28 22 21 24 24 28 33 35 35 38 39 45 48 39 39 33 31 29 28 27 28 33 34 34 31 29 27 24
43 45 41 35 27 24 21 20 15 16 14 12 8 5 11 15 18 21 22 25 28 29 25 23 21 22 25 31 34 35 38 39 43 47 42 41 38 34 34 31 27 25 26 27 29 28 26 25 24
46 47 43 37 29 17 23 22 17 22 18 16 14 6 7 11 13 19 19 20 24 27 25 23 21 21 24 27 31 33 36 38 41 44 44 41 39 35 34 34 33 29 22 19 21 22 20 18 16
50 48 46 40 32 31 25 17 21 20 24 20 19 15 8 7 10 13 16 16 19 23 23 24 21 19 22 27 28 32 33 36 38 40 42 41 40 35 31 30 32 33 32 29 23 18 17 16 16
54 49 48 43 41 34 32 26 24 30 30 21 20 17 14 7 6 9 11 13 16 18 21 22 23 20 20 23 27 29 31 32 33 36 39 41 40 37 34 29 28 29 29 28 27 26 25 23 23
57 53 50 50 47 36 39 39 27 32 28 25 23 21 18 13 7 7 9 9 11 13 16 16 19 21 21 19 21 26 26 29 30 32 35 37 38 36 36 32 29 26 25 25 25 25 24 21 22
58 56 54 49 44 41 41 36 35 30 31 32 29 29 21 16 13 10 10 4 7 9 10 13 14 16 20 21 21 22 24 24 28 30 31 31 34 36 35 34 33 31 29 25 22 19 18 17 16
63 59 59 53 48 49 44 35 34 34 37 35 32 34 29 29 17 14 12 6 4 4 4 7 11 13 15 18 22 22 22 22 23 28 29 28 28 31 32 33 33 31 30 31 27 23 20 17 16
69 64 63 58 58 57 45 41 42 42 39 40 35 35 29 29 21 13 13 12 6 3 2 3 7 11 12 14 18 17 19 19 20 22 27 26 27 27 27 29 29 31 30 30 29 27 23 21 20
75 69 66 62 64 61 60 47 47 43 46 45 35 35 31 30 22 17 16 17 11 7 4 0 3 6 10 12 13 15 14 20 20 21 20 23 24 25 27 26 25 27 30 28 26 27 26 24 22
78 73 69 69 67 64 63 55 59 53 50 50 45 43 37 32 24 23 24 20 14 11 8 5 2 5 7 10 12 11 12 12 19 20 20 19 20 20 21 23 24 23 25 26 26 25 25 25 24
79 76 73 73 75 70 71 65 60 63 56 52 50 47 42 39 33 25 27 21 15 12 13 12 6 4 10 12 10 10 9 12 12 12 16 17 19 18 16 19 22 23 21 23 25 24 24 23 23
83 79 74 72 80 84 76 69 66 61 56 52 50 51 48 40 39 34 30 21 16 15 17 18 15 11 11 11 9 10 9 6 7 9 11 13 16 16 16 12 16 16 20 18 22 22 23 22 20
87 83 78 78 80 86 83 81 77 71 67 59 51 52 52 49 44 40 37 34 27 25 25 24 20 19 15 12 14 12 10 8 6 5 6 7 9 11 14 12 11 12 15 16 16 19 17 20 19
90 88 85 78 78 81 86 84 83 79 71 68 68 63 54 52 49 45 45 45 40 35 36 33 27 24 21 17 18 18 14 13 8 9 3 4 6 6 7 9 10 8 11 12 12 13 14 15 18
91 90 86 80 78 78 80 88 88 86 80 77 74 70 67 61 57 52 52 48 46 40 37 37 35 34 29 28 25 20 19 19 16 9 9 5 6 8 10 10 8 6 6 7 12 8 9 12 13
90 92 90 85 79 78 77 77 84 90 87 84 81 75 72 69 65 62 57 54 52 49 44 38 43 40 37 38 29 22 25 23 15 11 9 11 10 9 8 8 8 9 7 2 3 8 9 8 9

GFSSGP_250_spd_099.txt.gz
Wind_Speed
11 7 11 10 15 17 18 20 23 20 20 24 26 25 24 23 25 25 28 22 22 19 14 12 10 7 5 9 22 35 36 42 43 38 33 35 36 39 37 37 28 26 30 31 31 32 34 33 26
13 10 8 11 13 20 23 26 25 22 19 22 25 25 25 24 25 22 24 25 24 20 18 14 12 10 7 4 4 8 17 32 43 46 49 48 42 41 40 27 35 34 35 35 35 31 26 20 16
12 16 6 10 12 22 28 31 30 28 23 20 23 24 24 24 24 24 24 26 24 24 23 21 17 13 6 5 4 3 6 9 15 28 37 40 35 32 32 28 34 37 34 32 24 16 11 12 9
5 12 5 7 12 14 22 28 30 34 29 25 22 22 25 25 24 24 26 27 26 24 26 28 24 18 13 8 10 5 4 4 5 7 14 27 37 39 36 35 31 26 23 20 13 12 7 5 7
5 15 13 5 9 10 15 20 26 30 33 29 23 20 22 24 23 25 25 28 29 28 29 27 26 25 18 13 10 8 3 2 4 5 8 11 13 15 17 20 21 18 18 17 18 15 12 10 10
11 12 13 6 6 5 11 15 19 26 32 33 29 24 20 22 24 23 23 23 25 29 30 32 33 30 27 24 17 10 8 4 5 5 7 5 3 7 9 14 17 19 19 20 18 18 14 12 12
11 12 8 9 7 5 6 10 14 21 28 32 33 28 25 21 23 24 25 25 22 25 28 29 28 33 35 30 24 16 10 8 6 5 4 3 7 12 14 19 20 23 23 23 20 16 18 16 14
15 14 10 10 9 5 3 6 11 16 21 28 31 32 29 23 23 23 25 27 26 22 25 28 29 31 35 36 28 18 12 11 8 6 2 5 11 14 14 11 13 14 14 15 11 19 20 18 19
21 15 14 12 10 6 3 3 7 12 15 24 30 30 31 28 24 22 24 25 26 28 26 29 31 34 37 38 32 26 19 16 11 3 5 8 10 10 12 8 5 2 7 10 16 21 22 23 23
27 21 16 13 12 9 6 0 7 7 10 15 21 27 31 30 28 23 23 25 27 27 28 31 33 37 40 38 35 31 27 20 15 10 7 9 11 13 8 7 10 13 19 21 24 31 30 28 23
31 24 23 19 17 13 9 7 2 3 8 13 17 23 29 31 29 25 21 22 24 28 29 31 35 37 40 38 37 36 34 28 22 18 16 20 22 22 19 20 24 28 31 34 36 33 30 24 19
34 29 24 21 20 16 12 10 7 3 6 9 12 23 26 28 30 26 23 21 24 26 28 30 34 37 41 39 35 35 39 36 32 28 24 25 29 31 27 30 39 39 38 35 35 33 24 20 16
36 32 27 26 23 19 15 12 8 5 5 6 8 15 19 26 29 27 23 21 22 25 27 30 33 36 40 43 40 37 36 38 37 33 27 30 30 35 35 39 39 38 37 36 30 27 21 18 14
38 34 31 28 29 21 16 14 11 10 7 8 6 8 16 20 25 26 24 23 21 24 26 28 33 35 37 42 43 41 38 36 37 37 33 30 29 32 33 33 32 35 34 28 25 23 20 17 16
43 37 33 32 33 27 21 18 14 12 9 8 9 7 10 14 20 23 22 24 22 22 25 25 31 34 34 37 41 42 41 39 37 36 34 32 28 26 27 27 28 27 25 24 23 22 20 17 16
42 39 36 33 33 31 25 20 17 14 11 10 10 10 7 10 15 18 22 21 24 19 22 25 27 30 32 33 36 39 41 40 40 39 36 33 29 25 23 23 24 22 23 21 20 19 16 13 10
42 39 34 34 34 34 28 21 17 17 17 15 15 8 9 7 10 13 16 20 18 20 20 20 23 27 29 30 29 33 37 40 39 40 39 35 33 30 27 22 18 17 16 16 14 11 10 11 12
46 34 31 35 35 33 30 24 25 22 20 17 17 12 9 6 6 8 11 14 17 16 20 20 22 24 25 28 29 30 33 36 36 38 37 38 36 31 28 26 24 21 17 15 13 14 15 17 15
41 37 29 35 39 35 30 27 27 16 13 22 17 15 12 8 5 4 7 10 13 13 16 20 21 21 23 27 27 28 30 32 34 35 35 35 35 36 33 29 25 22 20 17 15 17 17 13 12
46 39 29 37 45 40 36 24 26 35 24 23 23 19 15 11 11 8 7 6 7 9 11 16 20 21 21 21 24 25 25 27 29 32 31 33 34 33 33 34 32 29 25 20 16 12 10 9 10
58 57 37 23 48 46 45 41 35 33 30 33 31 27 25 18 15 11 11 12 2 4 7 14 18 20 20 21 24 20 20 24 25 27 29 28 29 33 33 32 31 32 31 28 24 19 16 15 16
69 70 58 36 57 56 48 42 42 37 41 38 35 33 31 26 20 17 15 17 7 3 3 8 14 17 19 18 22 23 22 20 22 24 26 27 27 26 28 30 30 28 28 28 27 24 20 19 17
76 73 65 30 64 68 60 52 43 45 38 33 44 38 37 36 29 23 23 20 10 8 3 7 11 14 15 14 15 15 14 19 22 21 21 23 24 24 22 25 26 25 25 25 24 25 23 21 18
79 86 79 46 66 68 67 62 51 49 47 31 31 33 37 41 37 29 22 18 11 11 8 6 8 9 13 14 13 14 14 15 15 16 14 16 20 22 21 21 24 24 25 23 22 20 20 20 18
80 88 89 80 67 67 69 66 56 58 52 44 33 39 35 40 36 36 29 25 19 15 16 11 10 6 6 9 11 11 12 12 9 10 14 14 18 19 23 20 20 23 22 23 21 18 18 16 16
83 84 85 82 77 72 73 67 64 63 62 61 53 50 43 47 42 39 33 30 27 22 20 14 14 7 5 4 8 10 8 10 9 9 10 13 15 18 17 18 17 18 21 23 21 20 18 16 15
86 86 83 84 81 74 75 72 64 65 68 69 68 66 65 53 48 43 36 30 29 23 23 19 16 16 11 5 2 3 6 13 8 8 7 9 13 7 17 14 12 18 18 19 21 20 18 17 15
89 88 86 82 83 80 79 77 72 68 70 73 75 68 72 66 51 48 40 31 31 26 27 25 23 19 17 14 11 10 13 15 12 11 9 2 6 9 10 6 10 11 14 15 18 17 16 15 16
88 87 87 85 84 83 80 87 76 72 74 75 77 72 65 65 61 51 50 41 37 33 29 32 29 24 19 16 18 18 14 16 17 12 12 8 6 7 7 5 5 8 10 11 9 13 14 13 12
93 90 91 90 86 84 90 88 82 82 74 75 77 78 70 64 62 58 53 53 46 36 38 36 26 33 26 23 23 22 23 20 15 15 15 14 14 13 9 7 6 8 11 7 10 8 8 11 9

GFSSGP_250_spd_102.txt.gz
Wind_Speed
10 13 16 18 23 25 29 28 24 19 19 21 24 24 24 21 21 23 23 21 19 15 8 7 3 7 12 27 25 29 33 36 36 33 30 29 31 31 33 34 35 33 31 18 20 25 26 29 32
13 12 14 17 19 25 31 34 30 27 19 22 23 24 24 22 23 26 24 24 24 19 14 9 5 1 4 10 22 31 37 42 42 44 45 46 52 44 40 39 38 33 23 27 30 34 29 31 28
14 11 13 10 10 21 27 31 35 31 25 22 14 24 23 22 22 26 26 24 24 24 22 17 10 5 2 3 6 10 16 21 26 36 46 49 50 48 48 38 35 32 32 32 29 30 29 24 12
14 10 8 8 5 13 21 28 33 36 30 24 20 21 23 22 21 24 25 26 28 25 25 24 22 13 6 3 4 5 8 14 17 19 21 27 33 37 38 34 31 35 31 26 24 25 15 7 4
17 13 7 5 3 10 15 22 27 34 34 31 23 19 22 22 21 21 21 25 25 25 26 27 26 23 16 8 5 4 7 6 9 11 13 13 14 21 26 31 28 25 21 17 18 15 13 9 5
12 12 13 2 1 4 12 17 21 29 35 33 28 22 21 22 24 25 19 17 24 24 25 25 26 27 21 12 4 5 5 6 5 5 7 9 9 10 13 16 19 19 18 17 17 16 13 8 7
16 7 9 4 3 3 8 13 16 22 33 32 34 29 20 21 23 25 24 22 21 22 28 29 30 31 32 21 10 4 5 6 5 3 2 4 10 15 17 19 20 22 20 18 16 11 7 7 8
16 13 11 4 4 4 5 8 14 17 22 29 31 33 24 20 23 24 25 24 26 27 30 33 31 34 32 32 25 16 12 9 4 4 9 12 14 14 16 13 12 14 13 10 9 10 14 14 11
18 7 6 16 7 5 4 5 9 15 19 26 29 33 31 20 21 23 26 28 27 30 33 36 34 34 34 31 27 23 18 14 11 9 11 14 16 15 10 7 7 4 4 8 12 16 15 12 17
21 2 9 16 14 10 5 5 8 11 17 22 25 30 33 27 18 23 24 26 28 28 33 37 37 33 35 35 32 28 25 24 24 21 19 18 16 15 15 15 17 19 20 18 21 19 16 17 18
27 4 20 12 18 15 10 6 6 7 14 16 23 27 29 32 24 21 22 24 26 28 33 37 39 36 31 34 37 36 31 30 25 23 27 27 27 31 35 37 33 29 35 20 26 25 22 6 16
36 31 17 26 21 19 14 9 7 6 10 11 16 23 27 31 31 22 23 23 24 27 31 35 39 39 36 30 31 36 33 29 20 27 33 36 39 37 39 36 19 22 33 17 31 26 15 8 8
40 35 23 19 22 19 16 12 7 6 7 9 11 18 23 27 30 28 20 22 23 26 29 32 36 40 39 37 30 28 34 33 30 31 35 37 39 39 36 40 36 22 30 30 24 18 12 11 7
39 38 30 25 22 22 18 15 9 7 7 7 8 13 19 22 26 29 23 21 23 23 26 29 32 37 40 38 36 31 30 31 33 35 29 32 29 31 30 35 37 31 28 24 17 17 16 10 10
41 39 31 27 25 24 24 18 11 9 10 8 5 10 13 19 21 25 27 20 20 22 24 26 28 31 36 39 38 36 33 32 32 33 28 28 24 26 20 27 27 30 22 19 23 18 14 12 8
39 38 34 28 32 29 24 14 18 13 11 10 8 8 8 11 16 19 24 24 20 18 21 24 26 29 32 35 36 37 37 36 34 31 30 30 25 22 22 21 20 21 20 18 17 15 12 8 5
42 39 36 31 30 29 30 28 19 15 13 12 13 10 4 7 11 14 18 22 21 18 19 22 25 26 30 32 35 35 38 38 38 36 32 30 27 26 24 20 17 15 14 12 11 9 8 11 12
41 37 33 27 22 36 31 30 26 16 16 16 16 13 7 1 5 9 14 16 20 18 16 19 24 26 28 30 31 33 34 37 38 38 38 34 29 26 25 22 22 20 15 12 11 13 14 13 12
46 37 35 32 42 41 34 31 29 24 23 19 13 15 10 6 1 4 9 11 15 16 17 17 21 23 25 28 30 32 32 35 36 39 40 38 36 30 26 25 26 22 13 16 13 11 10 10 10
43 46 38 33 46 33 41 34 26 30 25 23 18 19 10 10 7 4 4 9 10 13 13 16 19 22 23 25 25 29 32 33 36 36 37 38 37 33 29 31 26 20 19 18 14 11 11 11 14
50 41 47 47 38 45 47 39 35 33 31 28 21 19 21 14 15 8 5 5 6 8 11 14 18 20 23 26 29 30 30 29 31 30 39 37 34 36 38 21 29 20 26 24 16 17 16 17 16
68 48 48 52 41 45 49 46 38 37 37 30 25 22 29 20 22 20 10 9 7 1 5 9 13 16 17 16 21 22 25 23 29 24 24 32 32 34 43 36 29 29 20 20 18 16 15 17 19
68 59 55 44 44 32 46 49 45 42 36 37 30 35 27 28 25 29 19 12 9 3 2 7 10 13 15 15 15 21 20 23 19 21 20 26 34 33 38 38 32 28 32 26 23 19 17 17 18
72 66 58 52 33 45 44 52 54 45 44 44 41 35 35 32 33 32 27 23 10 7 6 5 7 12 12 15 15 18 20 20 17 12 17 20 22 32 31 34 39 41 18 28 24 22 21 20 16
78 74 72 54 51 23 50 54 60 48 47 42 39 32 31 37 36 28 24 27 14 12 6 8 8 5 9 14 14 14 16 15 11 13 13 19 15 13 23 28 31 34 32 31 30 25 21 22 21
83 83 79 66 50 29 48 57 67 49 45 43 38 41 30 30 40 25 26 22 23 22 15 12 14 9 7 9 11 12 13 15 11 10 10 10 13 12 22 24 24 27 32 31 29 25 25 25 24
89 92 93 76 64 48 50 62 71 58 51 56 44 43 33 32 39 30 26 28 27 24 24 20 18 16 12 7 1 5 9 13 11 10 9 7 13 2 6 15 18 19 20 22 27 25 29 18 21
91 101 97 90 79 64 60 66 75 65 57 62 60 53 46 42 43 33 30 33 29 28 17 20 23 24 21 13 5 5 8 10 10 11 8 9 4 7 9 8 12 14 14 16 17 23 25 18 16
94 97 101 98 91 77 67 70 82 74 60 56 65 62 57 55 48 39 28 27 34 32 33 38 32 29 23 19 15 10 9 11 10 9 8 9 7 2 3 6 9 9 11 11 14 14 16 19 17
95 98 100 103 101 97 69 73 75 78 77 61 62 70 70 68 64 54 49 29 52 43 36 36 35 37 31 24 20 16 14 12 20 10 6 8 11 14 12 10 10 10 11 10 11 10 8 11 13

GFSSGP_250_spd_105.txt.gz
Wind_Speed
16 12 20 22 28 31 35 38 31 26 19 19 21 22 22 25 26 24 24 23 22 19 12 6 2 12 18 29 38 42 39 38 36 33 29 28 33 34 33 30 33 29 33 29 27 17 16 20 28
9 10 6 11 21 28 32 37 37 33 28 21 21 22 21 24 25 25 25 23 24 24 21 15 8 2 8 14 26 31 30 31 29 29 31 36 32 37 33 32 32 39 42 29 19 15 22 27 26
11 13 16 7 7 19 26 32 37 35 32 26 23 22 22 22 21 23 25 26 26 24 23 21 15 7 6 9 12 22 34 33 32 29 33 35 39 41 42 42 44 40 31 19 19 24 27 26 26
7 9 12 6 4 15 21 26 35 35 38 33 24 23 24 24 19 19 25 24 25 23 21 18 15 9 6 8 12 12 20 21 23 26 28 34 41 46 48 47 41 31 24 19 27 27 23 19 10
5 6 6 7 4 12 17 22 28 36 36 37 27 23 22 27 23 19 21 25 26 24 24 25 22 18 4 7 7 6 6 5 9 10 12 13 13 13 15 17 17 21 21 22 16 11 12 9 5
11 6 13 4 4 9 15 18 22 29 34 37 35 24 23 25 26 26 24 28 29 29 27 28 28 26 16 3 1 3 3 4 5 5 7 8 10 11 11 14 16 17 16 14 11 10 11 7 4
12 16 16 4 1 6 12 15 21 25 31 32 36 30 24 26 28 29 28 30 31 32 29 30 31 30 28 22 15 9 4 4 3 2 4 7 10 14 16 16 17 17 13 11 11 12 9 6 4
11 0 12 9 3 5 9 14 20 24 27 30 34 36 27 26 26 29 28 30 33 34 32 30 35 31 29 26 23 19 14 10 7 8 11 10 12 10 8 6 6 10 11 15 15 11 12 10 10
5 9 6 14 4 2 6 10 18 20 22 29 33 35 33 25 24 27 30 31 29 34 35 32 33 33 29 24 25 25 27 24 20 20 17 15 15 16 17 12 4 7 10 12 14 15 14 14 13
20 13 18 21 15 6 3 7 13 15 19 24 29 34 35 31 24 26 28 28 32 35 38 38 30 30 29 26 25 31 31 26 20 23 24 26 29 35 37 36 27 17 18 21 23 18 11 14 14
21 14 15 22 21 7 10 7 9 12 15 17 25 30 33 33 24 25 25 27 30 34 38 38 37 30 27 29 26 31 30 30 35 33 36 38 39 36 30 27 31 24 21 26 26 25 12 11 8
25 16 12 10 23 18 11 10 8 8 14 13 18 27 29 35 30 27 26 27 27 31 37 40 39 39 34 26 31 28 31 33 39 41 32 30 29 25 26 28 33 24 25 28 28 19 18 9 10
34 29 12 15 18 12 11 12 9 7 8 10 11 19 25 30 32 31 27 27 27 29 31 36 39 40 40 38 26 27 26 30 34 31 34 35 35 23 28 30 30 28 27 22 19 18 12 11 11
42 36 15 11 25 6 17 15 14 7 7 7 11 16 17 24 28 30 30 26 27 28 28 33 36 38 42 45 43 31 28 28 29 28 28 32 27 17 27 25 26 25 22 21 15 12 11 12 14
44 33 29 28 20 22 26 18 13 9 7 9 7 12 13 18 23 26 29 27 27 27 28 31 33 38 40 44 45 42 36 29 29 28 22 26 27 26 23 25 22 17 13 17 16 15 13 11 13
46 40 35 29 29 27 21 21 19 14 10 9 7 10 8 11 18 21 25 26 24 27 29 29 32 36 39 40 42 43 41 39 33 25 24 24 24 20 21 20 19 15 13 13 13 11 10 12 11
48 45 37 32 24 23 31 24 21 14 11 13 9 8 6 6 12 16 19 23 23 23 26 28 29 32 37 41 39 40 44 45 44 38 27 24 27 23 23 21 19 14 13 12 12 14 15 17 12
53 49 39 39 34 31 43 34 29 23 18 14 10 7 1 1 6 10 12 17 19 22 23 23 25 28 33 37 39 40 39 47 45 45 42 33 25 20 21 29 24 21 19 15 16 15 13 12 8
58 53 52 44 42 31 35 35 28 23 23 16 13 7 3 3 1 6 7 11 16 18 22 22 24 24 27 33 33 35 35 42 44 42 45 38 35 32 25 14 15 19 16 13 9 8 8 11 15
60 58 52 48 48 35 44 41 33 27 26 26 22 13 9 6 4 4 5 6 12 14 18 19 22 27 29 31 30 33 32 34 41 42 46 46 36 33 28 21 24 29 21 17 17 16 17 16 17
65 59 54 49 44 33 30 32 32 33 29 27 22 20 12 11 3 2 5 5 6 8 13 15 14 17 21 24 26 29 33 26 33 36 42 47 42 38 33 23 29 28 27 24 20 20 19 19 19
69 64 59 51 50 41 44 35 34 41 32 30 26 23 15 15 12 6 9 6 2 3 7 10 13 14 15 22 24 25 23 23 26 26 32 39 40 44 36 28 35 35 34 29 24 22 22 19 22
73 72 60 57 51 31 29 37 33 39 37 33 30 25 20 18 17 15 13 13 5 4 3 7 7 11 16 19 19 21 21 17 19 22 21 29 34 38 40 40 38 39 40 38 32 27 25 17 18
75 70 65 62 57 46 51 44 47 44 46 43 37 32 31 24 19 19 15 14 14 5 5 6 6 4 13 17 18 17 17 18 16 19 23 17 23 28 32 34 36 40 38 38 32 29 25 17 16
78 76 71 69 60 48 52 46 45 52 52 46 41 37 28 32 24 22 18 12 9 7 6 8 9 5 10 16 17 15 17 16 15 14 16 15 17 22 31 29 28 32 36 32 34 24 30 20 22
81 78 67 75 63 48 54 44 42 46 51 48 44 37 37 30 26 27 22 14 9 10 13 10 11 8 8 4 6 9 12 13 14 13 10 11 7 6 18 20 21 23 28 32 32 29 25 22 19
83 82 83 81 63 51 46 53 47 53 54 51 47 43 37 32 34 28 23 25 17 21 18 12 17 16 13 8 2 4 7 11 10 10 10 11 5 2 5 9 15 18 20 23 23 25 26 23 17
91 91 82 75 71 57 36 44 61 53 56 57 48 44 38 39 38 25 26 20 22 31 21 23 20 25 20 15 9 8 7 8 8 7 7 7 4 6 3 8 10 13 15 16 19 20 22 22 21
93 95 97 80 80 73 52 55 50 60 64 62 52 46 42 41 42 29 22 26 24 38 33 31 23 26 24 21 13 13 9 11 6 6 3 4 4 1 4 6 5 8 12 12 15 14 13 19 20
93 93 99 97 84 81 73 65 47 55 68 68 53 49 47 46 45 38 35 33 27 38 34 28 23 20 26 20 17 16 15 14 13 10 10 6 7 7 6 6 7 7 9 12 11 14 11 13 16

GFSSGP_250_spd_108.txt.gz
Wind_Speed
12 15 17 20 26 30 36 38 40 34 28 26 24 26 25 26 28 26 24 24 23 17 10 4 3 13 26 33 35 37 36 31 34 36 33 30 32 36 33 29 29 30 28 28 30 28 21 14 17
7 4 5 9 19 26 33 38 39 40 28 24 24 28 22 20 24 29 26 24 22 18 16 11 3 4 12 31 38 37 40 40 36 34 36 39 41 35 33 32 35 37 35 36 32 26 20 18 20
8 11 8 8 13 20 25 30 37 39 36 24 24 29 29 24 28 27 27 26 24 22 16 11 5 5 9 12 17 27 42 44 43 44 37 32 33 35 35 33 34 39 33 30 31 16 11 16 20
2 11 9 7 11 18 22 28 32 40 39 33 27 30 32 26 27 28 28 28 27 23 21 17 9 5 11 14 16 15 17 22 28 34 31 29 32 34 33 39 36 37 35 30 19 12 20 20 17
6 6 4 8 9 14 20 26 31 37 37 38 30 29 32 27 28 30 32 32 29 27 30 25 19 9 10 11 11 13 12 14 19 21 22 21 22 23 24 22 21 18 15 15 15 11 12 10 7
9 8 2 3 8 9 16 22 29 34 37 38 35 30 29 29 28 28 32 37 36 31 34 32 25 21 11 7 5 6 7 9 8 7 8 10 10 11 11 8 7 9 13 10 6 6 9 5 3
9 15 9 2 4 7 12 20 24 30 35 38 38 31 29 27 29 30 35 37 38 34 32 36 30 25 22 18 15 10 4 1 1 2 3 6 9 11 13 13 14 11 8 7 7 7 6 1 3
14 10 10 7 2 4 7 16 21 25 29 35 38 34 29 29 29 30 35 39 40 38 32 32 32 28 26 25 24 20 17 14 9 4 3 3 5 7 8 8 9 8 11 12 9 8 8 5 8
13 8 6 9 5 1 5 12 18 22 25 30 35 38 32 30 29 30 34 37 39 39 38 33 34 30 29 27 24 20 18 17 17 22 17 17 18 15 13 7 4 8 17 18 13 13 8 10 12
16 14 1 13 12 9 2 6 14 18 19 25 31 37 36 33 31 33 31 35 39 39 40 39 33 26 22 26 27 23 22 26 33 33 33 32 34 29 25 23 17 14 19 23 20 20 18 15 14
17 14 4 10 18 20 7 4 7 15 17 19 28 31 35 36 31 34 32 32 34 37 39 42 38 27 24 28 29 32 33 25 28 27 28 26 29 32 30 27 27 32 33 31 25 20 19 15 12
18 14 5 11 13 19 8 5 5 9 14 16 22 27 31 34 33 32 33 31 31 37 39 43 41 35 30 24 21 24 26 26 20 16 16 20 27 30 26 33 33 37 34 30 25 18 18 18 15
27 17 15 7 13 14 14 5 6 4 9 12 17 21 27 29 32 30 32 31 32 34 38 39 42 44 40 31 25 23 25 27 26 21 20 24 28 29 32 34 33 30 26 24 22 20 16 18 16
33 28 19 5 20 12 11 8 7 6 5 8 14 18 21 25 26 27 28 30 33 34 34 37 39 44 44 44 36 29 25 23 25 23 20 21 24 27 26 28 25 24 23 20 19 19 17 14 14
39 33 20 13 11 18 14 14 10 10 8 6 10 14 15 18 22 25 25 27 29 30 33 35 36 41 45 47 47 38 29 29 23 22 26 25 22 23 23 21 18 16 21 21 16 14 13 9 15
46 40 21 20 13 24 35 19 20 16 10 2 5 9 10 14 17 21 24 23 24 25 28 32 35 37 40 46 49 46 39 31 27 23 22 25 23 23 22 20 25 13 19 17 14 12 14 13 12
56 49 33 19 21 19 20 17 18 17 12 5 2 5 8 12 13 15 19 21 20 23 25 27 31 34 34 40 52 48 42 38 33 27 24 25 23 23 24 18 16 13 17 12 14 17 13 9 8
62 58 48 40 31 28 23 35 30 21 17 11 4 4 6 7 8 11 14 16 18 21 23 25 28 32 34 35 42 45 46 43 35 37 32 24 23 24 24 20 12 13 14 12 13 13 8 6 11
62 61 57 52 35 32 29 33 30 23 19 14 11 7 7 6 8 7 9 12 15 18 21 23 25 29 32 36 39 42 46 45 41 35 35 34 31 24 27 28 23 18 14 12 10 14 13 10 11
66 67 67 61 49 45 39 33 31 37 32 20 17 10 8 9 7 7 9 10 11 14 14 16 18 21 26 27 28 31 35 43 49 38 38 37 38 38 36 34 28 23 23 22 20 19 17 15 15
75 73 69 63 57 48 40 43 35 32 29 23 24 19 13 12 9 8 7 8 6 8 11 14 16 17 20 20 21 25 29 30 35 41 41 40 41 43 43 42 38 34 29 27 26 32 31 26 25
78 74 70 65 60 44 45 38 30 36 36 31 25 24 19 16 15 9 2 7 6 4 4 9 13 12 15 16 17 21 26 26 26 31 36 40 38 43 41 44 40 35 31 27 26 28 34 33 32
79 77 74 69 67 58 49 44 40 40 37 33 28 28 23 19 17 14 6 5 1 4 1 3 6 9 11 14 16 18 19 24 25 26 28 35 37 38 39 41 41 35 34 31 28 25 22 30 29
83 80 78 73 73 66 51 41 38 47 44 33 32 30 30 24 20 16 10 9 2 1 3 3 2 7 12 13 15 14 18 18 17 21 23 22 27 34 36 34 37 39 37 33 32 28 24 24 25
83 82 79 77 74 69 59 53 50 51 49 35 30 34 33 26 24 20 17 11 6 6 6 8 7 7 10 10 15 15 14 13 13 14 14 14 14 20 30 30 31 34 35 36 34 28 25 24 21
86 86 83 79 71 62 56 48 57 49 46 43 34 39 37 29 28 25 22 15 12 12 12 9 13 8 5 4 6 9 12 12 11 11 10 9 8 11 17 23 24 27 29 30 32 32 27 20 18
89 89 87 81 75 72 65 59 53 51 50 46 43 41 46 36 30 33 29 19 16 14 16 18 13 12 12 8 3 1 6 7 8 9 6 5 8 12 13 16 19 20 24 23 25 27 29 27 17
90 92 88 86 79 76 62 60 57 56 58 56 47 47 47 43 34 33 29 22 25 25 23 21 18 13 15 16 14 8 6 3 5 5 5 4 8 8 8 10 11 11 15 18 18 17 22 23 24
88 86 89 87 83 75 59 64 62 59 59 57 52 47 48 46 45 38 34 29 28 24 23 26 23 16 16 22 22 17 13 8 4 4 3 3 5 7 6 6 7 7 10 13 15 16 16 17 19
91 91 93 90 88 80 70 67 66 60 58 55 52 52 51 50 44 40 33 35 30 22 18 27 22 15 19 20 23 26 19 18 14 7 8 6 5 10 6 4 3 2 6 9 12 14 11 11 11

GFSSGP_250_spd_111.txt.gz
Wind_Speed
8 7 11 18 21 29 34 38 40 38 31 30 32 26 24 26 26 24 21 18 13 9 4 6 15 20 39 37 35 37 30 34 37 37 35 33 28 27 28 26 27 32 26 27 24 27 27 33 30
4 7 5 13 20 26 32 38 38 41 33 32 31 30 24 26 28 27 27 22 19 13 8 3 11 19 26 36 38 38 39 37 30 32 35 35 36 32 33 32 31 26 29 31 30 31 36 34 19
7 3 3 11 19 25 30 35 35 39 34 31 31 28 25 27 30 32 31 26 26 25 15 6 7 13 23 37 34 38 39 40 38 33 32 34 36 36 35 33 29 32 31 34 34 34 24 17 12
6 4 5 8 15 22 26 33 34 38 37 28 28 31 28 31 34 33 34 30 30 34 26 16 7 8 14 22 33 38 34 35 40 41 39 37 36 31 32 32 31 29 31 31 30 23 13 10 14
7 4 1 10 11 17 21 28 33 36 38 30 27 30 30 33 37 37 36 36 31 35 33 22 16 9 12 13 14 15 16 16 18 22 25 27 27 27 28 34 31 25 20 17 13 8 9 15 19
12 6 6 6 8 14 17 23 28 32 37 36 30 31 30 31 36 38 38 39 35 34 35 28 23 17 9 9 8 9 12 12 11 15 19 20 19 19 18 17 18 15 15 9 9 11 15 9 2
13 9 3 1 7 10 14 20 25 29 33 37 36 32 33 30 34 39 41 38 34 38 35 31 28 22 17 11 8 7 8 10 12 13 15 15 15 15 14 15 12 11 13 12 8 9 6 5 3
13 11 4 5 1 4 8 16 20 24 29 35 39 36 35 32 35 37 38 38 34 33 32 30 28 26 23 22 17 14 9 5 7 9 10 11 13 15 15 13 12 15 17 15 15 8 5 6 11
14 12 4 6 10 5 3 11 16 17 27 31 36 36 36 34 33 35 39 39 41 40 35 29 26 25 22 18 19 16 17 14 14 16 14 14 10 9 10 10 12 16 20 21 15 10 10 13 10
16 16 9 6 13 15 4 10 13 15 19 27 31 36 34 36 34 34 38 39 43 43 39 32 26 27 28 28 27 26 28 27 30 28 27 23 22 19 15 17 18 19 22 19 14 18 16 14 13
28 17 9 8 11 14 7 5 9 12 14 20 24 30 33 32 33 35 37 40 42 45 41 38 30 26 25 27 23 21 22 23 21 21 24 22 19 22 24 28 27 25 21 22 22 20 19 14 14
28 24 12 8 13 16 13 5 6 8 12 14 20 25 29 27 29 32 37 41 40 42 42 40 36 29 25 25 23 20 16 18 17 21 27 25 27 34 37 39 36 34 28 24 18 17 15 17 17
28 23 15 13 15 11 17 5 3 5 9 11 17 21 25 26 26 29 31 39 37 37 44 44 40 37 27 26 22 24 24 21 21 23 28 26 29 32 33 34 32 28 25 22 20 21 19 18 15
33 27 23 15 9 14 12 13 4 3 6 7 12 17 21 24 25 28 29 33 34 37 42 44 45 40 33 27 25 23 25 27 27 27 25 27 27 27 26 23 22 23 22 19 19 19 14 15 15
42 33 26 22 17 24 19 16 9 5 3 5 8 11 16 20 21 26 29 28 29 35 36 46 45 40 35 34 29 27 26 26 28 25 24 23 22 23 23 25 21 23 18 14 14 15 17 21 20
43 41 33 17 22 17 21 17 12 6 5 2 4 6 11 17 17 21 26 26 27 33 37 37 43 39 36 35 35 35 31 28 27 25 24 21 22 21 23 19 14 16 18 20 23 23 20 15 12
49 46 37 30 20 15 30 21 20 14 12 6 1 3 7 13 16 15 18 23 24 32 37 36 39 41 42 41 34 36 37 31 26 25 27 25 23 19 18 17 17 20 19 19 20 19 15 11 11
55 51 44 35 27 26 32 26 26 17 11 8 2 3 4 6 12 11 12 19 20 26 32 35 37 36 42 46 40 41 40 41 35 29 21 27 27 22 22 21 18 16 16 16 16 14 14 14 14
61 57 52 40 35 29 25 33 28 22 12 11 5 6 4 1 7 11 10 14 17 19 20 25 29 28 33 34 41 41 38 41 44 42 33 33 30 29 24 22 19 18 19 19 18 18 18 18 19
67 63 60 52 37 37 31 36 34 31 16 19 8 8 8 7 5 10 8 11 14 17 17 18 22 23 27 31 31 35 40 43 42 45 44 40 38 34 32 32 32 30 31 28 25 24 22 23 24
74 71 73 63 46 43 42 34 32 36 30 25 25 18 11 9 9 9 7 7 8 12 14 16 15 18 21 28 29 28 31 35 41 44 44 41 42 39 35 33 33 33 32 32 31 29 27 28 28
80 77 76 70 61 44 45 42 43 38 33 28 25 22 19 14 12 10 7 7 7 6 9 11 10 13 18 21 24 27 28 28 32 38 41 38 38 42 41 39 31 29 28 30 35 35 33 32 27
85 83 80 78 67 56 52 40 44 41 36 33 31 19 23 21 18 13 7 6 5 3 4 7 10 12 15 16 17 16 19 23 23 25 29 34 35 38 37 40 39 32 30 28 31 32 31 27 26
86 86 82 81 76 71 60 58 44 44 40 37 29 27 26 24 24 18 12 6 6 4 4 4 9 14 15 14 16 15 14 15 17 17 20 25 30 31 33 38 42 41 33 29 24 26 29 25 23
88 89 87 83 82 75 66 64 52 47 44 36 31 31 30 28 26 23 19 10 6 7 7 8 11 14 13 13 13 14 13 11 13 17 19 19 20 24 26 30 32 36 38 32 25 20 20 23 20
90 94 93 87 84 78 70 65 59 52 44 36 37 34 32 30 32 28 23 16 13 10 12 13 12 10 9 7 7 11 11 9 9 12 15 16 16 19 21 23 27 28 29 32 34 23 15 15 10
91 96 95 92 86 80 76 64 61 56 55 51 43 44 37 36 37 29 29 19 19 13 15 14 15 12 10 7 4 2 7 6 6 10 11 12 9 14 15 17 17 19 22 25 25 26 27 15 9
93 99 98 96 90 83 77 74 66 59 59 53 57 49 40 36 40 34 37 28 22 21 17 17 16 15 15 14 11 8 4 3 2 4 8 11 10 10 11 11 12 14 17 20 18 19 21 20 19
91 95 97 96 92 88 82 79 71 65 58 55 58 54 49 43 38 42 33 32 29 26 25 22 19 22 20 15 16 17 12 9 7 3 2 5 7 9 8 4 5 6 10 15 15 15 15 15 16
94 99 100 98 96 90 87 83 77 67 67 63 60 57 51 49 42 41 43 35 32 30 26 27 24 25 22 14 13 17 18 15 13 12 10 6 1 6 8 7 4 4 4 3 3 5 5 7 7

GFSSGP_250_spd_114.txt.gz
Wind_Speed
3 11 11 17 24 29 31 33 31 29 30 30 30 28 29 29 30 26 20 16 11 3 7 12 17 25 24 23 28 24 26 35 34 34 35 29 24 24 21 22 21 21 22 25 27 24 26 26 27
5 7 7 15 22 27 31 35 34 31 31 31 32 31 33 33 32 27 22 19 17 6 6 13 17 22 27 30 33 34 33 36 34 35 38 35 30 29 28 30 28 28 26 28 21 26 28 29 31
4 3 6 13 19 24 28 36 37 32 31 32 31 33 35 36 32 31 22 19 21 11 1 12 20 22 26 26 35 37 38 33 35 39 39 38 37 37 35 36 35 33 26 25 23 22 26 23 24
6 1 6 12 16 21 27 33 37 34 32 33 31 31 33 36 35 34 29 26 26 20 15 6 14 22 23 25 34 38 40 39 40 40 37 37 36 36 35 36 34 29 26 23 23 23 24 25 16
6 4 2 9 13 18 22 28 35 37 34 34 32 29 31 36 36 37 31 33 33 30 24 17 12 16 22 24 29 32 34 35 39 39 39 41 38 35 33 36 32 29 25 25 17 15 15 13 12
13 8 5 5 8 14 19 25 31 33 34 34 34 30 32 35 36 39 35 32 33 32 31 22 17 13 15 15 20 29 37 31 32 33 34 34 36 37 30 26 27 21 16 8 7 7 3 8 6
15 6 2 3 6 12 15 18 27 30 33 35 35 33 35 36 36 39 37 36 32 31 31 27 18 14 12 10 10 12 15 18 20 18 16 16 16 18 20 20 19 16 9 6 5 5 6 5 4
14 11 1 6 2 9 13 14 22 26 29 33 32 34 36 36 37 39 38 37 31 29 31 29 23 18 15 11 8 5 6 9 11 13 13 14 15 14 13 14 12 13 12 13 12 11 7 9 12
13 11 5 3 6 6 11 10 16 19 25 28 30 30 35 36 36 37 37 38 36 33 31 31 33 24 16 13 17 20 17 13 6 7 5 6 12 15 17 15 14 15 16 17 11 10 6 13 12
16 16 12 3 3 8 9 6 11 15 19 24 28 28 31 36 36 35 37 38 39 37 32 30 31 29 27 25 26 25 25 25 23 19 15 12 10 10 12 14 18 23 18 17 13 11 16 18 16
19 18 10 6 5 4 15 4 7 13 15 23 24 28 30 32 34 34 38 40 39 38 37 30 30 29 24 18 17 19 20 19 19 19 24 21 19 22 23 25 25 24 20 15 17 18 17 15 16
26 25 15 3 11 6 13 9 0 9 14 20 21 25 30 32 32 32 34 38 40 38 35 31 30 29 28 26 22 21 23 28 30 29 30 31 33 34 35 35 32 28 26 23 20 18 13 16 17
32 32 20 10 16 9 13 13 2 5 10 16 18 21 26 30 28 29 32 39 39 38 36 33 30 32 28 29 29 30 31 29 30 32 30 31 32 31 30 30 29 26 22 19 16 15 17 18 16
35 34 28 20 18 17 15 17 7 2 6 12 14 16 21 27 27 28 27 33 39 38 38 39 37 36 33 29 28 29 29 27 28 30 26 27 27 26 27 25 24 21 21 21 19 17 14 18 23
39 35 29 31 23 18 16 18 12 5 5 7 12 10 16 20 27 27 28 34 36 38 41 40 39 37 34 31 29 27 26 28 26 24 25 22 25 26 25 24 20 18 16 16 15 16 20 22 23
45 38 34 32 25 17 19 19 17 11 6 3 7 8 15 15 21 26 31 32 35 37 43 44 44 38 35 36 30 28 25 27 26 24 22 21 18 19 19 18 19 21 25 25 24 21 20 18 17
50 44 39 40 26 21 19 24 22 14 9 5 2 7 10 13 15 22 26 30 29 34 37 42 43 39 40 36 35 32 27 24 28 25 23 23 20 16 18 22 21 22 20 19 19 19 20 23 22
54 51 50 42 33 29 28 25 20 19 16 8 3 4 10 11 10 17 22 25 23 25 28 33 36 40 39 43 38 33 29 36 30 26 24 24 22 21 21 22 20 21 22 24 23 24 23 25 28
60 58 53 43 39 33 24 29 23 25 22 17 9 2 6 8 9 14 18 21 20 15 17 28 30 35 38 39 41 42 39 38 36 31 29 27 28 27 26 26 26 26 25 27 25 26 29 30 33
66 63 58 56 47 37 31 39 32 31 31 19 11 6 3 6 9 12 15 18 19 17 14 20 24 31 31 34 37 43 43 44 40 37 32 28 35 35 34 32 31 30 31 31 33 32 33 35 32
72 70 65 62 54 44 45 41 39 31 28 26 12 10 7 8 7 13 11 12 13 15 15 16 21 22 25 28 33 34 40 43 43 42 43 32 26 26 30 30 31 30 32 35 39 39 36 35 29
77 77 71 66 56 55 51 44 34 33 36 28 28 17 13 11 8 8 10 9 8 10 11 9 14 14 17 21 22 27 30 34 37 39 41 39 36 27 25 28 28 36 38 41 39 37 34 31 26
79 80 76 73 64 56 50 51 44 41 40 33 30 21 18 16 13 11 5 4 7 6 8 8 9 9 12 14 17 20 25 25 29 32 35 37 39 38 33 31 33 36 37 36 35 31 26 24 19
80 85 83 77 72 64 55 54 48 44 49 44 37 27 22 27 20 18 11 4 3 5 6 7 8 9 11 13 14 16 18 22 24 24 27 29 32 36 39 35 31 28 32 31 27 26 23 19 15
83 88 89 83 84 74 63 56 51 55 48 43 40 32 28 27 26 24 18 10 8 4 7 10 13 11 11 12 13 13 17 18 20 21 21 25 25 27 30 34 35 31 25 24 24 24 20 17 12
84 88 93 89 89 79 69 61 60 59 56 45 43 35 33 28 27 28 25 19 13 6 7 15 15 11 10 11 11 12 12 13 16 15 16 20 20 21 23 24 28 29 30 24 16 15 14 10 9
87 88 95 94 94 89 79 63 65 63 61 51 48 40 39 34 32 31 30 27 22 11 10 17 17 13 9 7 6 7 10 9 12 12 11 13 17 17 18 18 21 21 22 23 24 15 10 8 8
96 92 92 99 101 97 89 73 64 61 65 57 50 44 39 38 35 36 36 29 26 16 16 18 20 17 14 12 9 4 2 3 3 9 13 12 13 11 9 12 16 20 18 18 17 17 17 16 17
98 98 94 102 102 100 93 88 76 67 64 60 53 50 44 38 38 38 39 35 31 20 19 20 19 19 17 16 13 15 13 8 3 2 7 11 10 9 8 6 7 11 11 11 11 10 10 10 12
94 103 97 98 103 103 95 92 86 72 68 65 60 56 53 46 46 43 45 39 34 32 27 27 24 23 22 20 20 11 13 11 14 8 8 8 7 1 3 6 3 4 2 3 3 4 5 6 7

GFSSGP_250_spd_117.txt.gz
Wind_Speed
6 12 14 21 24 29 34 28 27 29 29 29 31 32 30 27 21 15 12 10 3 7 13 19 22 24 30 20 26 23 24 31 31 33 32 30 31 28 28 22 17 18 18 22 23 26 21 23 26
2 7 11 18 21 25 32 32 30 31 30 28 30 33 33 32 24 21 14 11 6 7 17 21 25 30 32 24 24 28 29 31 36 30 31 30 35 33 27 23 21 24 25 26 25 20 22 18 19
2 3 11 14 20 22 29 34 34 33 31 30 29 31 33 34 28 22 18 16 11 3 18 24 24 33 33 27 28 28 27 32 42 32 32 35 36 28 27 25 28 30 29 30 30 22 21 25 22
3 2 7 11 16 20 25 33 34 33 34 32 30 32 33 34 29 22 19 23 18 6 9 23 26 31 33 34 35 30 31 30 36 33 35 31 30 35 35 36 33 35 33 31 30 24 24 24 21
4 1 3 7 11 17 21 29 33 33 33 32 32 33 33 34 31 23 22 25 26 18 12 14 20 23 23 24 30 32 38 36 36 36 38 37 39 42 40 39 36 35 31 27 22 19 19 11 7
9 5 1 4 7 14 18 24 30 33 32 32 31 33 32 32 30 26 21 29 29 26 20 14 14 16 15 13 15 18 33 36 36 34 35 37 38 37 38 38 34 28 23 17 14 11 3 0 3
8 7 3 7 8 11 14 18 26 30 32 29 30 32 31 31 30 29 25 28 31 28 24 20 15 12 11 13 16 20 24 29 30 27 28 31 31 31 30 27 20 14 8 9 12 7 2 2 4
14 7 4 5 5 9 13 13 20 26 29 26 29 30 30 32 33 33 28 28 27 32 29 23 20 16 10 6 6 12 18 24 27 28 27 23 23 22 19 16 13 8 13 13 8 8 7 12 14
18 14 8 3 2 4 12 12 15 21 26 25 24 28 28 32 34 35 32 27 28 32 31 28 27 24 22 24 22 16 8 8 10 11 16 20 21 18 15 14 15 13 13 14 15 13 14 15 16
18 16 13 8 2 2 7 7 11 18 23 23 21 24 26 29 32 35 35 32 34 35 34 29 26 26 23 20 20 19 17 16 12 9 9 11 15 20 19 20 17 16 18 20 15 15 19 19 17
21 18 16 6 1 2 3 2 10 15 20 20 20 22 25 27 34 34 35 37 31 33 33 30 29 23 17 18 15 16 15 16 17 12 8 10 12 14 17 18 21 20 22 21 18 22 21 20 20
26 23 17 9 1 3 3 4 4 9 15 17 21 22 23 24 30 34 34 39 35 33 32 31 30 29 27 22 26 28 30 31 35 35 27 21 20 23 26 28 26 24 25 20 24 17 16 20 24
30 27 18 12 4 12 6 5 4 5 11 15 18 21 21 23 29 32 35 35 38 34 33 31 31 30 28 30 29 29 31 30 31 34 34 33 32 33 32 29 27 25 23 25 19 19 20 21 24
34 35 25 21 14 12 12 9 10 4 7 13 15 18 21 22 31 34 36 37 35 36 34 31 28 28 28 30 29 27 27 26 26 28 29 32 31 32 30 26 22 20 21 18 19 21 20 28 23
38 33 36 30 26 19 12 13 16 7 7 9 11 13 20 21 30 43 41 40 38 33 34 31 30 26 27 26 27 26 24 21 21 23 27 27 26 25 24 27 24 23 23 19 16 18 27 27 31
43 38 37 28 31 22 21 17 17 8 5 7 7 10 16 19 24 29 32 33 37 37 36 36 34 28 27 25 23 27 23 22 21 20 21 21 21 22 20 19 22 25 26 27 27 25 24 32 33
47 44 40 35 35 30 27 21 17 14 8 7 3 8 11 17 16 23 26 28 35 37 36 40 41 39 34 34 26 25 25 24 24 23 19 17 20 22 26 27 27 26 26 25 26 30 36 38 31
53 50 45 43 40 37 34 23 22 21 13 11 7 7 9 11 14 14 18 23 28 32 32 37 41 42 43 37 34 27 27 26 25 26 23 21 20 22 24 23 23 27 29 30 30 41 40 36 30
57 56 51 47 47 41 32 29 27 23 16 18 13 11 6 8 11 11 12 12 22 27 28 30 34 38 42 44 40 37 26 29 30 28 28 25 21 21 24 27 29 35 34 35 40 41 38 34 29
59 62 58 54 54 43 39 33 31 27 21 22 19 16 10 9 10 10 11 9 14 21 25 24 26 31 37 41 41 40 36 31 30 30 30 30 23 22 22 30 33 36 36 40 44 40 35 30 26
59 66 64 60 60 50 44 41 37 30 25 21 18 16 10 12 13 15 9 11 10 15 17 21 22 26 28 32 36 38 39 35 32 25 24 24 25 25 28 30 37 42 45 43 41 36 31 25 22
59 68 71 67 65 59 51 44 44 44 44 30 26 18 12 13 13 14 10 8 8 10 10 11 14 17 20 26 26 26 31 36 36 37 31 27 27 29 34 36 40 44 42 39 36 31 26 25 24
64 67 75 75 71 62 59 50 47 48 45 37 36 23 15 18 19 14 14 9 7 7 9 7 7 11 18 18 24 24 26 28 32 35 36 34 33 32 35 38 40 41 38 35 30 27 24 23 27
66 73 78 82 76 70 62 54 56 51 49 40 41 25 26 23 23 19 16 10 9 7 8 8 7 10 12 16 20 22 20 22 27 29 32 36 34 31 30 35 34 30 27 26 23 22 19 18 16
73 78 77 86 83 77 66 63 64 51 52 48 46 37 35 27 28 24 19 12 11 10 9 11 11 11 13 17 18 18 18 20 19 23 26 27 29 30 29 24 24 22 22 21 18 17 15 10 7
67 77 83 88 88 81 75 70 71 61 59 50 44 39 33 30 31 30 25 18 16 12 13 17 13 12 12 13 16 16 17 16 17 19 21 25 24 25 27 28 22 17 17 19 16 15 11 8 6
55 77 84 84 92 85 81 78 79 68 62 53 54 50 42 38 35 32 30 26 21 15 15 17 16 13 10 8 10 12 15 13 16 15 16 20 20 20 19 20 20 21 19 13 8 6 4 6 9
55 75 78 83 97 93 87 83 78 71 63 58 57 57 52 48 41 36 35 33 30 21 19 20 19 18 15 11 8 6 6 8 9 14 14 13 14 16 17 17 16 16 16 17 17 15 17 19 18
55 75 81 86 96 96 95 87 79 76 69 66 63 58 54 54 50 43 40 37 34 29 24 22 27 20 19 17 14 12 8 5 7 9 10 11 9 11 9 12 12 10 10 9 8 10 10 11 10
46 71 85 86 94 100 99 95 82 79 75 71 60 62 60 55 52 47 43 42 39 33 28 26 26 28 24 22 17 14 9 10 7 12 11 12 10 7 8 7 9 7 3 5 7 6 6 7 5

GFSSGP_250_spd_120.txt.gz
Wind_Speed
4 10 15 19 23 28 27 23 22 22 23 24 26 27 25 19 14 10 4 2 7 16 18 20 27 31 29 21 23 23 25 31 31 34 29 29 24 18 25 26 29 21 18 18 22 24 23 21 23
2 6 13 17 20 26 26 26 23 24 23 24 26 27 27 24 15 13 9 2 8 17 22 23 32 36 30 29 22 29 24 30 25 28 33 32 30 27 28 24 26 23 17 21 22 21 23 25 21
4 2 10 13 18 22 25 26 24 24 24 24 26 28 30 27 20 13 10 6 4 18 24 26 29 35 34 28 21 27 23 22 30 27 35 34 32 27 27 28 26 25 20 23 27 28 26 28 29
3 2 5 9 16 18 24 27 26 24 25 25 27 30 31 29 26 18 14 11 5 13 25 26 27 30 35 28 25 24 30 23 29 37 31 30 30 31 30 27 30 28 27 30 34 35 32 25 24
5 1 3 7 11 16 20 22 27 24 26 25 28 31 33 32 26 18 18 17 15 9 19 29 27 27 31 35 27 26 33 29 29 37 38 37 31 29 30 33 31 32 36 32 31 26 22 17 5
8 1 4 5 8 13 15 22 25 25 24 26 28 31 32 34 25 18 20 20 20 16 11 22 27 26 30 33 30 30 32 29 32 30 33 33 35 35 35 34 36 36 32 28 25 19 9 1 3
7 8 3 2 5 12 12 19 22 25 23 26 26 28 29 33 29 16 20 22 23 21 16 14 16 22 27 26 28 29 34 36 41 40 36 34 31 37 38 35 31 27 25 19 15 7 5 2 3
6 10 6 3 3 7 10 16 19 24 22 24 24 25 27 32 30 19 19 22 24 23 21 18 14 10 9 10 13 16 18 23 36 38 39 38 37 35 33 32 26 18 14 10 10 10 6 8 12
10 11 8 7 3 2 7 14 17 21 21 22 23 23 28 32 31 24 25 29 30 30 27 25 25 22 17 11 9 14 16 19 23 28 30 29 29 27 25 23 16 13 15 14 13 11 15 15 14
14 18 14 11 4 3 4 9 14 17 20 20 22 22 27 31 31 22 23 26 26 25 22 22 19 16 14 14 15 14 11 11 18 22 23 23 22 19 15 16 17 18 16 15 15 14 17 16 14
17 20 19 14 6 1 4 3 12 13 17 20 20 24 23 27 28 26 24 26 29 27 26 22 17 13 12 12 13 13 10 8 10 14 17 17 17 17 21 19 18 17 18 16 15 18 19 17 15
23 22 22 17 9 6 2 1 6 9 14 17 19 22 23 26 26 28 28 29 27 28 27 26 25 25 25 25 26 28 23 19 15 14 15 16 16 20 23 23 23 18 20 19 23 20 19 18 23
29 25 23 22 11 6 3 2 3 6 11 13 18 21 24 25 26 27 30 32 29 23 25 28 26 25 25 27 26 27 27 27 28 22 22 23 25 27 28 25 23 23 24 24 18 20 19 25 26
33 31 28 23 14 9 10 5 5 5 8 10 14 22 29 30 30 28 28 26 27 27 25 25 25 24 22 22 23 22 24 27 31 32 31 31 30 31 29 26 25 26 24 20 23 23 24 31 27
37 36 34 29 20 16 13 10 11 6 6 10 9 15 23 25 28 30 32 38 32 28 26 25 21 18 21 19 18 19 19 23 26 29 33 32 31 30 26 25 25 24 19 23 20 26 28 30 32
41 40 39 34 26 26 18 17 13 10 7 9 6 9 17 22 24 29 27 35 39 36 32 28 24 19 19 21 18 18 19 20 24 23 22 26 28 29 27 27 27 25 20 22 28 29 32 30 38
47 45 44 43 36 33 23 21 18 15 10 8 6 8 10 14 15 21 25 31 36 39 38 33 33 29 26 25 22 22 19 19 18 15 17 18 22 21 24 25 26 29 32 31 29 36 33 29 35
52 50 47 44 42 38 33 26 24 16 13 10 11 8 8 9 9 9 18 24 29 36 38 40 40 41 32 27 27 28 26 19 17 18 21 20 25 27 30 29 29 29 28 30 39 37 31 29 31
54 56 52 48 45 42 38 33 28 26 19 16 14 11 9 7 7 5 11 14 20 28 33 35 37 39 38 37 26 25 25 28 23 18 19 23 23 23 25 27 27 29 34 42 41 34 29 31 26
50 58 58 54 53 45 45 41 36 33 28 21 19 16 9 10 10 8 10 11 12 19 26 29 31 37 38 38 32 24 22 25 26 27 20 22 23 24 25 29 34 35 40 43 37 35 37 31 27
46 53 60 59 57 54 49 47 42 36 32 25 24 21 15 12 14 13 10 13 10 11 17 24 26 24 26 28 34 33 25 21 24 29 24 21 24 27 32 33 34 40 42 38 34 33 35 34 23
49 50 57 64 63 59 55 51 51 41 39 29 29 26 20 15 15 14 10 11 10 8 9 11 20 21 21 25 26 30 33 29 26 29 26 24 28 29 34 37 43 42 39 34 29 28 27 24 21
48 54 54 63 68 66 62 56 55 48 46 37 35 28 25 22 18 16 13 11 9 9 8 6 11 17 20 21 22 27 32 38 30 31 29 27 31 41 42 44 43 39 34 28 23 25 24 19 19
46 52 57 59 68 70 66 62 60 55 51 41 37 34 31 26 23 19 16 14 13 10 11 11 12 13 19 19 14 18 22 24 31 32 30 29 33 34 39 40 34 28 26 23 21 22 22 14 11
50 54 56 66 65 76 71 68 64 61 56 47 46 40 35 31 26 25 20 13 14 13 12 14 14 13 15 15 13 13 15 20 23 28 31 29 28 28 27 25 23 21 21 20 17 17 12 8 7
44 52 60 66 74 71 77 78 68 66 64 58 56 48 42 34 30 31 25 21 18 17 15 15 19 18 17 16 17 17 16 17 19 20 23 24 23 20 20 19 17 18 16 14 12 9 6 6 6
42 47 55 68 72 74 81 84 76 68 65 64 63 57 48 41 37 35 31 29 22 20 19 19 18 21 19 17 16 16 16 16 17 18 15 18 21 19 17 17 16 18 15 12 7 4 7 9 10
42 44 46 54 72 78 81 88 81 75 68 67 65 63 55 46 43 37 38 35 29 23 23 25 21 20 18 18 16 13 13 15 16 17 16 13 14 13 11 14 16 17 14 12 13 15 16 16 15
38 38 41 43 63 80 86 90 87 82 75 71 69 63 60 52 52 43 42 42 35 28 25 26 27 23 22 19 18 13 9 8 13 14 14 14 13 11 11 9 10 12 11 10 10 11 12 10 10
37 38 34 36 59 81 86 85 92 85 80 79 73 70 61 55 51 47 44 42 40 38 31 29 29 29 27 23 20 17 14 13 11 16 14 13 13 13 13 12 9 5 6 9 9 11 8 7 6